<?xml version="1.0" encoding="UTF-8" standalone="no" ?>
<gpx xmlns="http://www.topografix.com/GPX/1/1" xmlns:xsi="http://www.w3.org/2001/XMLSchema-instance" xsi:schemaLocation="http://www.topografix.com/GPX/1/1 http://www.topografix.com/GPX/1/1/gpx.xsd" version="1.1" creator="VisuGPX - https://www.visugpx.com">
  <metadata>
    <name>8mars2014</name>
    <desc><![CDATA[club vtt des rochers]]></desc>
  </metadata>
  <trk>
    <name><![CDATA[8mars2014]]></name>
    <trkseg>
      <trkpt lat="44.47206" lon="0.93414">
        <ele>69.35</ele>
        <time>2014-03-08T12:45:02Z</time>
      </trkpt>
      <trkpt lat="44.47206" lon="0.93415">
        <ele>69.83</ele>
        <time>2014-03-08T12:45:23Z</time>
      </trkpt>
      <trkpt lat="44.472" lon="0.93419">
        <ele>60.7</ele>
        <time>2014-03-08T13:15:19Z</time>
      </trkpt>
      <trkpt lat="44.47198" lon="0.93425">
        <ele>66.47</ele>
        <time>2014-03-08T13:15:41Z</time>
      </trkpt>
      <trkpt lat="44.47199" lon="0.93424">
        <ele>67.43</ele>
        <time>2014-03-08T13:16:02Z</time>
      </trkpt>
      <trkpt lat="44.47198" lon="0.93422">
        <ele>66.95</ele>
        <time>2014-03-08T13:16:22Z</time>
      </trkpt>
      <trkpt lat="44.47196" lon="0.93424">
        <ele>67.91</ele>
        <time>2014-03-08T13:16:49Z</time>
      </trkpt>
      <trkpt lat="44.47196" lon="0.93424">
        <ele>68.39</ele>
        <time>2014-03-08T13:17:14Z</time>
      </trkpt>
      <trkpt lat="44.47197" lon="0.93424">
        <ele>66.47</ele>
        <time>2014-03-08T13:17:44Z</time>
      </trkpt>
      <trkpt lat="44.47196" lon="0.93424">
        <ele>66.95</ele>
        <time>2014-03-08T13:18:06Z</time>
      </trkpt>
      <trkpt lat="44.47196" lon="0.93424">
        <ele>66.47</ele>
        <time>2014-03-08T13:18:13Z</time>
      </trkpt>
      <trkpt lat="44.47197" lon="0.93433">
        <ele>66.95</ele>
        <time>2014-03-08T13:18:17Z</time>
      </trkpt>
      <trkpt lat="44.47198" lon="0.93435">
        <ele>66.95</ele>
        <time>2014-03-08T13:18:18Z</time>
      </trkpt>
      <trkpt lat="44.47199" lon="0.93438">
        <ele>66.95</ele>
        <time>2014-03-08T13:18:19Z</time>
      </trkpt>
      <trkpt lat="44.472" lon="0.9344">
        <ele>66.95</ele>
        <time>2014-03-08T13:18:20Z</time>
      </trkpt>
      <trkpt lat="44.47202" lon="0.93444">
        <ele>67.43</ele>
        <time>2014-03-08T13:18:22Z</time>
      </trkpt>
      <trkpt lat="44.47202" lon="0.93445">
        <ele>67.43</ele>
        <time>2014-03-08T13:18:23Z</time>
      </trkpt>
      <trkpt lat="44.47203" lon="0.93447">
        <ele>67.43</ele>
        <time>2014-03-08T13:18:24Z</time>
      </trkpt>
      <trkpt lat="44.47205" lon="0.93448">
        <ele>67.43</ele>
        <time>2014-03-08T13:18:25Z</time>
      </trkpt>
      <trkpt lat="44.47207" lon="0.93449">
        <ele>67.43</ele>
        <time>2014-03-08T13:18:26Z</time>
      </trkpt>
      <trkpt lat="44.47209" lon="0.93449">
        <ele>67.43</ele>
        <time>2014-03-08T13:18:27Z</time>
      </trkpt>
      <trkpt lat="44.47213" lon="0.93452">
        <ele>67.91</ele>
        <time>2014-03-08T13:18:29Z</time>
      </trkpt>
      <trkpt lat="44.47215" lon="0.93455">
        <ele>67.91</ele>
        <time>2014-03-08T13:18:30Z</time>
      </trkpt>
      <trkpt lat="44.47216" lon="0.93458">
        <ele>67.91</ele>
        <time>2014-03-08T13:18:31Z</time>
      </trkpt>
      <trkpt lat="44.47217" lon="0.93462">
        <ele>67.91</ele>
        <time>2014-03-08T13:18:32Z</time>
      </trkpt>
      <trkpt lat="44.47218" lon="0.93466">
        <ele>68.39</ele>
        <time>2014-03-08T13:18:33Z</time>
      </trkpt>
      <trkpt lat="44.47219" lon="0.93469">
        <ele>68.39</ele>
        <time>2014-03-08T13:18:34Z</time>
      </trkpt>
      <trkpt lat="44.4722" lon="0.93474">
        <ele>68.39</ele>
        <time>2014-03-08T13:18:35Z</time>
      </trkpt>
      <trkpt lat="44.4722" lon="0.93478">
        <ele>68.39</ele>
        <time>2014-03-08T13:18:36Z</time>
      </trkpt>
      <trkpt lat="44.47221" lon="0.93482">
        <ele>68.39</ele>
        <time>2014-03-08T13:18:37Z</time>
      </trkpt>
      <trkpt lat="44.47228" lon="0.93533">
        <ele>67.43</ele>
        <time>2014-03-08T13:18:48Z</time>
      </trkpt>
      <trkpt lat="44.47236" lon="0.93583">
        <ele>68.39</ele>
        <time>2014-03-08T13:18:59Z</time>
      </trkpt>
      <trkpt lat="44.47256" lon="0.93625">
        <ele>67.91</ele>
        <time>2014-03-08T13:19:08Z</time>
      </trkpt>
      <trkpt lat="44.47259" lon="0.93628">
        <ele>67.91</ele>
        <time>2014-03-08T13:19:09Z</time>
      </trkpt>
      <trkpt lat="44.47277" lon="0.93645">
        <ele>66.95</ele>
        <time>2014-03-08T13:19:14Z</time>
      </trkpt>
      <trkpt lat="44.47279" lon="0.9365">
        <ele>66.95</ele>
        <time>2014-03-08T13:19:15Z</time>
      </trkpt>
      <trkpt lat="44.47281" lon="0.93655">
        <ele>66.95</ele>
        <time>2014-03-08T13:19:16Z</time>
      </trkpt>
      <trkpt lat="44.47282" lon="0.9366">
        <ele>66.47</ele>
        <time>2014-03-08T13:19:17Z</time>
      </trkpt>
      <trkpt lat="44.47284" lon="0.93665">
        <ele>66.47</ele>
        <time>2014-03-08T13:19:18Z</time>
      </trkpt>
      <trkpt lat="44.47286" lon="0.93669">
        <ele>66.47</ele>
        <time>2014-03-08T13:19:19Z</time>
      </trkpt>
      <trkpt lat="44.47289" lon="0.93673">
        <ele>65.99</ele>
        <time>2014-03-08T13:19:20Z</time>
      </trkpt>
      <trkpt lat="44.47292" lon="0.93676">
        <ele>65.99</ele>
        <time>2014-03-08T13:19:21Z</time>
      </trkpt>
      <trkpt lat="44.47295" lon="0.93681">
        <ele>65.51</ele>
        <time>2014-03-08T13:19:22Z</time>
      </trkpt>
      <trkpt lat="44.47297" lon="0.93686">
        <ele>65.03</ele>
        <time>2014-03-08T13:19:23Z</time>
      </trkpt>
      <trkpt lat="44.47299" lon="0.93692">
        <ele>64.07</ele>
        <time>2014-03-08T13:19:24Z</time>
      </trkpt>
      <trkpt lat="44.47319" lon="0.93736">
        <ele>62.14</ele>
        <time>2014-03-08T13:19:33Z</time>
      </trkpt>
      <trkpt lat="44.47322" lon="0.93739">
        <ele>62.14</ele>
        <time>2014-03-08T13:19:34Z</time>
      </trkpt>
      <trkpt lat="44.47326" lon="0.93743">
        <ele>62.62</ele>
        <time>2014-03-08T13:19:35Z</time>
      </trkpt>
      <trkpt lat="44.47332" lon="0.93751">
        <ele>62.14</ele>
        <time>2014-03-08T13:19:37Z</time>
      </trkpt>
      <trkpt lat="44.47335" lon="0.93756">
        <ele>62.14</ele>
        <time>2014-03-08T13:19:38Z</time>
      </trkpt>
      <trkpt lat="44.47339" lon="0.93767">
        <ele>62.14</ele>
        <time>2014-03-08T13:19:40Z</time>
      </trkpt>
      <trkpt lat="44.4734" lon="0.93772">
        <ele>61.66</ele>
        <time>2014-03-08T13:19:41Z</time>
      </trkpt>
      <trkpt lat="44.47345" lon="0.93796">
        <ele>61.66</ele>
        <time>2014-03-08T13:19:45Z</time>
      </trkpt>
      <trkpt lat="44.47348" lon="0.93812">
        <ele>62.14</ele>
        <time>2014-03-08T13:19:48Z</time>
      </trkpt>
      <trkpt lat="44.4735" lon="0.93814">
        <ele>62.14</ele>
        <time>2014-03-08T13:19:49Z</time>
      </trkpt>
      <trkpt lat="44.47353" lon="0.93817">
        <ele>62.14</ele>
        <time>2014-03-08T13:19:50Z</time>
      </trkpt>
      <trkpt lat="44.47356" lon="0.93819">
        <ele>62.14</ele>
        <time>2014-03-08T13:19:51Z</time>
      </trkpt>
      <trkpt lat="44.47358" lon="0.93821">
        <ele>62.14</ele>
        <time>2014-03-08T13:19:52Z</time>
      </trkpt>
      <trkpt lat="44.47361" lon="0.93825">
        <ele>62.14</ele>
        <time>2014-03-08T13:19:53Z</time>
      </trkpt>
      <trkpt lat="44.47363" lon="0.93828">
        <ele>62.14</ele>
        <time>2014-03-08T13:19:54Z</time>
      </trkpt>
      <trkpt lat="44.47366" lon="0.93833">
        <ele>61.66</ele>
        <time>2014-03-08T13:19:55Z</time>
      </trkpt>
      <trkpt lat="44.47369" lon="0.93838">
        <ele>62.14</ele>
        <time>2014-03-08T13:19:56Z</time>
      </trkpt>
      <trkpt lat="44.47371" lon="0.93844">
        <ele>62.14</ele>
        <time>2014-03-08T13:19:57Z</time>
      </trkpt>
      <trkpt lat="44.47387" lon="0.93917">
        <ele>64.55</ele>
        <time>2014-03-08T13:20:11Z</time>
      </trkpt>
      <trkpt lat="44.47395" lon="0.93955">
        <ele>65.03</ele>
        <time>2014-03-08T13:20:20Z</time>
      </trkpt>
      <trkpt lat="44.47394" lon="0.93958">
        <ele>65.03</ele>
        <time>2014-03-08T13:20:22Z</time>
      </trkpt>
      <trkpt lat="44.47392" lon="0.93959">
        <ele>65.03</ele>
        <time>2014-03-08T13:20:23Z</time>
      </trkpt>
      <trkpt lat="44.4739" lon="0.9396">
        <ele>64.55</ele>
        <time>2014-03-08T13:20:24Z</time>
      </trkpt>
      <trkpt lat="44.47387" lon="0.93961">
        <ele>64.55</ele>
        <time>2014-03-08T13:20:25Z</time>
      </trkpt>
      <trkpt lat="44.47385" lon="0.93964">
        <ele>64.55</ele>
        <time>2014-03-08T13:20:26Z</time>
      </trkpt>
      <trkpt lat="44.47383" lon="0.93966">
        <ele>64.55</ele>
        <time>2014-03-08T13:20:27Z</time>
      </trkpt>
      <trkpt lat="44.4738" lon="0.93968">
        <ele>65.03</ele>
        <time>2014-03-08T13:20:28Z</time>
      </trkpt>
      <trkpt lat="44.47377" lon="0.9397">
        <ele>65.03</ele>
        <time>2014-03-08T13:20:29Z</time>
      </trkpt>
      <trkpt lat="44.47375" lon="0.93972">
        <ele>65.03</ele>
        <time>2014-03-08T13:20:30Z</time>
      </trkpt>
      <trkpt lat="44.47341" lon="0.94">
        <ele>66.47</ele>
        <time>2014-03-08T13:20:45Z</time>
      </trkpt>
      <trkpt lat="44.47341" lon="0.94001">
        <ele>66.95</ele>
        <time>2014-03-08T13:20:59Z</time>
      </trkpt>
      <trkpt lat="44.4734" lon="0.94004">
        <ele>66.95</ele>
        <time>2014-03-08T13:21:00Z</time>
      </trkpt>
      <trkpt lat="44.4734" lon="0.94007">
        <ele>66.95</ele>
        <time>2014-03-08T13:21:01Z</time>
      </trkpt>
      <trkpt lat="44.47341" lon="0.94011">
        <ele>66.95</ele>
        <time>2014-03-08T13:21:02Z</time>
      </trkpt>
      <trkpt lat="44.47343" lon="0.94015">
        <ele>66.95</ele>
        <time>2014-03-08T13:21:03Z</time>
      </trkpt>
      <trkpt lat="44.47345" lon="0.94019">
        <ele>66.95</ele>
        <time>2014-03-08T13:21:04Z</time>
      </trkpt>
      <trkpt lat="44.47353" lon="0.94032">
        <ele>66.95</ele>
        <time>2014-03-08T13:21:07Z</time>
      </trkpt>
      <trkpt lat="44.47356" lon="0.94037">
        <ele>66.47</ele>
        <time>2014-03-08T13:21:08Z</time>
      </trkpt>
      <trkpt lat="44.47368" lon="0.94061">
        <ele>65.99</ele>
        <time>2014-03-08T13:21:12Z</time>
      </trkpt>
      <trkpt lat="44.47372" lon="0.94067">
        <ele>65.51</ele>
        <time>2014-03-08T13:21:13Z</time>
      </trkpt>
      <trkpt lat="44.47376" lon="0.94074">
        <ele>65.03</ele>
        <time>2014-03-08T13:21:14Z</time>
      </trkpt>
      <trkpt lat="44.47419" lon="0.94151">
        <ele>64.07</ele>
        <time>2014-03-08T13:21:27Z</time>
      </trkpt>
      <trkpt lat="44.47419" lon="0.94153">
        <ele>64.55</ele>
        <time>2014-03-08T13:21:43Z</time>
      </trkpt>
      <trkpt lat="44.4742" lon="0.94153">
        <ele>65.03</ele>
        <time>2014-03-08T13:22:06Z</time>
      </trkpt>
      <trkpt lat="44.47419" lon="0.94151">
        <ele>64.55</ele>
        <time>2014-03-08T13:22:17Z</time>
      </trkpt>
      <trkpt lat="44.47421" lon="0.94154">
        <ele>64.07</ele>
        <time>2014-03-08T13:22:39Z</time>
      </trkpt>
      <trkpt lat="44.47425" lon="0.94164">
        <ele>63.58</ele>
        <time>2014-03-08T13:22:46Z</time>
      </trkpt>
      <trkpt lat="44.47425" lon="0.94167">
        <ele>63.58</ele>
        <time>2014-03-08T13:22:47Z</time>
      </trkpt>
      <trkpt lat="44.47404" lon="0.94194">
        <ele>64.55</ele>
        <time>2014-03-08T13:22:58Z</time>
      </trkpt>
      <trkpt lat="44.47357" lon="0.94224">
        <ele>66.95</ele>
        <time>2014-03-08T13:23:14Z</time>
      </trkpt>
      <trkpt lat="44.47308" lon="0.94265">
        <ele>68.39</ele>
        <time>2014-03-08T13:23:30Z</time>
      </trkpt>
      <trkpt lat="44.47246" lon="0.94317">
        <ele>68.87</ele>
        <time>2014-03-08T13:23:48Z</time>
      </trkpt>
      <trkpt lat="44.47214" lon="0.94343">
        <ele>68.87</ele>
        <time>2014-03-08T13:23:57Z</time>
      </trkpt>
      <trkpt lat="44.47211" lon="0.94346">
        <ele>68.87</ele>
        <time>2014-03-08T13:23:58Z</time>
      </trkpt>
      <trkpt lat="44.47204" lon="0.94352">
        <ele>69.35</ele>
        <time>2014-03-08T13:24:00Z</time>
      </trkpt>
      <trkpt lat="44.472" lon="0.94355">
        <ele>69.35</ele>
        <time>2014-03-08T13:24:01Z</time>
      </trkpt>
      <trkpt lat="44.47197" lon="0.94358">
        <ele>68.87</ele>
        <time>2014-03-08T13:24:02Z</time>
      </trkpt>
      <trkpt lat="44.47193" lon="0.94361">
        <ele>68.87</ele>
        <time>2014-03-08T13:24:03Z</time>
      </trkpt>
      <trkpt lat="44.4719" lon="0.94365">
        <ele>69.35</ele>
        <time>2014-03-08T13:24:04Z</time>
      </trkpt>
      <trkpt lat="44.47168" lon="0.94384">
        <ele>69.83</ele>
        <time>2014-03-08T13:24:10Z</time>
      </trkpt>
      <trkpt lat="44.47165" lon="0.94388">
        <ele>69.35</ele>
        <time>2014-03-08T13:24:11Z</time>
      </trkpt>
      <trkpt lat="44.47161" lon="0.94391">
        <ele>69.35</ele>
        <time>2014-03-08T13:24:12Z</time>
      </trkpt>
      <trkpt lat="44.47154" lon="0.94397">
        <ele>69.35</ele>
        <time>2014-03-08T13:24:14Z</time>
      </trkpt>
      <trkpt lat="44.47135" lon="0.94415">
        <ele>69.83</ele>
        <time>2014-03-08T13:24:20Z</time>
      </trkpt>
      <trkpt lat="44.47132" lon="0.94418">
        <ele>69.83</ele>
        <time>2014-03-08T13:24:21Z</time>
      </trkpt>
      <trkpt lat="44.47109" lon="0.94438">
        <ele>69.83</ele>
        <time>2014-03-08T13:24:27Z</time>
      </trkpt>
      <trkpt lat="44.47076" lon="0.94468">
        <ele>70.31</ele>
        <time>2014-03-08T13:24:36Z</time>
      </trkpt>
      <trkpt lat="44.47025" lon="0.9453">
        <ele>70.79</ele>
        <time>2014-03-08T13:24:52Z</time>
      </trkpt>
      <trkpt lat="44.4702" lon="0.9454">
        <ele>70.79</ele>
        <time>2014-03-08T13:24:54Z</time>
      </trkpt>
      <trkpt lat="44.47015" lon="0.94549">
        <ele>70.79</ele>
        <time>2014-03-08T13:24:56Z</time>
      </trkpt>
      <trkpt lat="44.47013" lon="0.94554">
        <ele>70.79</ele>
        <time>2014-03-08T13:24:57Z</time>
      </trkpt>
      <trkpt lat="44.47011" lon="0.9456">
        <ele>70.79</ele>
        <time>2014-03-08T13:24:58Z</time>
      </trkpt>
      <trkpt lat="44.47004" lon="0.94582">
        <ele>71.76</ele>
        <time>2014-03-08T13:25:02Z</time>
      </trkpt>
      <trkpt lat="44.4697" lon="0.9468">
        <ele>72.72</ele>
        <time>2014-03-08T13:25:19Z</time>
      </trkpt>
      <trkpt lat="44.46967" lon="0.94685">
        <ele>72.72</ele>
        <time>2014-03-08T13:25:20Z</time>
      </trkpt>
      <trkpt lat="44.46905" lon="0.94788">
        <ele>74.64</ele>
        <time>2014-03-08T13:25:41Z</time>
      </trkpt>
      <trkpt lat="44.46898" lon="0.94804">
        <ele>75.6</ele>
        <time>2014-03-08T13:25:44Z</time>
      </trkpt>
      <trkpt lat="44.46897" lon="0.94809">
        <ele>75.6</ele>
        <time>2014-03-08T13:25:45Z</time>
      </trkpt>
      <trkpt lat="44.46895" lon="0.94815">
        <ele>75.6</ele>
        <time>2014-03-08T13:25:46Z</time>
      </trkpt>
      <trkpt lat="44.46893" lon="0.94821">
        <ele>76.08</ele>
        <time>2014-03-08T13:25:47Z</time>
      </trkpt>
      <trkpt lat="44.46892" lon="0.94827">
        <ele>76.08</ele>
        <time>2014-03-08T13:25:48Z</time>
      </trkpt>
      <trkpt lat="44.4689" lon="0.94839">
        <ele>76.08</ele>
        <time>2014-03-08T13:25:50Z</time>
      </trkpt>
      <trkpt lat="44.46881" lon="0.94897">
        <ele>77.52</ele>
        <time>2014-03-08T13:26:00Z</time>
      </trkpt>
      <trkpt lat="44.46872" lon="0.94917">
        <ele>77.52</ele>
        <time>2014-03-08T13:26:04Z</time>
      </trkpt>
      <trkpt lat="44.46833" lon="0.94987">
        <ele>81.37</ele>
        <time>2014-03-08T13:26:21Z</time>
      </trkpt>
      <trkpt lat="44.46832" lon="0.9499">
        <ele>81.37</ele>
        <time>2014-03-08T13:26:22Z</time>
      </trkpt>
      <trkpt lat="44.46816" lon="0.95001">
        <ele>82.81</ele>
        <time>2014-03-08T13:26:29Z</time>
      </trkpt>
      <trkpt lat="44.46767" lon="0.95022">
        <ele>85.21</ele>
        <time>2014-03-08T13:26:45Z</time>
      </trkpt>
      <trkpt lat="44.46717" lon="0.95041">
        <ele>86.66</ele>
        <time>2014-03-08T13:27:00Z</time>
      </trkpt>
      <trkpt lat="44.46697" lon="0.95052">
        <ele>86.66</ele>
        <time>2014-03-08T13:27:11Z</time>
      </trkpt>
      <trkpt lat="44.46696" lon="0.95053">
        <ele>86.66</ele>
        <time>2014-03-08T13:27:12Z</time>
      </trkpt>
      <trkpt lat="44.46695" lon="0.95056">
        <ele>86.66</ele>
        <time>2014-03-08T13:27:13Z</time>
      </trkpt>
      <trkpt lat="44.46694" lon="0.95059">
        <ele>86.66</ele>
        <time>2014-03-08T13:27:14Z</time>
      </trkpt>
      <trkpt lat="44.46694" lon="0.95063">
        <ele>86.18</ele>
        <time>2014-03-08T13:27:15Z</time>
      </trkpt>
      <trkpt lat="44.46694" lon="0.95068">
        <ele>86.18</ele>
        <time>2014-03-08T13:27:16Z</time>
      </trkpt>
      <trkpt lat="44.46694" lon="0.95072">
        <ele>86.66</ele>
        <time>2014-03-08T13:27:17Z</time>
      </trkpt>
      <trkpt lat="44.46708" lon="0.95131">
        <ele>88.1</ele>
        <time>2014-03-08T13:27:30Z</time>
      </trkpt>
      <trkpt lat="44.46722" lon="0.95193">
        <ele>91.46</ele>
        <time>2014-03-08T13:27:44Z</time>
      </trkpt>
      <trkpt lat="44.46734" lon="0.95249">
        <ele>96.27</ele>
        <time>2014-03-08T13:27:57Z</time>
      </trkpt>
      <trkpt lat="44.46748" lon="0.95317">
        <ele>99.15</ele>
        <time>2014-03-08T13:28:12Z</time>
      </trkpt>
      <trkpt lat="44.46762" lon="0.9539">
        <ele>101.08</ele>
        <time>2014-03-08T13:28:27Z</time>
      </trkpt>
      <trkpt lat="44.46772" lon="0.95473">
        <ele>100.6</ele>
        <time>2014-03-08T13:28:43Z</time>
      </trkpt>
      <trkpt lat="44.46776" lon="0.95526">
        <ele>100.6</ele>
        <time>2014-03-08T13:28:55Z</time>
      </trkpt>
      <trkpt lat="44.46781" lon="0.95587">
        <ele>100.11</ele>
        <time>2014-03-08T13:29:07Z</time>
      </trkpt>
      <trkpt lat="44.46779" lon="0.95596">
        <ele>99.63</ele>
        <time>2014-03-08T13:29:09Z</time>
      </trkpt>
      <trkpt lat="44.46771" lon="0.95602">
        <ele>100.11</ele>
        <time>2014-03-08T13:29:12Z</time>
      </trkpt>
      <trkpt lat="44.46733" lon="0.95612">
        <ele>102.04</ele>
        <time>2014-03-08T13:29:26Z</time>
      </trkpt>
      <trkpt lat="44.46707" lon="0.95627">
        <ele>103</ele>
        <time>2014-03-08T13:29:37Z</time>
      </trkpt>
      <trkpt lat="44.46687" lon="0.9566">
        <ele>103.48</ele>
        <time>2014-03-08T13:29:48Z</time>
      </trkpt>
      <trkpt lat="44.46668" lon="0.95693">
        <ele>103.96</ele>
        <time>2014-03-08T13:29:59Z</time>
      </trkpt>
      <trkpt lat="44.46645" lon="0.95731">
        <ele>104.92</ele>
        <time>2014-03-08T13:30:11Z</time>
      </trkpt>
      <trkpt lat="44.46633" lon="0.95759">
        <ele>106.84</ele>
        <time>2014-03-08T13:30:19Z</time>
      </trkpt>
      <trkpt lat="44.46633" lon="0.95767">
        <ele>107.32</ele>
        <time>2014-03-08T13:30:29Z</time>
      </trkpt>
      <trkpt lat="44.46633" lon="0.95766">
        <ele>105.88</ele>
        <time>2014-03-08T13:30:51Z</time>
      </trkpt>
      <trkpt lat="44.46633" lon="0.95767">
        <ele>105.88</ele>
        <time>2014-03-08T13:31:02Z</time>
      </trkpt>
      <trkpt lat="44.46616" lon="0.95804">
        <ele>106.84</ele>
        <time>2014-03-08T13:31:15Z</time>
      </trkpt>
      <trkpt lat="44.46594" lon="0.95854">
        <ele>107.32</ele>
        <time>2014-03-08T13:31:29Z</time>
      </trkpt>
      <trkpt lat="44.46566" lon="0.95917">
        <ele>107.32</ele>
        <time>2014-03-08T13:31:46Z</time>
      </trkpt>
      <trkpt lat="44.46545" lon="0.95962">
        <ele>107.81</ele>
        <time>2014-03-08T13:31:57Z</time>
      </trkpt>
      <trkpt lat="44.46508" lon="0.96029">
        <ele>109.73</ele>
        <time>2014-03-08T13:32:15Z</time>
      </trkpt>
      <trkpt lat="44.46494" lon="0.96055">
        <ele>111.17</ele>
        <time>2014-03-08T13:32:26Z</time>
      </trkpt>
      <trkpt lat="44.46494" lon="0.96057">
        <ele>111.65</ele>
        <time>2014-03-08T13:32:27Z</time>
      </trkpt>
      <trkpt lat="44.46495" lon="0.96059">
        <ele>111.17</ele>
        <time>2014-03-08T13:32:28Z</time>
      </trkpt>
      <trkpt lat="44.46498" lon="0.96063">
        <ele>111.17</ele>
        <time>2014-03-08T13:32:34Z</time>
      </trkpt>
      <trkpt lat="44.46499" lon="0.96064">
        <ele>111.17</ele>
        <time>2014-03-08T13:32:35Z</time>
      </trkpt>
      <trkpt lat="44.465" lon="0.96065">
        <ele>111.17</ele>
        <time>2014-03-08T13:32:36Z</time>
      </trkpt>
      <trkpt lat="44.46501" lon="0.96065">
        <ele>111.17</ele>
        <time>2014-03-08T13:32:37Z</time>
      </trkpt>
      <trkpt lat="44.46502" lon="0.96066">
        <ele>111.17</ele>
        <time>2014-03-08T13:32:38Z</time>
      </trkpt>
      <trkpt lat="44.46503" lon="0.96067">
        <ele>111.17</ele>
        <time>2014-03-08T13:32:39Z</time>
      </trkpt>
      <trkpt lat="44.46504" lon="0.96068">
        <ele>111.17</ele>
        <time>2014-03-08T13:32:40Z</time>
      </trkpt>
      <trkpt lat="44.46515" lon="0.96074">
        <ele>110.69</ele>
        <time>2014-03-08T13:32:50Z</time>
      </trkpt>
      <trkpt lat="44.46515" lon="0.96075">
        <ele>110.69</ele>
        <time>2014-03-08T13:32:51Z</time>
      </trkpt>
      <trkpt lat="44.46535" lon="0.96101">
        <ele>109.25</ele>
        <time>2014-03-08T13:33:05Z</time>
      </trkpt>
      <trkpt lat="44.46558" lon="0.96162">
        <ele>108.77</ele>
        <time>2014-03-08T13:33:21Z</time>
      </trkpt>
      <trkpt lat="44.46579" lon="0.96199">
        <ele>108.77</ele>
        <time>2014-03-08T13:33:32Z</time>
      </trkpt>
      <trkpt lat="44.46602" lon="0.96242">
        <ele>109.25</ele>
        <time>2014-03-08T13:33:45Z</time>
      </trkpt>
      <trkpt lat="44.46617" lon="0.9629">
        <ele>109.73</ele>
        <time>2014-03-08T13:33:56Z</time>
      </trkpt>
      <trkpt lat="44.46596" lon="0.96345">
        <ele>108.77</ele>
        <time>2014-03-08T13:34:10Z</time>
      </trkpt>
      <trkpt lat="44.46593" lon="0.96351">
        <ele>110.21</ele>
        <time>2014-03-08T13:34:12Z</time>
      </trkpt>
      <trkpt lat="44.46591" lon="0.96361">
        <ele>112.61</ele>
        <time>2014-03-08T13:34:17Z</time>
      </trkpt>
      <trkpt lat="44.46589" lon="0.96363">
        <ele>113.09</ele>
        <time>2014-03-08T13:34:18Z</time>
      </trkpt>
      <trkpt lat="44.46588" lon="0.96366">
        <ele>113.57</ele>
        <time>2014-03-08T13:34:19Z</time>
      </trkpt>
      <trkpt lat="44.46585" lon="0.96371">
        <ele>114.05</ele>
        <time>2014-03-08T13:34:21Z</time>
      </trkpt>
      <trkpt lat="44.46577" lon="0.9639">
        <ele>116.46</ele>
        <time>2014-03-08T13:34:27Z</time>
      </trkpt>
      <trkpt lat="44.46557" lon="0.96432">
        <ele>124.15</ele>
        <time>2014-03-08T13:34:39Z</time>
      </trkpt>
      <trkpt lat="44.46544" lon="0.96462">
        <ele>127.99</ele>
        <time>2014-03-08T13:34:48Z</time>
      </trkpt>
      <trkpt lat="44.46527" lon="0.96498">
        <ele>131.84</ele>
        <time>2014-03-08T13:35:00Z</time>
      </trkpt>
      <trkpt lat="44.46512" lon="0.9652">
        <ele>136.16</ele>
        <time>2014-03-08T13:35:09Z</time>
      </trkpt>
      <trkpt lat="44.46497" lon="0.96545">
        <ele>136.64</ele>
        <time>2014-03-08T13:35:16Z</time>
      </trkpt>
      <trkpt lat="44.46482" lon="0.96581">
        <ele>140.49</ele>
        <time>2014-03-08T13:35:26Z</time>
      </trkpt>
      <trkpt lat="44.46476" lon="0.966">
        <ele>141.45</ele>
        <time>2014-03-08T13:35:31Z</time>
      </trkpt>
      <trkpt lat="44.4646" lon="0.96657">
        <ele>141.45</ele>
        <time>2014-03-08T13:35:43Z</time>
      </trkpt>
      <trkpt lat="44.46458" lon="0.96662">
        <ele>140.97</ele>
        <time>2014-03-08T13:35:44Z</time>
      </trkpt>
      <trkpt lat="44.46452" lon="0.96698">
        <ele>143.37</ele>
        <time>2014-03-08T13:35:54Z</time>
      </trkpt>
      <trkpt lat="44.46442" lon="0.96742">
        <ele>144.82</ele>
        <time>2014-03-08T13:36:04Z</time>
      </trkpt>
      <trkpt lat="44.46438" lon="0.96788">
        <ele>152.03</ele>
        <time>2014-03-08T13:36:16Z</time>
      </trkpt>
      <trkpt lat="44.46434" lon="0.96809">
        <ele>152.51</ele>
        <time>2014-03-08T13:36:21Z</time>
      </trkpt>
      <trkpt lat="44.46428" lon="0.9685">
        <ele>152.03</ele>
        <time>2014-03-08T13:36:30Z</time>
      </trkpt>
      <trkpt lat="44.46425" lon="0.96915">
        <ele>153.95</ele>
        <time>2014-03-08T13:36:45Z</time>
      </trkpt>
      <trkpt lat="44.46425" lon="0.96929">
        <ele>155.87</ele>
        <time>2014-03-08T13:36:51Z</time>
      </trkpt>
      <trkpt lat="44.46426" lon="0.96945">
        <ele>154.91</ele>
        <time>2014-03-08T13:36:57Z</time>
      </trkpt>
      <trkpt lat="44.46428" lon="0.96965">
        <ele>153.47</ele>
        <time>2014-03-08T13:37:05Z</time>
      </trkpt>
      <trkpt lat="44.46427" lon="0.96971">
        <ele>149.62</ele>
        <time>2014-03-08T13:37:19Z</time>
      </trkpt>
      <trkpt lat="44.46426" lon="0.96974">
        <ele>146.74</ele>
        <time>2014-03-08T13:37:43Z</time>
      </trkpt>
      <trkpt lat="44.46416" lon="0.9698">
        <ele>145.78</ele>
        <time>2014-03-08T13:37:49Z</time>
      </trkpt>
      <trkpt lat="44.46402" lon="0.96986">
        <ele>143.85</ele>
        <time>2014-03-08T13:37:54Z</time>
      </trkpt>
      <trkpt lat="44.46379" lon="0.96977">
        <ele>144.82</ele>
        <time>2014-03-08T13:38:04Z</time>
      </trkpt>
      <trkpt lat="44.46364" lon="0.96981">
        <ele>145.3</ele>
        <time>2014-03-08T13:38:11Z</time>
      </trkpt>
      <trkpt lat="44.46355" lon="0.96988">
        <ele>142.89</ele>
        <time>2014-03-08T13:38:21Z</time>
      </trkpt>
      <trkpt lat="44.46351" lon="0.96996">
        <ele>141.93</ele>
        <time>2014-03-08T13:38:25Z</time>
      </trkpt>
      <trkpt lat="44.46335" lon="0.97042">
        <ele>136.64</ele>
        <time>2014-03-08T13:38:34Z</time>
      </trkpt>
      <trkpt lat="44.46329" lon="0.9706">
        <ele>134.24</ele>
        <time>2014-03-08T13:38:39Z</time>
      </trkpt>
      <trkpt lat="44.46313" lon="0.97103">
        <ele>130.4</ele>
        <time>2014-03-08T13:38:51Z</time>
      </trkpt>
      <trkpt lat="44.46304" lon="0.97132">
        <ele>126.07</ele>
        <time>2014-03-08T13:39:00Z</time>
      </trkpt>
      <trkpt lat="44.463" lon="0.97173">
        <ele>128.47</ele>
        <time>2014-03-08T13:39:09Z</time>
      </trkpt>
      <trkpt lat="44.46288" lon="0.97205">
        <ele>128.47</ele>
        <time>2014-03-08T13:39:20Z</time>
      </trkpt>
      <trkpt lat="44.46276" lon="0.9721">
        <ele>129.43</ele>
        <time>2014-03-08T13:39:26Z</time>
      </trkpt>
      <trkpt lat="44.46274" lon="0.9721">
        <ele>129.43</ele>
        <time>2014-03-08T13:39:27Z</time>
      </trkpt>
      <trkpt lat="44.46272" lon="0.9721">
        <ele>129.43</ele>
        <time>2014-03-08T13:39:28Z</time>
      </trkpt>
      <trkpt lat="44.4627" lon="0.9721">
        <ele>129.92</ele>
        <time>2014-03-08T13:39:29Z</time>
      </trkpt>
      <trkpt lat="44.46269" lon="0.9721">
        <ele>129.92</ele>
        <time>2014-03-08T13:39:30Z</time>
      </trkpt>
      <trkpt lat="44.46267" lon="0.97209">
        <ele>129.92</ele>
        <time>2014-03-08T13:39:31Z</time>
      </trkpt>
      <trkpt lat="44.46265" lon="0.97209">
        <ele>129.92</ele>
        <time>2014-03-08T13:39:32Z</time>
      </trkpt>
      <trkpt lat="44.46261" lon="0.9721">
        <ele>130.4</ele>
        <time>2014-03-08T13:39:34Z</time>
      </trkpt>
      <trkpt lat="44.46258" lon="0.9721">
        <ele>130.4</ele>
        <time>2014-03-08T13:39:35Z</time>
      </trkpt>
      <trkpt lat="44.46257" lon="0.97209">
        <ele>130.4</ele>
        <time>2014-03-08T13:39:36Z</time>
      </trkpt>
      <trkpt lat="44.46255" lon="0.97209">
        <ele>130.4</ele>
        <time>2014-03-08T13:39:37Z</time>
      </trkpt>
      <trkpt lat="44.46253" lon="0.97209">
        <ele>130.4</ele>
        <time>2014-03-08T13:39:38Z</time>
      </trkpt>
      <trkpt lat="44.46251" lon="0.97209">
        <ele>130.4</ele>
        <time>2014-03-08T13:39:39Z</time>
      </trkpt>
      <trkpt lat="44.46249" lon="0.97209">
        <ele>130.4</ele>
        <time>2014-03-08T13:39:40Z</time>
      </trkpt>
      <trkpt lat="44.46247" lon="0.97209">
        <ele>130.4</ele>
        <time>2014-03-08T13:39:41Z</time>
      </trkpt>
      <trkpt lat="44.46225" lon="0.97206">
        <ele>133.76</ele>
        <time>2014-03-08T13:39:52Z</time>
      </trkpt>
      <trkpt lat="44.462" lon="0.97208">
        <ele>135.2</ele>
        <time>2014-03-08T13:40:05Z</time>
      </trkpt>
      <trkpt lat="44.46187" lon="0.9722">
        <ele>135.68</ele>
        <time>2014-03-08T13:40:13Z</time>
      </trkpt>
      <trkpt lat="44.46185" lon="0.97222">
        <ele>135.68</ele>
        <time>2014-03-08T13:40:14Z</time>
      </trkpt>
      <trkpt lat="44.46184" lon="0.97224">
        <ele>135.2</ele>
        <time>2014-03-08T13:40:15Z</time>
      </trkpt>
      <trkpt lat="44.46183" lon="0.97226">
        <ele>135.2</ele>
        <time>2014-03-08T13:40:16Z</time>
      </trkpt>
      <trkpt lat="44.46181" lon="0.97228">
        <ele>135.2</ele>
        <time>2014-03-08T13:40:17Z</time>
      </trkpt>
      <trkpt lat="44.46179" lon="0.9723">
        <ele>135.2</ele>
        <time>2014-03-08T13:40:18Z</time>
      </trkpt>
      <trkpt lat="44.46177" lon="0.97232">
        <ele>134.72</ele>
        <time>2014-03-08T13:40:19Z</time>
      </trkpt>
      <trkpt lat="44.46175" lon="0.97234">
        <ele>134.72</ele>
        <time>2014-03-08T13:40:20Z</time>
      </trkpt>
      <trkpt lat="44.46173" lon="0.97236">
        <ele>134.72</ele>
        <time>2014-03-08T13:40:21Z</time>
      </trkpt>
      <trkpt lat="44.46172" lon="0.97237">
        <ele>135.2</ele>
        <time>2014-03-08T13:40:22Z</time>
      </trkpt>
      <trkpt lat="44.4615" lon="0.9726">
        <ele>136.16</ele>
        <time>2014-03-08T13:40:34Z</time>
      </trkpt>
      <trkpt lat="44.46137" lon="0.97273">
        <ele>137.13</ele>
        <time>2014-03-08T13:40:42Z</time>
      </trkpt>
      <trkpt lat="44.46135" lon="0.97274">
        <ele>137.13</ele>
        <time>2014-03-08T13:40:43Z</time>
      </trkpt>
      <trkpt lat="44.46114" lon="0.97294">
        <ele>138.57</ele>
        <time>2014-03-08T13:40:54Z</time>
      </trkpt>
      <trkpt lat="44.46093" lon="0.97314">
        <ele>140.01</ele>
        <time>2014-03-08T13:41:05Z</time>
      </trkpt>
      <trkpt lat="44.46074" lon="0.97337">
        <ele>141.45</ele>
        <time>2014-03-08T13:41:16Z</time>
      </trkpt>
      <trkpt lat="44.46072" lon="0.9734">
        <ele>141.45</ele>
        <time>2014-03-08T13:41:26Z</time>
      </trkpt>
      <trkpt lat="44.46072" lon="0.97341">
        <ele>140.01</ele>
        <time>2014-03-08T13:41:50Z</time>
      </trkpt>
      <trkpt lat="44.46071" lon="0.97344">
        <ele>140.49</ele>
        <time>2014-03-08T13:41:55Z</time>
      </trkpt>
      <trkpt lat="44.46063" lon="0.97395">
        <ele>142.89</ele>
        <time>2014-03-08T13:42:09Z</time>
      </trkpt>
      <trkpt lat="44.46058" lon="0.97448">
        <ele>143.85</ele>
        <time>2014-03-08T13:42:21Z</time>
      </trkpt>
      <trkpt lat="44.46059" lon="0.97463">
        <ele>146.26</ele>
        <time>2014-03-08T13:42:26Z</time>
      </trkpt>
      <trkpt lat="44.46058" lon="0.97468">
        <ele>146.74</ele>
        <time>2014-03-08T13:42:28Z</time>
      </trkpt>
      <trkpt lat="44.46059" lon="0.9747">
        <ele>146.74</ele>
        <time>2014-03-08T13:42:29Z</time>
      </trkpt>
      <trkpt lat="44.4606" lon="0.97472">
        <ele>146.74</ele>
        <time>2014-03-08T13:42:30Z</time>
      </trkpt>
      <trkpt lat="44.46061" lon="0.97475">
        <ele>146.74</ele>
        <time>2014-03-08T13:42:31Z</time>
      </trkpt>
      <trkpt lat="44.46062" lon="0.97478">
        <ele>147.22</ele>
        <time>2014-03-08T13:42:32Z</time>
      </trkpt>
      <trkpt lat="44.46064" lon="0.97481">
        <ele>147.22</ele>
        <time>2014-03-08T13:42:33Z</time>
      </trkpt>
      <trkpt lat="44.46073" lon="0.97492">
        <ele>146.74</ele>
        <time>2014-03-08T13:42:37Z</time>
      </trkpt>
      <trkpt lat="44.46075" lon="0.97496">
        <ele>146.74</ele>
        <time>2014-03-08T13:42:38Z</time>
      </trkpt>
      <trkpt lat="44.461" lon="0.97533">
        <ele>149.14</ele>
        <time>2014-03-08T13:42:50Z</time>
      </trkpt>
      <trkpt lat="44.46103" lon="0.97536">
        <ele>149.62</ele>
        <time>2014-03-08T13:43:01Z</time>
      </trkpt>
      <trkpt lat="44.46103" lon="0.97536">
        <ele>149.14</ele>
        <time>2014-03-08T13:43:20Z</time>
      </trkpt>
      <trkpt lat="44.46104" lon="0.97537">
        <ele>149.14</ele>
        <time>2014-03-08T13:43:42Z</time>
      </trkpt>
      <trkpt lat="44.46104" lon="0.97536">
        <ele>149.14</ele>
        <time>2014-03-08T13:44:08Z</time>
      </trkpt>
      <trkpt lat="44.46104" lon="0.97536">
        <ele>148.66</ele>
        <time>2014-03-08T13:44:27Z</time>
      </trkpt>
      <trkpt lat="44.46106" lon="0.97537">
        <ele>148.66</ele>
        <time>2014-03-08T13:44:28Z</time>
      </trkpt>
      <trkpt lat="44.46125" lon="0.97582">
        <ele>147.7</ele>
        <time>2014-03-08T13:44:39Z</time>
      </trkpt>
      <trkpt lat="44.46129" lon="0.97606">
        <ele>146.74</ele>
        <time>2014-03-08T13:44:42Z</time>
      </trkpt>
      <trkpt lat="44.46129" lon="0.97616">
        <ele>145.78</ele>
        <time>2014-03-08T13:44:43Z</time>
      </trkpt>
      <trkpt lat="44.46129" lon="0.97626">
        <ele>145.3</ele>
        <time>2014-03-08T13:44:44Z</time>
      </trkpt>
      <trkpt lat="44.4613" lon="0.97637">
        <ele>144.34</ele>
        <time>2014-03-08T13:44:45Z</time>
      </trkpt>
      <trkpt lat="44.46132" lon="0.97648">
        <ele>143.37</ele>
        <time>2014-03-08T13:44:46Z</time>
      </trkpt>
      <trkpt lat="44.46135" lon="0.9766">
        <ele>142.41</ele>
        <time>2014-03-08T13:44:47Z</time>
      </trkpt>
      <trkpt lat="44.46138" lon="0.97673">
        <ele>141.45</ele>
        <time>2014-03-08T13:44:48Z</time>
      </trkpt>
      <trkpt lat="44.46143" lon="0.97685">
        <ele>140.01</ele>
        <time>2014-03-08T13:44:49Z</time>
      </trkpt>
      <trkpt lat="44.46148" lon="0.97697">
        <ele>139.05</ele>
        <time>2014-03-08T13:44:50Z</time>
      </trkpt>
      <trkpt lat="44.46154" lon="0.97708">
        <ele>138.57</ele>
        <time>2014-03-08T13:44:51Z</time>
      </trkpt>
      <trkpt lat="44.46161" lon="0.97717">
        <ele>138.09</ele>
        <time>2014-03-08T13:44:52Z</time>
      </trkpt>
      <trkpt lat="44.46168" lon="0.97725">
        <ele>137.61</ele>
        <time>2014-03-08T13:44:53Z</time>
      </trkpt>
      <trkpt lat="44.4618" lon="0.97742">
        <ele>137.13</ele>
        <time>2014-03-08T13:44:55Z</time>
      </trkpt>
      <trkpt lat="44.46184" lon="0.97751">
        <ele>137.13</ele>
        <time>2014-03-08T13:44:56Z</time>
      </trkpt>
      <trkpt lat="44.46187" lon="0.9776">
        <ele>137.61</ele>
        <time>2014-03-08T13:44:57Z</time>
      </trkpt>
      <trkpt lat="44.46208" lon="0.97885">
        <ele>127.03</ele>
        <time>2014-03-08T13:45:08Z</time>
      </trkpt>
      <trkpt lat="44.46219" lon="0.97942">
        <ele>122.22</ele>
        <time>2014-03-08T13:45:12Z</time>
      </trkpt>
      <trkpt lat="44.46227" lon="0.97962">
        <ele>121.26</ele>
        <time>2014-03-08T13:45:14Z</time>
      </trkpt>
      <trkpt lat="44.46232" lon="0.97969">
        <ele>120.78</ele>
        <time>2014-03-08T13:45:15Z</time>
      </trkpt>
      <trkpt lat="44.46238" lon="0.97975">
        <ele>120.78</ele>
        <time>2014-03-08T13:45:16Z</time>
      </trkpt>
      <trkpt lat="44.46245" lon="0.97979">
        <ele>120.78</ele>
        <time>2014-03-08T13:45:17Z</time>
      </trkpt>
      <trkpt lat="44.46251" lon="0.9798">
        <ele>120.3</ele>
        <time>2014-03-08T13:45:18Z</time>
      </trkpt>
      <trkpt lat="44.46258" lon="0.9798">
        <ele>120.3</ele>
        <time>2014-03-08T13:45:19Z</time>
      </trkpt>
      <trkpt lat="44.46281" lon="0.97979">
        <ele>120.78</ele>
        <time>2014-03-08T13:45:23Z</time>
      </trkpt>
      <trkpt lat="44.46346" lon="0.97994">
        <ele>124.15</ele>
        <time>2014-03-08T13:45:37Z</time>
      </trkpt>
      <trkpt lat="44.46389" lon="0.98039">
        <ele>125.11</ele>
        <time>2014-03-08T13:45:51Z</time>
      </trkpt>
      <trkpt lat="44.46422" lon="0.98067">
        <ele>130.4</ele>
        <time>2014-03-08T13:46:02Z</time>
      </trkpt>
      <trkpt lat="44.46445" lon="0.98086">
        <ele>135.68</ele>
        <time>2014-03-08T13:46:14Z</time>
      </trkpt>
      <trkpt lat="44.46466" lon="0.98106">
        <ele>139.05</ele>
        <time>2014-03-08T13:46:26Z</time>
      </trkpt>
      <trkpt lat="44.46482" lon="0.98118">
        <ele>140.97</ele>
        <time>2014-03-08T13:46:34Z</time>
      </trkpt>
      <trkpt lat="44.46481" lon="0.98125">
        <ele>141.93</ele>
        <time>2014-03-08T13:46:39Z</time>
      </trkpt>
      <trkpt lat="44.46478" lon="0.9813">
        <ele>142.41</ele>
        <time>2014-03-08T13:46:44Z</time>
      </trkpt>
      <trkpt lat="44.46476" lon="0.98134">
        <ele>142.41</ele>
        <time>2014-03-08T13:46:49Z</time>
      </trkpt>
      <trkpt lat="44.46477" lon="0.98132">
        <ele>142.41</ele>
        <time>2014-03-08T13:46:51Z</time>
      </trkpt>
      <trkpt lat="44.46481" lon="0.98128">
        <ele>142.41</ele>
        <time>2014-03-08T13:46:55Z</time>
      </trkpt>
      <trkpt lat="44.46481" lon="0.98121">
        <ele>142.89</ele>
        <time>2014-03-08T13:46:59Z</time>
      </trkpt>
      <trkpt lat="44.4648" lon="0.98116">
        <ele>142.89</ele>
        <time>2014-03-08T13:47:12Z</time>
      </trkpt>
      <trkpt lat="44.46479" lon="0.98116">
        <ele>142.41</ele>
        <time>2014-03-08T13:47:31Z</time>
      </trkpt>
      <trkpt lat="44.4648" lon="0.98117">
        <ele>142.41</ele>
        <time>2014-03-08T13:47:56Z</time>
      </trkpt>
      <trkpt lat="44.4648" lon="0.98118">
        <ele>141.93</ele>
        <time>2014-03-08T13:48:26Z</time>
      </trkpt>
      <trkpt lat="44.4648" lon="0.98119">
        <ele>141.93</ele>
        <time>2014-03-08T13:48:28Z</time>
      </trkpt>
      <trkpt lat="44.46479" lon="0.98126">
        <ele>142.89</ele>
        <time>2014-03-08T13:48:41Z</time>
      </trkpt>
      <trkpt lat="44.46479" lon="0.98126">
        <ele>142.89</ele>
        <time>2014-03-08T13:48:47Z</time>
      </trkpt>
      <trkpt lat="44.46475" lon="0.98135">
        <ele>142.41</ele>
        <time>2014-03-08T13:48:52Z</time>
      </trkpt>
      <trkpt lat="44.46473" lon="0.98138">
        <ele>142.41</ele>
        <time>2014-03-08T13:48:53Z</time>
      </trkpt>
      <trkpt lat="44.46472" lon="0.9814">
        <ele>142.41</ele>
        <time>2014-03-08T13:48:54Z</time>
      </trkpt>
      <trkpt lat="44.46456" lon="0.98171">
        <ele>141.93</ele>
        <time>2014-03-08T13:49:05Z</time>
      </trkpt>
      <trkpt lat="44.46432" lon="0.98219">
        <ele>143.37</ele>
        <time>2014-03-08T13:49:21Z</time>
      </trkpt>
      <trkpt lat="44.4641" lon="0.9826">
        <ele>143.37</ele>
        <time>2014-03-08T13:49:35Z</time>
      </trkpt>
      <trkpt lat="44.46382" lon="0.98311">
        <ele>144.82</ele>
        <time>2014-03-08T13:49:52Z</time>
      </trkpt>
      <trkpt lat="44.46359" lon="0.98345">
        <ele>145.78</ele>
        <time>2014-03-08T13:50:05Z</time>
      </trkpt>
      <trkpt lat="44.4633" lon="0.98369">
        <ele>147.22</ele>
        <time>2014-03-08T13:50:19Z</time>
      </trkpt>
      <trkpt lat="44.46309" lon="0.98373">
        <ele>150.58</ele>
        <time>2014-03-08T13:50:29Z</time>
      </trkpt>
      <trkpt lat="44.46303" lon="0.98377">
        <ele>151.06</ele>
        <time>2014-03-08T13:50:33Z</time>
      </trkpt>
      <trkpt lat="44.46302" lon="0.98379">
        <ele>151.06</ele>
        <time>2014-03-08T13:50:34Z</time>
      </trkpt>
      <trkpt lat="44.463" lon="0.9838">
        <ele>151.06</ele>
        <time>2014-03-08T13:50:35Z</time>
      </trkpt>
      <trkpt lat="44.46298" lon="0.98381">
        <ele>151.54</ele>
        <time>2014-03-08T13:50:36Z</time>
      </trkpt>
      <trkpt lat="44.46297" lon="0.98383">
        <ele>151.54</ele>
        <time>2014-03-08T13:50:37Z</time>
      </trkpt>
      <trkpt lat="44.46295" lon="0.98385">
        <ele>151.54</ele>
        <time>2014-03-08T13:50:38Z</time>
      </trkpt>
      <trkpt lat="44.46273" lon="0.98398">
        <ele>153.47</ele>
        <time>2014-03-08T13:50:50Z</time>
      </trkpt>
      <trkpt lat="44.46271" lon="0.98398">
        <ele>153.95</ele>
        <time>2014-03-08T13:50:51Z</time>
      </trkpt>
      <trkpt lat="44.46269" lon="0.98398">
        <ele>153.95</ele>
        <time>2014-03-08T13:50:52Z</time>
      </trkpt>
      <trkpt lat="44.46268" lon="0.98398">
        <ele>154.43</ele>
        <time>2014-03-08T13:50:53Z</time>
      </trkpt>
      <trkpt lat="44.46266" lon="0.98398">
        <ele>154.43</ele>
        <time>2014-03-08T13:50:54Z</time>
      </trkpt>
      <trkpt lat="44.46264" lon="0.98398">
        <ele>154.43</ele>
        <time>2014-03-08T13:50:55Z</time>
      </trkpt>
      <trkpt lat="44.46262" lon="0.98398">
        <ele>154.91</ele>
        <time>2014-03-08T13:50:56Z</time>
      </trkpt>
      <trkpt lat="44.4626" lon="0.98397">
        <ele>154.91</ele>
        <time>2014-03-08T13:50:57Z</time>
      </trkpt>
      <trkpt lat="44.46258" lon="0.98397">
        <ele>154.91</ele>
        <time>2014-03-08T13:50:58Z</time>
      </trkpt>
      <trkpt lat="44.46257" lon="0.98396">
        <ele>155.39</ele>
        <time>2014-03-08T13:50:59Z</time>
      </trkpt>
      <trkpt lat="44.46255" lon="0.98395">
        <ele>155.87</ele>
        <time>2014-03-08T13:51:00Z</time>
      </trkpt>
      <trkpt lat="44.46253" lon="0.98394">
        <ele>156.35</ele>
        <time>2014-03-08T13:51:01Z</time>
      </trkpt>
      <trkpt lat="44.46252" lon="0.98393">
        <ele>156.35</ele>
        <time>2014-03-08T13:51:02Z</time>
      </trkpt>
      <trkpt lat="44.4625" lon="0.98392">
        <ele>156.83</ele>
        <time>2014-03-08T13:51:03Z</time>
      </trkpt>
      <trkpt lat="44.46248" lon="0.9839">
        <ele>156.83</ele>
        <time>2014-03-08T13:51:04Z</time>
      </trkpt>
      <trkpt lat="44.46247" lon="0.98389">
        <ele>157.31</ele>
        <time>2014-03-08T13:51:05Z</time>
      </trkpt>
      <trkpt lat="44.46245" lon="0.98387">
        <ele>157.79</ele>
        <time>2014-03-08T13:51:06Z</time>
      </trkpt>
      <trkpt lat="44.46243" lon="0.98385">
        <ele>158.27</ele>
        <time>2014-03-08T13:51:07Z</time>
      </trkpt>
      <trkpt lat="44.46221" lon="0.98367">
        <ele>160.68</ele>
        <time>2014-03-08T13:51:19Z</time>
      </trkpt>
      <trkpt lat="44.46217" lon="0.98367">
        <ele>161.16</ele>
        <time>2014-03-08T13:51:21Z</time>
      </trkpt>
      <trkpt lat="44.46215" lon="0.98367">
        <ele>161.16</ele>
        <time>2014-03-08T13:51:22Z</time>
      </trkpt>
      <trkpt lat="44.46213" lon="0.98368">
        <ele>161.16</ele>
        <time>2014-03-08T13:51:23Z</time>
      </trkpt>
      <trkpt lat="44.46212" lon="0.98368">
        <ele>161.16</ele>
        <time>2014-03-08T13:51:24Z</time>
      </trkpt>
      <trkpt lat="44.4621" lon="0.9837">
        <ele>161.64</ele>
        <time>2014-03-08T13:51:25Z</time>
      </trkpt>
      <trkpt lat="44.46208" lon="0.98371">
        <ele>161.64</ele>
        <time>2014-03-08T13:51:26Z</time>
      </trkpt>
      <trkpt lat="44.46193" lon="0.98387">
        <ele>162.12</ele>
        <time>2014-03-08T13:51:38Z</time>
      </trkpt>
      <trkpt lat="44.46192" lon="0.98388">
        <ele>162.12</ele>
        <time>2014-03-08T13:51:39Z</time>
      </trkpt>
      <trkpt lat="44.46191" lon="0.9839">
        <ele>162.12</ele>
        <time>2014-03-08T13:51:40Z</time>
      </trkpt>
      <trkpt lat="44.4619" lon="0.98392">
        <ele>162.6</ele>
        <time>2014-03-08T13:51:41Z</time>
      </trkpt>
      <trkpt lat="44.46188" lon="0.98394">
        <ele>162.6</ele>
        <time>2014-03-08T13:51:42Z</time>
      </trkpt>
      <trkpt lat="44.46187" lon="0.98395">
        <ele>162.6</ele>
        <time>2014-03-08T13:51:43Z</time>
      </trkpt>
      <trkpt lat="44.46186" lon="0.98397">
        <ele>162.6</ele>
        <time>2014-03-08T13:51:44Z</time>
      </trkpt>
      <trkpt lat="44.46184" lon="0.98399">
        <ele>162.6</ele>
        <time>2014-03-08T13:51:45Z</time>
      </trkpt>
      <trkpt lat="44.46183" lon="0.984">
        <ele>162.6</ele>
        <time>2014-03-08T13:51:46Z</time>
      </trkpt>
      <trkpt lat="44.46181" lon="0.98402">
        <ele>162.6</ele>
        <time>2014-03-08T13:51:47Z</time>
      </trkpt>
      <trkpt lat="44.4618" lon="0.98403">
        <ele>162.6</ele>
        <time>2014-03-08T13:51:48Z</time>
      </trkpt>
      <trkpt lat="44.46178" lon="0.98405">
        <ele>162.6</ele>
        <time>2014-03-08T13:51:49Z</time>
      </trkpt>
      <trkpt lat="44.46177" lon="0.98406">
        <ele>162.6</ele>
        <time>2014-03-08T13:51:50Z</time>
      </trkpt>
      <trkpt lat="44.46175" lon="0.98408">
        <ele>162.6</ele>
        <time>2014-03-08T13:51:51Z</time>
      </trkpt>
      <trkpt lat="44.46174" lon="0.98409">
        <ele>162.6</ele>
        <time>2014-03-08T13:51:52Z</time>
      </trkpt>
      <trkpt lat="44.46172" lon="0.9841">
        <ele>162.6</ele>
        <time>2014-03-08T13:51:53Z</time>
      </trkpt>
      <trkpt lat="44.46171" lon="0.98412">
        <ele>162.6</ele>
        <time>2014-03-08T13:51:54Z</time>
      </trkpt>
      <trkpt lat="44.46169" lon="0.98413">
        <ele>162.6</ele>
        <time>2014-03-08T13:51:55Z</time>
      </trkpt>
      <trkpt lat="44.46167" lon="0.98415">
        <ele>163.08</ele>
        <time>2014-03-08T13:51:56Z</time>
      </trkpt>
      <trkpt lat="44.46165" lon="0.98417">
        <ele>163.08</ele>
        <time>2014-03-08T13:51:57Z</time>
      </trkpt>
      <trkpt lat="44.46164" lon="0.98419">
        <ele>163.08</ele>
        <time>2014-03-08T13:51:58Z</time>
      </trkpt>
      <trkpt lat="44.46156" lon="0.98426">
        <ele>164.04</ele>
        <time>2014-03-08T13:52:03Z</time>
      </trkpt>
      <trkpt lat="44.46154" lon="0.98427">
        <ele>164.04</ele>
        <time>2014-03-08T13:52:04Z</time>
      </trkpt>
      <trkpt lat="44.46152" lon="0.98429">
        <ele>164.04</ele>
        <time>2014-03-08T13:52:05Z</time>
      </trkpt>
      <trkpt lat="44.4615" lon="0.98431">
        <ele>164.04</ele>
        <time>2014-03-08T13:52:06Z</time>
      </trkpt>
      <trkpt lat="44.46148" lon="0.98433">
        <ele>164.04</ele>
        <time>2014-03-08T13:52:07Z</time>
      </trkpt>
      <trkpt lat="44.46147" lon="0.98434">
        <ele>164.04</ele>
        <time>2014-03-08T13:52:08Z</time>
      </trkpt>
      <trkpt lat="44.46145" lon="0.98436">
        <ele>164.52</ele>
        <time>2014-03-08T13:52:09Z</time>
      </trkpt>
      <trkpt lat="44.46144" lon="0.98438">
        <ele>164.52</ele>
        <time>2014-03-08T13:52:10Z</time>
      </trkpt>
      <trkpt lat="44.46142" lon="0.98439">
        <ele>164.52</ele>
        <time>2014-03-08T13:52:11Z</time>
      </trkpt>
      <trkpt lat="44.46127" lon="0.9846">
        <ele>165.96</ele>
        <time>2014-03-08T13:52:23Z</time>
      </trkpt>
      <trkpt lat="44.46115" lon="0.98479">
        <ele>168.37</ele>
        <time>2014-03-08T13:52:34Z</time>
      </trkpt>
      <trkpt lat="44.46099" lon="0.98502">
        <ele>169.81</ele>
        <time>2014-03-08T13:52:45Z</time>
      </trkpt>
      <trkpt lat="44.46097" lon="0.98506">
        <ele>169.81</ele>
        <time>2014-03-08T13:52:47Z</time>
      </trkpt>
      <trkpt lat="44.46096" lon="0.98507">
        <ele>169.81</ele>
        <time>2014-03-08T13:52:48Z</time>
      </trkpt>
      <trkpt lat="44.46094" lon="0.98509">
        <ele>169.81</ele>
        <time>2014-03-08T13:52:49Z</time>
      </trkpt>
      <trkpt lat="44.46092" lon="0.98511">
        <ele>169.81</ele>
        <time>2014-03-08T13:52:50Z</time>
      </trkpt>
      <trkpt lat="44.46091" lon="0.98513">
        <ele>170.29</ele>
        <time>2014-03-08T13:52:51Z</time>
      </trkpt>
      <trkpt lat="44.46089" lon="0.98515">
        <ele>170.29</ele>
        <time>2014-03-08T13:52:52Z</time>
      </trkpt>
      <trkpt lat="44.46088" lon="0.98518">
        <ele>170.29</ele>
        <time>2014-03-08T13:52:53Z</time>
      </trkpt>
      <trkpt lat="44.46086" lon="0.9852">
        <ele>170.29</ele>
        <time>2014-03-08T13:52:54Z</time>
      </trkpt>
      <trkpt lat="44.46085" lon="0.98523">
        <ele>170.29</ele>
        <time>2014-03-08T13:52:55Z</time>
      </trkpt>
      <trkpt lat="44.46083" lon="0.98525">
        <ele>170.29</ele>
        <time>2014-03-08T13:52:56Z</time>
      </trkpt>
      <trkpt lat="44.46066" lon="0.98557">
        <ele>171.25</ele>
        <time>2014-03-08T13:53:08Z</time>
      </trkpt>
      <trkpt lat="44.46037" lon="0.98604">
        <ele>171.25</ele>
        <time>2014-03-08T13:53:24Z</time>
      </trkpt>
      <trkpt lat="44.4601" lon="0.9865">
        <ele>172.69</ele>
        <time>2014-03-08T13:53:38Z</time>
      </trkpt>
      <trkpt lat="44.45996" lon="0.98684">
        <ele>173.66</ele>
        <time>2014-03-08T13:53:49Z</time>
      </trkpt>
      <trkpt lat="44.45981" lon="0.98711">
        <ele>176.06</ele>
        <time>2014-03-08T13:53:59Z</time>
      </trkpt>
      <trkpt lat="44.45969" lon="0.98732">
        <ele>177.02</ele>
        <time>2014-03-08T13:54:10Z</time>
      </trkpt>
      <trkpt lat="44.45969" lon="0.98732">
        <ele>177.5</ele>
        <time>2014-03-08T13:54:22Z</time>
      </trkpt>
      <trkpt lat="44.45968" lon="0.98732">
        <ele>178.46</ele>
        <time>2014-03-08T13:54:41Z</time>
      </trkpt>
      <trkpt lat="44.45968" lon="0.98731">
        <ele>178.46</ele>
        <time>2014-03-08T13:54:57Z</time>
      </trkpt>
      <trkpt lat="44.45968" lon="0.9873">
        <ele>178.46</ele>
        <time>2014-03-08T13:55:19Z</time>
      </trkpt>
      <trkpt lat="44.45968" lon="0.9873">
        <ele>178.94</ele>
        <time>2014-03-08T13:55:40Z</time>
      </trkpt>
      <trkpt lat="44.45968" lon="0.9873">
        <ele>178.94</ele>
        <time>2014-03-08T13:56:05Z</time>
      </trkpt>
      <trkpt lat="44.45968" lon="0.98731">
        <ele>178.46</ele>
        <time>2014-03-08T13:56:19Z</time>
      </trkpt>
      <trkpt lat="44.45968" lon="0.98732">
        <ele>177.98</ele>
        <time>2014-03-08T13:56:41Z</time>
      </trkpt>
      <trkpt lat="44.45968" lon="0.98732">
        <ele>178.46</ele>
        <time>2014-03-08T13:57:02Z</time>
      </trkpt>
      <trkpt lat="44.45968" lon="0.98732">
        <ele>178.46</ele>
        <time>2014-03-08T13:57:19Z</time>
      </trkpt>
      <trkpt lat="44.45969" lon="0.98733">
        <ele>178.94</ele>
        <time>2014-03-08T13:57:43Z</time>
      </trkpt>
      <trkpt lat="44.45969" lon="0.98734">
        <ele>179.42</ele>
        <time>2014-03-08T13:58:10Z</time>
      </trkpt>
      <trkpt lat="44.45969" lon="0.98735">
        <ele>179.42</ele>
        <time>2014-03-08T13:58:36Z</time>
      </trkpt>
      <trkpt lat="44.45969" lon="0.98737">
        <ele>179.42</ele>
        <time>2014-03-08T13:58:37Z</time>
      </trkpt>
      <trkpt lat="44.45968" lon="0.98738">
        <ele>179.42</ele>
        <time>2014-03-08T13:58:38Z</time>
      </trkpt>
      <trkpt lat="44.45957" lon="0.98767">
        <ele>181.83</ele>
        <time>2014-03-08T13:58:49Z</time>
      </trkpt>
      <trkpt lat="44.45938" lon="0.98797">
        <ele>183.27</ele>
        <time>2014-03-08T13:59:00Z</time>
      </trkpt>
      <trkpt lat="44.45915" lon="0.98823">
        <ele>184.71</ele>
        <time>2014-03-08T13:59:12Z</time>
      </trkpt>
      <trkpt lat="44.459" lon="0.98839">
        <ele>184.71</ele>
        <time>2014-03-08T13:59:20Z</time>
      </trkpt>
      <trkpt lat="44.45898" lon="0.98841">
        <ele>184.71</ele>
        <time>2014-03-08T13:59:21Z</time>
      </trkpt>
      <trkpt lat="44.45896" lon="0.98843">
        <ele>184.71</ele>
        <time>2014-03-08T13:59:22Z</time>
      </trkpt>
      <trkpt lat="44.45894" lon="0.98845">
        <ele>184.71</ele>
        <time>2014-03-08T13:59:23Z</time>
      </trkpt>
      <trkpt lat="44.45892" lon="0.98847">
        <ele>184.71</ele>
        <time>2014-03-08T13:59:24Z</time>
      </trkpt>
      <trkpt lat="44.45891" lon="0.9885">
        <ele>184.71</ele>
        <time>2014-03-08T13:59:25Z</time>
      </trkpt>
      <trkpt lat="44.45889" lon="0.98852">
        <ele>184.71</ele>
        <time>2014-03-08T13:59:26Z</time>
      </trkpt>
      <trkpt lat="44.45887" lon="0.98854">
        <ele>184.71</ele>
        <time>2014-03-08T13:59:27Z</time>
      </trkpt>
      <trkpt lat="44.45885" lon="0.98856">
        <ele>184.71</ele>
        <time>2014-03-08T13:59:28Z</time>
      </trkpt>
      <trkpt lat="44.45884" lon="0.98859">
        <ele>185.19</ele>
        <time>2014-03-08T13:59:29Z</time>
      </trkpt>
      <trkpt lat="44.45882" lon="0.98862">
        <ele>185.19</ele>
        <time>2014-03-08T13:59:30Z</time>
      </trkpt>
      <trkpt lat="44.45881" lon="0.98864">
        <ele>185.19</ele>
        <time>2014-03-08T13:59:31Z</time>
      </trkpt>
      <trkpt lat="44.45879" lon="0.98867">
        <ele>185.19</ele>
        <time>2014-03-08T13:59:32Z</time>
      </trkpt>
      <trkpt lat="44.45878" lon="0.9887">
        <ele>185.19</ele>
        <time>2014-03-08T13:59:33Z</time>
      </trkpt>
      <trkpt lat="44.45862" lon="0.98915">
        <ele>185.67</ele>
        <time>2014-03-08T13:59:47Z</time>
      </trkpt>
      <trkpt lat="44.45857" lon="0.98962">
        <ele>187.59</ele>
        <time>2014-03-08T14:00:00Z</time>
      </trkpt>
      <trkpt lat="44.45853" lon="0.99024">
        <ele>190</ele>
        <time>2014-03-08T14:00:17Z</time>
      </trkpt>
      <trkpt lat="44.45848" lon="0.99095">
        <ele>186.15</ele>
        <time>2014-03-08T14:00:35Z</time>
      </trkpt>
      <trkpt lat="44.45844" lon="0.99163">
        <ele>186.63</ele>
        <time>2014-03-08T14:00:48Z</time>
      </trkpt>
      <trkpt lat="44.45845" lon="0.99168">
        <ele>186.63</ele>
        <time>2014-03-08T14:00:49Z</time>
      </trkpt>
      <trkpt lat="44.45846" lon="0.99174">
        <ele>186.63</ele>
        <time>2014-03-08T14:00:50Z</time>
      </trkpt>
      <trkpt lat="44.45847" lon="0.9918">
        <ele>186.63</ele>
        <time>2014-03-08T14:00:51Z</time>
      </trkpt>
      <trkpt lat="44.45849" lon="0.99185">
        <ele>186.63</ele>
        <time>2014-03-08T14:00:52Z</time>
      </trkpt>
      <trkpt lat="44.45852" lon="0.99191">
        <ele>187.11</ele>
        <time>2014-03-08T14:00:53Z</time>
      </trkpt>
      <trkpt lat="44.45855" lon="0.99195">
        <ele>187.11</ele>
        <time>2014-03-08T14:00:54Z</time>
      </trkpt>
      <trkpt lat="44.45858" lon="0.99199">
        <ele>187.11</ele>
        <time>2014-03-08T14:00:55Z</time>
      </trkpt>
      <trkpt lat="44.45861" lon="0.99203">
        <ele>187.11</ele>
        <time>2014-03-08T14:00:56Z</time>
      </trkpt>
      <trkpt lat="44.45865" lon="0.99206">
        <ele>187.11</ele>
        <time>2014-03-08T14:00:57Z</time>
      </trkpt>
      <trkpt lat="44.45873" lon="0.99212">
        <ele>187.11</ele>
        <time>2014-03-08T14:00:59Z</time>
      </trkpt>
      <trkpt lat="44.45877" lon="0.99215">
        <ele>187.11</ele>
        <time>2014-03-08T14:01:00Z</time>
      </trkpt>
      <trkpt lat="44.45952" lon="0.99272">
        <ele>185.19</ele>
        <time>2014-03-08T14:01:19Z</time>
      </trkpt>
      <trkpt lat="44.46028" lon="0.99341">
        <ele>182.31</ele>
        <time>2014-03-08T14:01:35Z</time>
      </trkpt>
      <trkpt lat="44.461" lon="0.99412">
        <ele>183.27</ele>
        <time>2014-03-08T14:01:53Z</time>
      </trkpt>
      <trkpt lat="44.46146" lon="0.99482">
        <ele>185.19</ele>
        <time>2014-03-08T14:02:09Z</time>
      </trkpt>
      <trkpt lat="44.46163" lon="0.99524">
        <ele>186.15</ele>
        <time>2014-03-08T14:02:17Z</time>
      </trkpt>
      <trkpt lat="44.46164" lon="0.9953">
        <ele>186.15</ele>
        <time>2014-03-08T14:02:18Z</time>
      </trkpt>
      <trkpt lat="44.46191" lon="0.99602">
        <ele>188.08</ele>
        <time>2014-03-08T14:02:31Z</time>
      </trkpt>
      <trkpt lat="44.46192" lon="0.99607">
        <ele>188.08</ele>
        <time>2014-03-08T14:02:32Z</time>
      </trkpt>
      <trkpt lat="44.46218" lon="0.99681">
        <ele>191.92</ele>
        <time>2014-03-08T14:02:48Z</time>
      </trkpt>
      <trkpt lat="44.46246" lon="0.99745">
        <ele>194.8</ele>
        <time>2014-03-08T14:03:04Z</time>
      </trkpt>
      <trkpt lat="44.46266" lon="0.99791">
        <ele>197.69</ele>
        <time>2014-03-08T14:03:17Z</time>
      </trkpt>
      <trkpt lat="44.46284" lon="0.99827">
        <ele>198.17</ele>
        <time>2014-03-08T14:03:30Z</time>
      </trkpt>
      <trkpt lat="44.46286" lon="0.99832">
        <ele>198.17</ele>
        <time>2014-03-08T14:03:32Z</time>
      </trkpt>
      <trkpt lat="44.46301" lon="0.9988">
        <ele>198.17</ele>
        <time>2014-03-08T14:03:45Z</time>
      </trkpt>
      <trkpt lat="44.4631" lon="0.99908">
        <ele>196.73</ele>
        <time>2014-03-08T14:03:51Z</time>
      </trkpt>
      <trkpt lat="44.46333" lon="0.99987">
        <ele>190.96</ele>
        <time>2014-03-08T14:04:00Z</time>
      </trkpt>
      <trkpt lat="44.46371" lon="1.00085">
        <ele>188.08</ele>
        <time>2014-03-08T14:04:11Z</time>
      </trkpt>
      <trkpt lat="44.46374" lon="1.00092">
        <ele>188.56</ele>
        <time>2014-03-08T14:04:13Z</time>
      </trkpt>
      <trkpt lat="44.46373" lon="1.00094">
        <ele>188.08</ele>
        <time>2014-03-08T14:04:14Z</time>
      </trkpt>
      <trkpt lat="44.46374" lon="1.00095">
        <ele>187.59</ele>
        <time>2014-03-08T14:04:27Z</time>
      </trkpt>
      <trkpt lat="44.46373" lon="1.00095">
        <ele>187.11</ele>
        <time>2014-03-08T14:04:47Z</time>
      </trkpt>
      <trkpt lat="44.46363" lon="1.00103">
        <ele>186.15</ele>
        <time>2014-03-08T14:04:51Z</time>
      </trkpt>
      <trkpt lat="44.46325" lon="1.00141">
        <ele>183.27</ele>
        <time>2014-03-08T14:04:58Z</time>
      </trkpt>
      <trkpt lat="44.46318" lon="1.00149">
        <ele>182.31</ele>
        <time>2014-03-08T14:04:59Z</time>
      </trkpt>
      <trkpt lat="44.46312" lon="1.00159">
        <ele>181.83</ele>
        <time>2014-03-08T14:05:00Z</time>
      </trkpt>
      <trkpt lat="44.46286" lon="1.00199">
        <ele>177.98</ele>
        <time>2014-03-08T14:05:04Z</time>
      </trkpt>
      <trkpt lat="44.46265" lon="1.00223">
        <ele>176.06</ele>
        <time>2014-03-08T14:05:07Z</time>
      </trkpt>
      <trkpt lat="44.46257" lon="1.00229">
        <ele>175.58</ele>
        <time>2014-03-08T14:05:08Z</time>
      </trkpt>
      <trkpt lat="44.46249" lon="1.00233">
        <ele>175.1</ele>
        <time>2014-03-08T14:05:09Z</time>
      </trkpt>
      <trkpt lat="44.46241" lon="1.00235">
        <ele>174.62</ele>
        <time>2014-03-08T14:05:10Z</time>
      </trkpt>
      <trkpt lat="44.46232" lon="1.00236">
        <ele>174.14</ele>
        <time>2014-03-08T14:05:11Z</time>
      </trkpt>
      <trkpt lat="44.46224" lon="1.00236">
        <ele>173.66</ele>
        <time>2014-03-08T14:05:12Z</time>
      </trkpt>
      <trkpt lat="44.46216" lon="1.00234">
        <ele>172.69</ele>
        <time>2014-03-08T14:05:13Z</time>
      </trkpt>
      <trkpt lat="44.46208" lon="1.00232">
        <ele>172.69</ele>
        <time>2014-03-08T14:05:14Z</time>
      </trkpt>
      <trkpt lat="44.46108" lon="1.00235">
        <ele>167.89</ele>
        <time>2014-03-08T14:05:26Z</time>
      </trkpt>
      <trkpt lat="44.46082" lon="1.0024">
        <ele>166.93</ele>
        <time>2014-03-08T14:05:29Z</time>
      </trkpt>
      <trkpt lat="44.46073" lon="1.0024">
        <ele>166.45</ele>
        <time>2014-03-08T14:05:30Z</time>
      </trkpt>
      <trkpt lat="44.45992" lon="1.00224">
        <ele>162.12</ele>
        <time>2014-03-08T14:05:39Z</time>
      </trkpt>
      <trkpt lat="44.45982" lon="1.00224">
        <ele>161.64</ele>
        <time>2014-03-08T14:05:40Z</time>
      </trkpt>
      <trkpt lat="44.45945" lon="1.00225">
        <ele>159.24</ele>
        <time>2014-03-08T14:05:44Z</time>
      </trkpt>
      <trkpt lat="44.45851" lon="1.00256">
        <ele>153.95</ele>
        <time>2014-03-08T14:05:56Z</time>
      </trkpt>
      <trkpt lat="44.45749" lon="1.00311">
        <ele>153.47</ele>
        <time>2014-03-08T14:06:12Z</time>
      </trkpt>
      <trkpt lat="44.45697" lon="1.00349">
        <ele>152.51</ele>
        <time>2014-03-08T14:06:21Z</time>
      </trkpt>
      <trkpt lat="44.45691" lon="1.00354">
        <ele>152.51</ele>
        <time>2014-03-08T14:06:22Z</time>
      </trkpt>
      <trkpt lat="44.45641" lon="1.00403">
        <ele>149.62</ele>
        <time>2014-03-08T14:06:31Z</time>
      </trkpt>
      <trkpt lat="44.45635" lon="1.00405">
        <ele>149.62</ele>
        <time>2014-03-08T14:06:32Z</time>
      </trkpt>
      <trkpt lat="44.45628" lon="1.00404">
        <ele>149.14</ele>
        <time>2014-03-08T14:06:33Z</time>
      </trkpt>
      <trkpt lat="44.45615" lon="1.00402">
        <ele>149.14</ele>
        <time>2014-03-08T14:06:35Z</time>
      </trkpt>
      <trkpt lat="44.45608" lon="1.00403">
        <ele>149.14</ele>
        <time>2014-03-08T14:06:36Z</time>
      </trkpt>
      <trkpt lat="44.45601" lon="1.00405">
        <ele>149.14</ele>
        <time>2014-03-08T14:06:37Z</time>
      </trkpt>
      <trkpt lat="44.45571" lon="1.00416">
        <ele>148.66</ele>
        <time>2014-03-08T14:06:42Z</time>
      </trkpt>
      <trkpt lat="44.45506" lon="1.00443">
        <ele>146.74</ele>
        <time>2014-03-08T14:06:53Z</time>
      </trkpt>
      <trkpt lat="44.45428" lon="1.00502">
        <ele>143.37</ele>
        <time>2014-03-08T14:07:07Z</time>
      </trkpt>
      <trkpt lat="44.45351" lon="1.00573">
        <ele>139.53</ele>
        <time>2014-03-08T14:07:21Z</time>
      </trkpt>
      <trkpt lat="44.45338" lon="1.00582">
        <ele>139.05</ele>
        <time>2014-03-08T14:07:23Z</time>
      </trkpt>
      <trkpt lat="44.45306" lon="1.00595">
        <ele>137.61</ele>
        <time>2014-03-08T14:07:28Z</time>
      </trkpt>
      <trkpt lat="44.453" lon="1.00597">
        <ele>137.61</ele>
        <time>2014-03-08T14:07:29Z</time>
      </trkpt>
      <trkpt lat="44.45294" lon="1.00599">
        <ele>137.13</ele>
        <time>2014-03-08T14:07:30Z</time>
      </trkpt>
      <trkpt lat="44.45289" lon="1.00601">
        <ele>137.13</ele>
        <time>2014-03-08T14:07:31Z</time>
      </trkpt>
      <trkpt lat="44.45284" lon="1.00602">
        <ele>136.64</ele>
        <time>2014-03-08T14:07:32Z</time>
      </trkpt>
      <trkpt lat="44.4528" lon="1.00604">
        <ele>136.64</ele>
        <time>2014-03-08T14:07:33Z</time>
      </trkpt>
      <trkpt lat="44.45277" lon="1.00605">
        <ele>136.16</ele>
        <time>2014-03-08T14:07:34Z</time>
      </trkpt>
      <trkpt lat="44.45277" lon="1.00605">
        <ele>136.16</ele>
        <time>2014-03-08T14:07:44Z</time>
      </trkpt>
      <trkpt lat="44.45277" lon="1.00606">
        <ele>136.16</ele>
        <time>2014-03-08T14:07:46Z</time>
      </trkpt>
      <trkpt lat="44.45276" lon="1.00608">
        <ele>136.16</ele>
        <time>2014-03-08T14:07:47Z</time>
      </trkpt>
      <trkpt lat="44.45276" lon="1.0061">
        <ele>136.16</ele>
        <time>2014-03-08T14:07:48Z</time>
      </trkpt>
      <trkpt lat="44.45276" lon="1.00612">
        <ele>136.16</ele>
        <time>2014-03-08T14:07:49Z</time>
      </trkpt>
      <trkpt lat="44.45276" lon="1.00613">
        <ele>136.16</ele>
        <time>2014-03-08T14:07:50Z</time>
      </trkpt>
      <trkpt lat="44.45276" lon="1.00615">
        <ele>136.16</ele>
        <time>2014-03-08T14:07:51Z</time>
      </trkpt>
      <trkpt lat="44.45277" lon="1.00617">
        <ele>136.64</ele>
        <time>2014-03-08T14:08:02Z</time>
      </trkpt>
      <trkpt lat="44.45277" lon="1.00617">
        <ele>140.01</ele>
        <time>2014-03-08T14:08:29Z</time>
      </trkpt>
      <trkpt lat="44.45277" lon="1.00616">
        <ele>140.01</ele>
        <time>2014-03-08T14:08:49Z</time>
      </trkpt>
      <trkpt lat="44.45277" lon="1.00624">
        <ele>139.05</ele>
        <time>2014-03-08T14:09:09Z</time>
      </trkpt>
      <trkpt lat="44.45273" lon="1.00672">
        <ele>137.13</ele>
        <time>2014-03-08T14:09:24Z</time>
      </trkpt>
      <trkpt lat="44.45272" lon="1.00688">
        <ele>137.13</ele>
        <time>2014-03-08T14:09:28Z</time>
      </trkpt>
      <trkpt lat="44.45271" lon="1.00694">
        <ele>137.13</ele>
        <time>2014-03-08T14:09:29Z</time>
      </trkpt>
      <trkpt lat="44.4527" lon="1.0077">
        <ele>137.13</ele>
        <time>2014-03-08T14:09:43Z</time>
      </trkpt>
      <trkpt lat="44.45284" lon="1.00839">
        <ele>138.57</ele>
        <time>2014-03-08T14:09:57Z</time>
      </trkpt>
      <trkpt lat="44.45301" lon="1.00916">
        <ele>139.53</ele>
        <time>2014-03-08T14:10:12Z</time>
      </trkpt>
      <trkpt lat="44.45321" lon="1.00995">
        <ele>139.05</ele>
        <time>2014-03-08T14:10:27Z</time>
      </trkpt>
      <trkpt lat="44.45332" lon="1.01066">
        <ele>140.97</ele>
        <time>2014-03-08T14:10:40Z</time>
      </trkpt>
      <trkpt lat="44.45335" lon="1.0109">
        <ele>140.49</ele>
        <time>2014-03-08T14:10:44Z</time>
      </trkpt>
      <trkpt lat="44.45336" lon="1.01096">
        <ele>140.49</ele>
        <time>2014-03-08T14:10:45Z</time>
      </trkpt>
      <trkpt lat="44.45362" lon="1.0117">
        <ele>142.41</ele>
        <time>2014-03-08T14:10:59Z</time>
      </trkpt>
      <trkpt lat="44.45364" lon="1.01175">
        <ele>142.41</ele>
        <time>2014-03-08T14:11:00Z</time>
      </trkpt>
      <trkpt lat="44.45366" lon="1.01181">
        <ele>142.89</ele>
        <time>2014-03-08T14:11:01Z</time>
      </trkpt>
      <trkpt lat="44.45394" lon="1.01257">
        <ele>145.78</ele>
        <time>2014-03-08T14:11:16Z</time>
      </trkpt>
      <trkpt lat="44.45409" lon="1.01302">
        <ele>146.26</ele>
        <time>2014-03-08T14:11:24Z</time>
      </trkpt>
      <trkpt lat="44.45422" lon="1.01341">
        <ele>146.74</ele>
        <time>2014-03-08T14:11:31Z</time>
      </trkpt>
      <trkpt lat="44.45437" lon="1.01416">
        <ele>148.66</ele>
        <time>2014-03-08T14:11:44Z</time>
      </trkpt>
      <trkpt lat="44.45438" lon="1.01421">
        <ele>148.66</ele>
        <time>2014-03-08T14:11:45Z</time>
      </trkpt>
      <trkpt lat="44.45437" lon="1.01509">
        <ele>149.14</ele>
        <time>2014-03-08T14:12:02Z</time>
      </trkpt>
      <trkpt lat="44.45438" lon="1.01526">
        <ele>148.66</ele>
        <time>2014-03-08T14:12:05Z</time>
      </trkpt>
      <trkpt lat="44.45437" lon="1.01538">
        <ele>148.18</ele>
        <time>2014-03-08T14:12:07Z</time>
      </trkpt>
      <trkpt lat="44.45446" lon="1.016">
        <ele>148.18</ele>
        <time>2014-03-08T14:12:17Z</time>
      </trkpt>
      <trkpt lat="44.45472" lon="1.01703">
        <ele>149.14</ele>
        <time>2014-03-08T14:12:35Z</time>
      </trkpt>
      <trkpt lat="44.45477" lon="1.01735">
        <ele>149.62</ele>
        <time>2014-03-08T14:12:40Z</time>
      </trkpt>
      <trkpt lat="44.4548" lon="1.01748">
        <ele>150.1</ele>
        <time>2014-03-08T14:12:42Z</time>
      </trkpt>
      <trkpt lat="44.45487" lon="1.01776">
        <ele>150.1</ele>
        <time>2014-03-08T14:12:47Z</time>
      </trkpt>
      <trkpt lat="44.45522" lon="1.01842">
        <ele>150.58</ele>
        <time>2014-03-08T14:13:02Z</time>
      </trkpt>
      <trkpt lat="44.4555" lon="1.01898">
        <ele>149.62</ele>
        <time>2014-03-08T14:13:15Z</time>
      </trkpt>
      <trkpt lat="44.45586" lon="1.0197">
        <ele>147.7</ele>
        <time>2014-03-08T14:13:31Z</time>
      </trkpt>
      <trkpt lat="44.45596" lon="1.01993">
        <ele>147.22</ele>
        <time>2014-03-08T14:13:36Z</time>
      </trkpt>
      <trkpt lat="44.456" lon="1.02012">
        <ele>147.7</ele>
        <time>2014-03-08T14:13:39Z</time>
      </trkpt>
      <trkpt lat="44.45604" lon="1.02031">
        <ele>148.18</ele>
        <time>2014-03-08T14:13:42Z</time>
      </trkpt>
      <trkpt lat="44.45606" lon="1.02037">
        <ele>148.18</ele>
        <time>2014-03-08T14:13:43Z</time>
      </trkpt>
      <trkpt lat="44.45624" lon="1.02106">
        <ele>151.06</ele>
        <time>2014-03-08T14:13:58Z</time>
      </trkpt>
      <trkpt lat="44.45626" lon="1.02111">
        <ele>152.03</ele>
        <time>2014-03-08T14:14:00Z</time>
      </trkpt>
      <trkpt lat="44.45626" lon="1.02114">
        <ele>152.51</ele>
        <time>2014-03-08T14:14:01Z</time>
      </trkpt>
      <trkpt lat="44.45625" lon="1.02116">
        <ele>152.51</ele>
        <time>2014-03-08T14:14:02Z</time>
      </trkpt>
      <trkpt lat="44.45625" lon="1.02118">
        <ele>152.51</ele>
        <time>2014-03-08T14:14:03Z</time>
      </trkpt>
      <trkpt lat="44.45625" lon="1.0212">
        <ele>152.51</ele>
        <time>2014-03-08T14:14:05Z</time>
      </trkpt>
      <trkpt lat="44.45624" lon="1.02122">
        <ele>152.99</ele>
        <time>2014-03-08T14:14:06Z</time>
      </trkpt>
      <trkpt lat="44.45624" lon="1.02124">
        <ele>152.99</ele>
        <time>2014-03-08T14:14:07Z</time>
      </trkpt>
      <trkpt lat="44.45623" lon="1.02127">
        <ele>153.47</ele>
        <time>2014-03-08T14:14:08Z</time>
      </trkpt>
      <trkpt lat="44.45623" lon="1.02129">
        <ele>153.95</ele>
        <time>2014-03-08T14:14:09Z</time>
      </trkpt>
      <trkpt lat="44.45623" lon="1.02132">
        <ele>153.95</ele>
        <time>2014-03-08T14:14:10Z</time>
      </trkpt>
      <trkpt lat="44.45623" lon="1.02134">
        <ele>153.95</ele>
        <time>2014-03-08T14:14:11Z</time>
      </trkpt>
      <trkpt lat="44.45623" lon="1.02137">
        <ele>153.95</ele>
        <time>2014-03-08T14:14:12Z</time>
      </trkpt>
      <trkpt lat="44.45622" lon="1.02142">
        <ele>153.95</ele>
        <time>2014-03-08T14:14:14Z</time>
      </trkpt>
      <trkpt lat="44.45621" lon="1.02143">
        <ele>153.95</ele>
        <time>2014-03-08T14:14:15Z</time>
      </trkpt>
      <trkpt lat="44.4562" lon="1.02145">
        <ele>154.43</ele>
        <time>2014-03-08T14:14:16Z</time>
      </trkpt>
      <trkpt lat="44.45619" lon="1.02145">
        <ele>153.95</ele>
        <time>2014-03-08T14:14:17Z</time>
      </trkpt>
      <trkpt lat="44.45617" lon="1.02146">
        <ele>153.95</ele>
        <time>2014-03-08T14:14:18Z</time>
      </trkpt>
      <trkpt lat="44.45615" lon="1.02146">
        <ele>153.47</ele>
        <time>2014-03-08T14:14:19Z</time>
      </trkpt>
      <trkpt lat="44.45613" lon="1.02147">
        <ele>153.47</ele>
        <time>2014-03-08T14:14:20Z</time>
      </trkpt>
      <trkpt lat="44.45611" lon="1.02146">
        <ele>153.47</ele>
        <time>2014-03-08T14:14:21Z</time>
      </trkpt>
      <trkpt lat="44.45589" lon="1.02141">
        <ele>152.99</ele>
        <time>2014-03-08T14:14:27Z</time>
      </trkpt>
      <trkpt lat="44.45568" lon="1.02144">
        <ele>152.03</ele>
        <time>2014-03-08T14:14:32Z</time>
      </trkpt>
      <trkpt lat="44.45549" lon="1.02156">
        <ele>152.03</ele>
        <time>2014-03-08T14:14:38Z</time>
      </trkpt>
      <trkpt lat="44.45557" lon="1.02177">
        <ele>152.03</ele>
        <time>2014-03-08T14:14:47Z</time>
      </trkpt>
      <trkpt lat="44.45566" lon="1.02193">
        <ele>153.47</ele>
        <time>2014-03-08T14:14:54Z</time>
      </trkpt>
      <trkpt lat="44.45571" lon="1.02199">
        <ele>156.83</ele>
        <time>2014-03-08T14:15:07Z</time>
      </trkpt>
      <trkpt lat="44.45581" lon="1.02211">
        <ele>157.79</ele>
        <time>2014-03-08T14:15:26Z</time>
      </trkpt>
      <trkpt lat="44.45608" lon="1.02234">
        <ele>159.24</ele>
        <time>2014-03-08T14:15:37Z</time>
      </trkpt>
      <trkpt lat="44.45641" lon="1.02251">
        <ele>160.2</ele>
        <time>2014-03-08T14:15:49Z</time>
      </trkpt>
      <trkpt lat="44.45676" lon="1.0226">
        <ele>162.6</ele>
        <time>2014-03-08T14:15:59Z</time>
      </trkpt>
      <trkpt lat="44.45685" lon="1.02263">
        <ele>162.6</ele>
        <time>2014-03-08T14:16:01Z</time>
      </trkpt>
      <trkpt lat="44.45711" lon="1.0228">
        <ele>163.08</ele>
        <time>2014-03-08T14:16:07Z</time>
      </trkpt>
      <trkpt lat="44.45731" lon="1.02288">
        <ele>163.08</ele>
        <time>2014-03-08T14:16:11Z</time>
      </trkpt>
      <trkpt lat="44.45749" lon="1.0229">
        <ele>164.04</ele>
        <time>2014-03-08T14:16:15Z</time>
      </trkpt>
      <trkpt lat="44.45757" lon="1.02299">
        <ele>164.52</ele>
        <time>2014-03-08T14:16:18Z</time>
      </trkpt>
      <trkpt lat="44.45769" lon="1.02341">
        <ele>158.27</ele>
        <time>2014-03-08T14:16:27Z</time>
      </trkpt>
      <trkpt lat="44.4577" lon="1.02347">
        <ele>157.79</ele>
        <time>2014-03-08T14:16:28Z</time>
      </trkpt>
      <trkpt lat="44.4578" lon="1.02409">
        <ele>153.95</ele>
        <time>2014-03-08T14:16:39Z</time>
      </trkpt>
      <trkpt lat="44.45787" lon="1.02432">
        <ele>154.43</ele>
        <time>2014-03-08T14:16:43Z</time>
      </trkpt>
      <trkpt lat="44.458" lon="1.02461">
        <ele>154.91</ele>
        <time>2014-03-08T14:16:48Z</time>
      </trkpt>
      <trkpt lat="44.45823" lon="1.02524">
        <ele>155.39</ele>
        <time>2014-03-08T14:17:00Z</time>
      </trkpt>
      <trkpt lat="44.45836" lon="1.02598">
        <ele>152.99</ele>
        <time>2014-03-08T14:17:14Z</time>
      </trkpt>
      <trkpt lat="44.45837" lon="1.02674">
        <ele>156.83</ele>
        <time>2014-03-08T14:17:28Z</time>
      </trkpt>
      <trkpt lat="44.45857" lon="1.0273">
        <ele>159.24</ele>
        <time>2014-03-08T14:17:41Z</time>
      </trkpt>
      <trkpt lat="44.45869" lon="1.02766">
        <ele>160.68</ele>
        <time>2014-03-08T14:17:49Z</time>
      </trkpt>
      <trkpt lat="44.45886" lon="1.02826">
        <ele>163.08</ele>
        <time>2014-03-08T14:17:59Z</time>
      </trkpt>
      <trkpt lat="44.45892" lon="1.02914">
        <ele>164.52</ele>
        <time>2014-03-08T14:18:12Z</time>
      </trkpt>
      <trkpt lat="44.45889" lon="1.02994">
        <ele>166.45</ele>
        <time>2014-03-08T14:18:25Z</time>
      </trkpt>
      <trkpt lat="44.45883" lon="1.03034">
        <ele>166.93</ele>
        <time>2014-03-08T14:18:33Z</time>
      </trkpt>
      <trkpt lat="44.45884" lon="1.03037">
        <ele>166.93</ele>
        <time>2014-03-08T14:18:34Z</time>
      </trkpt>
      <trkpt lat="44.45887" lon="1.03039">
        <ele>166.93</ele>
        <time>2014-03-08T14:18:43Z</time>
      </trkpt>
      <trkpt lat="44.45887" lon="1.03039">
        <ele>165.96</ele>
        <time>2014-03-08T14:19:02Z</time>
      </trkpt>
      <trkpt lat="44.45887" lon="1.03039">
        <ele>165.96</ele>
        <time>2014-03-08T14:19:20Z</time>
      </trkpt>
      <trkpt lat="44.45887" lon="1.03039">
        <ele>165.48</ele>
        <time>2014-03-08T14:19:42Z</time>
      </trkpt>
      <trkpt lat="44.45887" lon="1.03039">
        <ele>165.48</ele>
        <time>2014-03-08T14:20:01Z</time>
      </trkpt>
      <trkpt lat="44.45887" lon="1.0304">
        <ele>165.48</ele>
        <time>2014-03-08T14:20:24Z</time>
      </trkpt>
      <trkpt lat="44.45887" lon="1.0304">
        <ele>165.48</ele>
        <time>2014-03-08T14:20:25Z</time>
      </trkpt>
      <trkpt lat="44.45887" lon="1.03043">
        <ele>165</ele>
        <time>2014-03-08T14:20:27Z</time>
      </trkpt>
      <trkpt lat="44.45887" lon="1.03044">
        <ele>164.52</ele>
        <time>2014-03-08T14:20:28Z</time>
      </trkpt>
      <trkpt lat="44.45885" lon="1.03058">
        <ele>164.52</ele>
        <time>2014-03-08T14:20:40Z</time>
      </trkpt>
      <trkpt lat="44.45874" lon="1.03114">
        <ele>163.08</ele>
        <time>2014-03-08T14:20:52Z</time>
      </trkpt>
      <trkpt lat="44.45868" lon="1.03148">
        <ele>162.6</ele>
        <time>2014-03-08T14:20:58Z</time>
      </trkpt>
      <trkpt lat="44.45852" lon="1.03237">
        <ele>164.04</ele>
        <time>2014-03-08T14:21:13Z</time>
      </trkpt>
      <trkpt lat="44.45851" lon="1.03243">
        <ele>164.04</ele>
        <time>2014-03-08T14:21:14Z</time>
      </trkpt>
      <trkpt lat="44.4583" lon="1.03353">
        <ele>163.08</ele>
        <time>2014-03-08T14:21:31Z</time>
      </trkpt>
      <trkpt lat="44.45827" lon="1.03372">
        <ele>163.56</ele>
        <time>2014-03-08T14:21:34Z</time>
      </trkpt>
      <trkpt lat="44.45818" lon="1.03421">
        <ele>163.56</ele>
        <time>2014-03-08T14:21:42Z</time>
      </trkpt>
      <trkpt lat="44.45803" lon="1.03501">
        <ele>164.04</ele>
        <time>2014-03-08T14:21:55Z</time>
      </trkpt>
      <trkpt lat="44.45802" lon="1.03507">
        <ele>164.04</ele>
        <time>2014-03-08T14:21:56Z</time>
      </trkpt>
      <trkpt lat="44.4578" lon="1.03619">
        <ele>164.04</ele>
        <time>2014-03-08T14:22:14Z</time>
      </trkpt>
      <trkpt lat="44.45774" lon="1.03656">
        <ele>164.04</ele>
        <time>2014-03-08T14:22:20Z</time>
      </trkpt>
      <trkpt lat="44.45773" lon="1.03662">
        <ele>164.04</ele>
        <time>2014-03-08T14:22:21Z</time>
      </trkpt>
      <trkpt lat="44.45772" lon="1.03668">
        <ele>164.52</ele>
        <time>2014-03-08T14:22:22Z</time>
      </trkpt>
      <trkpt lat="44.45753" lon="1.03769">
        <ele>165</ele>
        <time>2014-03-08T14:22:39Z</time>
      </trkpt>
      <trkpt lat="44.45748" lon="1.03812">
        <ele>166.45</ele>
        <time>2014-03-08T14:22:47Z</time>
      </trkpt>
      <trkpt lat="44.45748" lon="1.03818">
        <ele>166.93</ele>
        <time>2014-03-08T14:22:48Z</time>
      </trkpt>
      <trkpt lat="44.45748" lon="1.03883">
        <ele>167.41</ele>
        <time>2014-03-08T14:22:59Z</time>
      </trkpt>
      <trkpt lat="44.45749" lon="1.03889">
        <ele>167.41</ele>
        <time>2014-03-08T14:23:00Z</time>
      </trkpt>
      <trkpt lat="44.45749" lon="1.03895">
        <ele>167.41</ele>
        <time>2014-03-08T14:23:01Z</time>
      </trkpt>
      <trkpt lat="44.4575" lon="1.03901">
        <ele>167.41</ele>
        <time>2014-03-08T14:23:02Z</time>
      </trkpt>
      <trkpt lat="44.4575" lon="1.03906">
        <ele>167.89</ele>
        <time>2014-03-08T14:23:03Z</time>
      </trkpt>
      <trkpt lat="44.45758" lon="1.0397">
        <ele>168.85</ele>
        <time>2014-03-08T14:23:16Z</time>
      </trkpt>
      <trkpt lat="44.45756" lon="1.03973">
        <ele>169.33</ele>
        <time>2014-03-08T14:23:17Z</time>
      </trkpt>
      <trkpt lat="44.45747" lon="1.03976">
        <ele>170.29</ele>
        <time>2014-03-08T14:23:22Z</time>
      </trkpt>
      <trkpt lat="44.45736" lon="1.03971">
        <ele>171.73</ele>
        <time>2014-03-08T14:23:28Z</time>
      </trkpt>
      <trkpt lat="44.45729" lon="1.03978">
        <ele>173.66</ele>
        <time>2014-03-08T14:23:34Z</time>
      </trkpt>
      <trkpt lat="44.45725" lon="1.0398">
        <ele>174.62</ele>
        <time>2014-03-08T14:23:38Z</time>
      </trkpt>
      <trkpt lat="44.45717" lon="1.03986">
        <ele>175.58</ele>
        <time>2014-03-08T14:23:45Z</time>
      </trkpt>
      <trkpt lat="44.45707" lon="1.03993">
        <ele>179.9</ele>
        <time>2014-03-08T14:23:56Z</time>
      </trkpt>
      <trkpt lat="44.45706" lon="1.03993">
        <ele>180.87</ele>
        <time>2014-03-08T14:23:57Z</time>
      </trkpt>
      <trkpt lat="44.45701" lon="1.03996">
        <ele>181.83</ele>
        <time>2014-03-08T14:24:03Z</time>
      </trkpt>
      <trkpt lat="44.45689" lon="1.0401">
        <ele>185.67</ele>
        <time>2014-03-08T14:24:21Z</time>
      </trkpt>
      <trkpt lat="44.45677" lon="1.04024">
        <ele>190.96</ele>
        <time>2014-03-08T14:24:39Z</time>
      </trkpt>
      <trkpt lat="44.45671" lon="1.04039">
        <ele>193.84</ele>
        <time>2014-03-08T14:24:54Z</time>
      </trkpt>
      <trkpt lat="44.45664" lon="1.04061">
        <ele>196.25</ele>
        <time>2014-03-08T14:25:12Z</time>
      </trkpt>
      <trkpt lat="44.45662" lon="1.04066">
        <ele>197.21</ele>
        <time>2014-03-08T14:25:16Z</time>
      </trkpt>
      <trkpt lat="44.45661" lon="1.0407">
        <ele>197.69</ele>
        <time>2014-03-08T14:25:19Z</time>
      </trkpt>
      <trkpt lat="44.45654" lon="1.04092">
        <ele>199.61</ele>
        <time>2014-03-08T14:25:36Z</time>
      </trkpt>
      <trkpt lat="44.45646" lon="1.04119">
        <ele>202.98</ele>
        <time>2014-03-08T14:25:54Z</time>
      </trkpt>
      <trkpt lat="44.45646" lon="1.04123">
        <ele>202.49</ele>
        <time>2014-03-08T14:26:07Z</time>
      </trkpt>
      <trkpt lat="44.45646" lon="1.04122">
        <ele>204.42</ele>
        <time>2014-03-08T14:26:32Z</time>
      </trkpt>
      <trkpt lat="44.45647" lon="1.04122">
        <ele>203.94</ele>
        <time>2014-03-08T14:26:48Z</time>
      </trkpt>
      <trkpt lat="44.45647" lon="1.04124">
        <ele>203.94</ele>
        <time>2014-03-08T14:27:09Z</time>
      </trkpt>
      <trkpt lat="44.45648" lon="1.04123">
        <ele>202.98</ele>
        <time>2014-03-08T14:27:29Z</time>
      </trkpt>
      <trkpt lat="44.45648" lon="1.04123">
        <ele>202.49</ele>
        <time>2014-03-08T14:27:54Z</time>
      </trkpt>
      <trkpt lat="44.45648" lon="1.04122">
        <ele>202.01</ele>
        <time>2014-03-08T14:28:09Z</time>
      </trkpt>
      <trkpt lat="44.45648" lon="1.04121">
        <ele>204.42</ele>
        <time>2014-03-08T14:28:47Z</time>
      </trkpt>
      <trkpt lat="44.45648" lon="1.04121">
        <ele>204.9</ele>
        <time>2014-03-08T14:29:13Z</time>
      </trkpt>
      <trkpt lat="44.45648" lon="1.04121">
        <ele>204.9</ele>
        <time>2014-03-08T14:29:33Z</time>
      </trkpt>
      <trkpt lat="44.45647" lon="1.04122">
        <ele>204.42</ele>
        <time>2014-03-08T14:29:55Z</time>
      </trkpt>
      <trkpt lat="44.45647" lon="1.04124">
        <ele>204.42</ele>
        <time>2014-03-08T14:30:12Z</time>
      </trkpt>
      <trkpt lat="44.45643" lon="1.04141">
        <ele>205.38</ele>
        <time>2014-03-08T14:30:19Z</time>
      </trkpt>
      <trkpt lat="44.45635" lon="1.04189">
        <ele>209.7</ele>
        <time>2014-03-08T14:30:33Z</time>
      </trkpt>
      <trkpt lat="44.45633" lon="1.04225">
        <ele>211.15</ele>
        <time>2014-03-08T14:30:45Z</time>
      </trkpt>
      <trkpt lat="44.45632" lon="1.04228">
        <ele>211.63</ele>
        <time>2014-03-08T14:30:51Z</time>
      </trkpt>
      <trkpt lat="44.45631" lon="1.04227">
        <ele>211.63</ele>
        <time>2014-03-08T14:30:52Z</time>
      </trkpt>
      <trkpt lat="44.45628" lon="1.04225">
        <ele>212.11</ele>
        <time>2014-03-08T14:30:54Z</time>
      </trkpt>
      <trkpt lat="44.45626" lon="1.04225">
        <ele>212.11</ele>
        <time>2014-03-08T14:30:55Z</time>
      </trkpt>
      <trkpt lat="44.45624" lon="1.04225">
        <ele>212.11</ele>
        <time>2014-03-08T14:30:56Z</time>
      </trkpt>
      <trkpt lat="44.45621" lon="1.04224">
        <ele>212.11</ele>
        <time>2014-03-08T14:30:57Z</time>
      </trkpt>
      <trkpt lat="44.45618" lon="1.04224">
        <ele>212.11</ele>
        <time>2014-03-08T14:30:58Z</time>
      </trkpt>
      <trkpt lat="44.45571" lon="1.04199">
        <ele>211.15</ele>
        <time>2014-03-08T14:31:15Z</time>
      </trkpt>
      <trkpt lat="44.45546" lon="1.04185">
        <ele>209.22</ele>
        <time>2014-03-08T14:31:23Z</time>
      </trkpt>
      <trkpt lat="44.45529" lon="1.04179">
        <ele>208.26</ele>
        <time>2014-03-08T14:31:27Z</time>
      </trkpt>
      <trkpt lat="44.45469" lon="1.04183">
        <ele>205.86</ele>
        <time>2014-03-08T14:31:39Z</time>
      </trkpt>
      <trkpt lat="44.45413" lon="1.04193">
        <ele>202.98</ele>
        <time>2014-03-08T14:31:50Z</time>
      </trkpt>
      <trkpt lat="44.45338" lon="1.0423">
        <ele>201.05</ele>
        <time>2014-03-08T14:32:05Z</time>
      </trkpt>
      <trkpt lat="44.45306" lon="1.04261">
        <ele>200.57</ele>
        <time>2014-03-08T14:32:17Z</time>
      </trkpt>
      <trkpt lat="44.45305" lon="1.04263">
        <ele>202.01</ele>
        <time>2014-03-08T14:32:27Z</time>
      </trkpt>
      <trkpt lat="44.45303" lon="1.04264">
        <ele>202.01</ele>
        <time>2014-03-08T14:32:28Z</time>
      </trkpt>
      <trkpt lat="44.45302" lon="1.04266">
        <ele>201.53</ele>
        <time>2014-03-08T14:32:29Z</time>
      </trkpt>
      <trkpt lat="44.45271" lon="1.04311">
        <ele>201.05</ele>
        <time>2014-03-08T14:32:43Z</time>
      </trkpt>
      <trkpt lat="44.45247" lon="1.04347">
        <ele>202.49</ele>
        <time>2014-03-08T14:32:55Z</time>
      </trkpt>
      <trkpt lat="44.4522" lon="1.04403">
        <ele>206.34</ele>
        <time>2014-03-08T14:33:10Z</time>
      </trkpt>
      <trkpt lat="44.45195" lon="1.04459">
        <ele>205.86</ele>
        <time>2014-03-08T14:33:24Z</time>
      </trkpt>
      <trkpt lat="44.45172" lon="1.04508">
        <ele>206.34</ele>
        <time>2014-03-08T14:33:37Z</time>
      </trkpt>
      <trkpt lat="44.45145" lon="1.04565">
        <ele>206.82</ele>
        <time>2014-03-08T14:33:51Z</time>
      </trkpt>
      <trkpt lat="44.45132" lon="1.04611">
        <ele>209.22</ele>
        <time>2014-03-08T14:34:04Z</time>
      </trkpt>
      <trkpt lat="44.45137" lon="1.04691">
        <ele>207.3</ele>
        <time>2014-03-08T14:34:19Z</time>
      </trkpt>
      <trkpt lat="44.45139" lon="1.0472">
        <ele>207.3</ele>
        <time>2014-03-08T14:34:24Z</time>
      </trkpt>
      <trkpt lat="44.45146" lon="1.04799">
        <ele>206.34</ele>
        <time>2014-03-08T14:34:40Z</time>
      </trkpt>
      <trkpt lat="44.45149" lon="1.04803">
        <ele>206.82</ele>
        <time>2014-03-08T14:34:47Z</time>
      </trkpt>
      <trkpt lat="44.45153" lon="1.04794">
        <ele>207.78</ele>
        <time>2014-03-08T14:34:58Z</time>
      </trkpt>
      <trkpt lat="44.45152" lon="1.04793">
        <ele>206.82</ele>
        <time>2014-03-08T14:35:22Z</time>
      </trkpt>
      <trkpt lat="44.45152" lon="1.04792">
        <ele>207.3</ele>
        <time>2014-03-08T14:35:56Z</time>
      </trkpt>
      <trkpt lat="44.4515" lon="1.04791">
        <ele>206.82</ele>
        <time>2014-03-08T14:36:26Z</time>
      </trkpt>
      <trkpt lat="44.4515" lon="1.04791">
        <ele>206.82</ele>
        <time>2014-03-08T14:37:00Z</time>
      </trkpt>
      <trkpt lat="44.45151" lon="1.0479">
        <ele>206.34</ele>
        <time>2014-03-08T14:37:23Z</time>
      </trkpt>
      <trkpt lat="44.45151" lon="1.04789">
        <ele>205.86</ele>
        <time>2014-03-08T14:37:52Z</time>
      </trkpt>
      <trkpt lat="44.45151" lon="1.04792">
        <ele>204.9</ele>
        <time>2014-03-08T14:38:28Z</time>
      </trkpt>
      <trkpt lat="44.45151" lon="1.04791">
        <ele>204.9</ele>
        <time>2014-03-08T14:38:50Z</time>
      </trkpt>
      <trkpt lat="44.45152" lon="1.04792">
        <ele>206.34</ele>
        <time>2014-03-08T14:39:20Z</time>
      </trkpt>
      <trkpt lat="44.45153" lon="1.04794">
        <ele>206.82</ele>
        <time>2014-03-08T14:39:48Z</time>
      </trkpt>
      <trkpt lat="44.45152" lon="1.04792">
        <ele>206.82</ele>
        <time>2014-03-08T14:40:15Z</time>
      </trkpt>
      <trkpt lat="44.45154" lon="1.04793">
        <ele>206.34</ele>
        <time>2014-03-08T14:40:42Z</time>
      </trkpt>
      <trkpt lat="44.45153" lon="1.04793">
        <ele>206.34</ele>
        <time>2014-03-08T14:41:07Z</time>
      </trkpt>
      <trkpt lat="44.45153" lon="1.04791">
        <ele>206.34</ele>
        <time>2014-03-08T14:41:38Z</time>
      </trkpt>
      <trkpt lat="44.45154" lon="1.04791">
        <ele>207.3</ele>
        <time>2014-03-08T14:42:08Z</time>
      </trkpt>
      <trkpt lat="44.45154" lon="1.04793">
        <ele>208.26</ele>
        <time>2014-03-08T14:42:42Z</time>
      </trkpt>
      <trkpt lat="44.45154" lon="1.04794">
        <ele>210.19</ele>
        <time>2014-03-08T14:43:17Z</time>
      </trkpt>
      <trkpt lat="44.45156" lon="1.04794">
        <ele>211.15</ele>
        <time>2014-03-08T14:43:55Z</time>
      </trkpt>
      <trkpt lat="44.45155" lon="1.04793">
        <ele>211.15</ele>
        <time>2014-03-08T14:44:29Z</time>
      </trkpt>
      <trkpt lat="44.45155" lon="1.04791">
        <ele>212.59</ele>
        <time>2014-03-08T14:45:04Z</time>
      </trkpt>
      <trkpt lat="44.45153" lon="1.04792">
        <ele>213.07</ele>
        <time>2014-03-08T14:45:45Z</time>
      </trkpt>
      <trkpt lat="44.45153" lon="1.04791">
        <ele>212.59</ele>
        <time>2014-03-08T14:46:21Z</time>
      </trkpt>
      <trkpt lat="44.45153" lon="1.04795">
        <ele>213.07</ele>
        <time>2014-03-08T14:46:35Z</time>
      </trkpt>
      <trkpt lat="44.4515" lon="1.04803">
        <ele>213.55</ele>
        <time>2014-03-08T14:46:47Z</time>
      </trkpt>
      <trkpt lat="44.45151" lon="1.04803">
        <ele>213.07</ele>
        <time>2014-03-08T14:46:56Z</time>
      </trkpt>
      <trkpt lat="44.45148" lon="1.04819">
        <ele>212.59</ele>
        <time>2014-03-08T14:47:03Z</time>
      </trkpt>
      <trkpt lat="44.4514" lon="1.04855">
        <ele>212.59</ele>
        <time>2014-03-08T14:47:14Z</time>
      </trkpt>
      <trkpt lat="44.45136" lon="1.0486">
        <ele>212.59</ele>
        <time>2014-03-08T14:47:16Z</time>
      </trkpt>
      <trkpt lat="44.45093" lon="1.04864">
        <ele>210.67</ele>
        <time>2014-03-08T14:47:29Z</time>
      </trkpt>
      <trkpt lat="44.45052" lon="1.04864">
        <ele>209.7</ele>
        <time>2014-03-08T14:47:42Z</time>
      </trkpt>
      <trkpt lat="44.45003" lon="1.0488">
        <ele>211.63</ele>
        <time>2014-03-08T14:47:57Z</time>
      </trkpt>
      <trkpt lat="44.4498" lon="1.04883">
        <ele>211.15</ele>
        <time>2014-03-08T14:48:05Z</time>
      </trkpt>
      <trkpt lat="44.44977" lon="1.04882">
        <ele>211.15</ele>
        <time>2014-03-08T14:48:06Z</time>
      </trkpt>
      <trkpt lat="44.44974" lon="1.04875">
        <ele>210.67</ele>
        <time>2014-03-08T14:48:09Z</time>
      </trkpt>
      <trkpt lat="44.44972" lon="1.04871">
        <ele>210.67</ele>
        <time>2014-03-08T14:48:11Z</time>
      </trkpt>
      <trkpt lat="44.44969" lon="1.0487">
        <ele>210.67</ele>
        <time>2014-03-08T14:48:12Z</time>
      </trkpt>
      <trkpt lat="44.44933" lon="1.04873">
        <ele>210.67</ele>
        <time>2014-03-08T14:48:24Z</time>
      </trkpt>
      <trkpt lat="44.44894" lon="1.0488">
        <ele>210.67</ele>
        <time>2014-03-08T14:48:36Z</time>
      </trkpt>
      <trkpt lat="44.4484" lon="1.04893">
        <ele>212.11</ele>
        <time>2014-03-08T14:48:51Z</time>
      </trkpt>
      <trkpt lat="44.44782" lon="1.04907">
        <ele>214.03</ele>
        <time>2014-03-08T14:49:06Z</time>
      </trkpt>
      <trkpt lat="44.44729" lon="1.04911">
        <ele>214.51</ele>
        <time>2014-03-08T14:49:20Z</time>
      </trkpt>
      <trkpt lat="44.44686" lon="1.04882">
        <ele>213.07</ele>
        <time>2014-03-08T14:49:32Z</time>
      </trkpt>
      <trkpt lat="44.44671" lon="1.04876">
        <ele>212.59</ele>
        <time>2014-03-08T14:49:36Z</time>
      </trkpt>
      <trkpt lat="44.44663" lon="1.04874">
        <ele>212.11</ele>
        <time>2014-03-08T14:49:38Z</time>
      </trkpt>
      <trkpt lat="44.44655" lon="1.04873">
        <ele>212.11</ele>
        <time>2014-03-08T14:49:40Z</time>
      </trkpt>
      <trkpt lat="44.44638" lon="1.04874">
        <ele>212.11</ele>
        <time>2014-03-08T14:49:44Z</time>
      </trkpt>
      <trkpt lat="44.44581" lon="1.04886">
        <ele>214.51</ele>
        <time>2014-03-08T14:50:00Z</time>
      </trkpt>
      <trkpt lat="44.44579" lon="1.04887">
        <ele>214.51</ele>
        <time>2014-03-08T14:50:01Z</time>
      </trkpt>
      <trkpt lat="44.44564" lon="1.04911">
        <ele>213.55</ele>
        <time>2014-03-08T14:50:12Z</time>
      </trkpt>
      <trkpt lat="44.44548" lon="1.04937">
        <ele>214.03</ele>
        <time>2014-03-08T14:50:22Z</time>
      </trkpt>
      <trkpt lat="44.44531" lon="1.04968">
        <ele>213.55</ele>
        <time>2014-03-08T14:50:33Z</time>
      </trkpt>
      <trkpt lat="44.44518" lon="1.04992">
        <ele>214.03</ele>
        <time>2014-03-08T14:50:41Z</time>
      </trkpt>
      <trkpt lat="44.44511" lon="1.05002">
        <ele>214.03</ele>
        <time>2014-03-08T14:50:45Z</time>
      </trkpt>
      <trkpt lat="44.44491" lon="1.05036">
        <ele>213.55</ele>
        <time>2014-03-08T14:50:56Z</time>
      </trkpt>
      <trkpt lat="44.44482" lon="1.05052">
        <ele>214.99</ele>
        <time>2014-03-08T14:51:01Z</time>
      </trkpt>
      <trkpt lat="44.44457" lon="1.05094">
        <ele>217.4</ele>
        <time>2014-03-08T14:51:15Z</time>
      </trkpt>
      <trkpt lat="44.4444" lon="1.05122">
        <ele>218.36</ele>
        <time>2014-03-08T14:51:25Z</time>
      </trkpt>
      <trkpt lat="44.44418" lon="1.05129">
        <ele>219.32</ele>
        <time>2014-03-08T14:51:35Z</time>
      </trkpt>
      <trkpt lat="44.44388" lon="1.05144">
        <ele>220.28</ele>
        <time>2014-03-08T14:51:47Z</time>
      </trkpt>
      <trkpt lat="44.44355" lon="1.0516">
        <ele>221.72</ele>
        <time>2014-03-08T14:52:00Z</time>
      </trkpt>
      <trkpt lat="44.44326" lon="1.05174">
        <ele>223.16</ele>
        <time>2014-03-08T14:52:13Z</time>
      </trkpt>
      <trkpt lat="44.44319" lon="1.05178">
        <ele>223.16</ele>
        <time>2014-03-08T14:52:16Z</time>
      </trkpt>
      <trkpt lat="44.44309" lon="1.05182">
        <ele>223.64</ele>
        <time>2014-03-08T14:52:20Z</time>
      </trkpt>
      <trkpt lat="44.44287" lon="1.05197">
        <ele>225.57</ele>
        <time>2014-03-08T14:52:33Z</time>
      </trkpt>
      <trkpt lat="44.44283" lon="1.052">
        <ele>228.45</ele>
        <time>2014-03-08T14:52:55Z</time>
      </trkpt>
      <trkpt lat="44.44281" lon="1.05202">
        <ele>228.93</ele>
        <time>2014-03-08T14:53:34Z</time>
      </trkpt>
      <trkpt lat="44.44271" lon="1.05217">
        <ele>230.37</ele>
        <time>2014-03-08T14:53:48Z</time>
      </trkpt>
      <trkpt lat="44.44242" lon="1.05248">
        <ele>228.45</ele>
        <time>2014-03-08T14:54:00Z</time>
      </trkpt>
      <trkpt lat="44.44194" lon="1.05291">
        <ele>228.93</ele>
        <time>2014-03-08T14:54:15Z</time>
      </trkpt>
      <trkpt lat="44.44147" lon="1.05328">
        <ele>226.05</ele>
        <time>2014-03-08T14:54:28Z</time>
      </trkpt>
      <trkpt lat="44.44139" lon="1.05336">
        <ele>226.05</ele>
        <time>2014-03-08T14:54:30Z</time>
      </trkpt>
      <trkpt lat="44.44082" lon="1.05395">
        <ele>224.61</ele>
        <time>2014-03-08T14:54:44Z</time>
      </trkpt>
      <trkpt lat="44.4404" lon="1.05431">
        <ele>223.64</ele>
        <time>2014-03-08T14:54:54Z</time>
      </trkpt>
      <trkpt lat="44.43958" lon="1.05461">
        <ele>225.57</ele>
        <time>2014-03-08T14:55:11Z</time>
      </trkpt>
      <trkpt lat="44.43898" lon="1.0548">
        <ele>226.53</ele>
        <time>2014-03-08T14:55:26Z</time>
      </trkpt>
      <trkpt lat="44.43882" lon="1.05486">
        <ele>226.53</ele>
        <time>2014-03-08T14:55:30Z</time>
      </trkpt>
      <trkpt lat="44.43863" lon="1.05493">
        <ele>226.53</ele>
        <time>2014-03-08T14:55:35Z</time>
      </trkpt>
      <trkpt lat="44.43847" lon="1.055">
        <ele>227.01</ele>
        <time>2014-03-08T14:55:39Z</time>
      </trkpt>
      <trkpt lat="44.43809" lon="1.05546">
        <ele>229.89</ele>
        <time>2014-03-08T14:55:53Z</time>
      </trkpt>
      <trkpt lat="44.43787" lon="1.05598">
        <ele>231.81</ele>
        <time>2014-03-08T14:56:06Z</time>
      </trkpt>
      <trkpt lat="44.43773" lon="1.0562">
        <ele>232.78</ele>
        <time>2014-03-08T14:56:13Z</time>
      </trkpt>
      <trkpt lat="44.43762" lon="1.0563">
        <ele>232.78</ele>
        <time>2014-03-08T14:56:17Z</time>
      </trkpt>
      <trkpt lat="44.43721" lon="1.05673">
        <ele>233.74</ele>
        <time>2014-03-08T14:56:32Z</time>
      </trkpt>
      <trkpt lat="44.43691" lon="1.05709">
        <ele>234.22</ele>
        <time>2014-03-08T14:56:44Z</time>
      </trkpt>
      <trkpt lat="44.43682" lon="1.05717">
        <ele>234.22</ele>
        <time>2014-03-08T14:56:48Z</time>
      </trkpt>
      <trkpt lat="44.4365" lon="1.05749">
        <ele>236.62</ele>
        <time>2014-03-08T14:57:02Z</time>
      </trkpt>
      <trkpt lat="44.43604" lon="1.05797">
        <ele>239.02</ele>
        <time>2014-03-08T14:57:20Z</time>
      </trkpt>
      <trkpt lat="44.43564" lon="1.0584">
        <ele>240.95</ele>
        <time>2014-03-08T14:57:36Z</time>
      </trkpt>
      <trkpt lat="44.43522" lon="1.05878">
        <ele>241.91</ele>
        <time>2014-03-08T14:57:52Z</time>
      </trkpt>
      <trkpt lat="44.43483" lon="1.05916">
        <ele>242.87</ele>
        <time>2014-03-08T14:58:07Z</time>
      </trkpt>
      <trkpt lat="44.43454" lon="1.05948">
        <ele>242.87</ele>
        <time>2014-03-08T14:58:19Z</time>
      </trkpt>
      <trkpt lat="44.43422" lon="1.05979">
        <ele>245.27</ele>
        <time>2014-03-08T14:58:33Z</time>
      </trkpt>
      <trkpt lat="44.4342" lon="1.05981">
        <ele>245.27</ele>
        <time>2014-03-08T14:58:34Z</time>
      </trkpt>
      <trkpt lat="44.43406" lon="1.05992">
        <ele>246.72</ele>
        <time>2014-03-08T14:58:46Z</time>
      </trkpt>
      <trkpt lat="44.43406" lon="1.05992">
        <ele>246.23</ele>
        <time>2014-03-08T14:58:50Z</time>
      </trkpt>
      <trkpt lat="44.43394" lon="1.06">
        <ele>246.23</ele>
        <time>2014-03-08T14:59:02Z</time>
      </trkpt>
      <trkpt lat="44.43388" lon="1.06005">
        <ele>246.23</ele>
        <time>2014-03-08T14:59:07Z</time>
      </trkpt>
      <trkpt lat="44.43387" lon="1.06006">
        <ele>246.23</ele>
        <time>2014-03-08T14:59:08Z</time>
      </trkpt>
      <trkpt lat="44.43386" lon="1.06007">
        <ele>246.23</ele>
        <time>2014-03-08T14:59:09Z</time>
      </trkpt>
      <trkpt lat="44.43384" lon="1.06008">
        <ele>245.75</ele>
        <time>2014-03-08T14:59:10Z</time>
      </trkpt>
      <trkpt lat="44.43383" lon="1.06009">
        <ele>245.75</ele>
        <time>2014-03-08T14:59:11Z</time>
      </trkpt>
      <trkpt lat="44.43381" lon="1.0601">
        <ele>245.75</ele>
        <time>2014-03-08T14:59:12Z</time>
      </trkpt>
      <trkpt lat="44.43379" lon="1.06011">
        <ele>245.75</ele>
        <time>2014-03-08T14:59:13Z</time>
      </trkpt>
      <trkpt lat="44.43377" lon="1.06012">
        <ele>245.27</ele>
        <time>2014-03-08T14:59:14Z</time>
      </trkpt>
      <trkpt lat="44.43375" lon="1.06013">
        <ele>245.27</ele>
        <time>2014-03-08T14:59:15Z</time>
      </trkpt>
      <trkpt lat="44.43373" lon="1.06014">
        <ele>245.27</ele>
        <time>2014-03-08T14:59:16Z</time>
      </trkpt>
      <trkpt lat="44.43372" lon="1.06015">
        <ele>245.27</ele>
        <time>2014-03-08T14:59:17Z</time>
      </trkpt>
      <trkpt lat="44.43369" lon="1.06018">
        <ele>244.79</ele>
        <time>2014-03-08T14:59:19Z</time>
      </trkpt>
      <trkpt lat="44.43367" lon="1.06019">
        <ele>245.27</ele>
        <time>2014-03-08T14:59:20Z</time>
      </trkpt>
      <trkpt lat="44.43366" lon="1.0602">
        <ele>245.27</ele>
        <time>2014-03-08T14:59:21Z</time>
      </trkpt>
      <trkpt lat="44.43336" lon="1.0604">
        <ele>246.23</ele>
        <time>2014-03-08T14:59:32Z</time>
      </trkpt>
      <trkpt lat="44.433" lon="1.06073">
        <ele>246.23</ele>
        <time>2014-03-08T14:59:44Z</time>
      </trkpt>
      <trkpt lat="44.43269" lon="1.06104">
        <ele>248.16</ele>
        <time>2014-03-08T14:59:56Z</time>
      </trkpt>
      <trkpt lat="44.43234" lon="1.06135">
        <ele>250.56</ele>
        <time>2014-03-08T15:00:09Z</time>
      </trkpt>
      <trkpt lat="44.43192" lon="1.0617">
        <ele>252</ele>
        <time>2014-03-08T15:00:24Z</time>
      </trkpt>
      <trkpt lat="44.43162" lon="1.06192">
        <ele>251.52</ele>
        <time>2014-03-08T15:00:34Z</time>
      </trkpt>
      <trkpt lat="44.4312" lon="1.06226">
        <ele>251.04</ele>
        <time>2014-03-08T15:00:47Z</time>
      </trkpt>
      <trkpt lat="44.43099" lon="1.06243">
        <ele>249.6</ele>
        <time>2014-03-08T15:00:53Z</time>
      </trkpt>
      <trkpt lat="44.43052" lon="1.0628">
        <ele>247.2</ele>
        <time>2014-03-08T15:01:05Z</time>
      </trkpt>
      <trkpt lat="44.4301" lon="1.06315">
        <ele>248.64</ele>
        <time>2014-03-08T15:01:17Z</time>
      </trkpt>
      <trkpt lat="44.42972" lon="1.06357">
        <ele>249.12</ele>
        <time>2014-03-08T15:01:30Z</time>
      </trkpt>
      <trkpt lat="44.42949" lon="1.0639">
        <ele>252</ele>
        <time>2014-03-08T15:01:40Z</time>
      </trkpt>
      <trkpt lat="44.42923" lon="1.06429">
        <ele>253.93</ele>
        <time>2014-03-08T15:01:51Z</time>
      </trkpt>
      <trkpt lat="44.42897" lon="1.0647">
        <ele>255.37</ele>
        <time>2014-03-08T15:02:02Z</time>
      </trkpt>
      <trkpt lat="44.42877" lon="1.06515">
        <ele>256.81</ele>
        <time>2014-03-08T15:02:12Z</time>
      </trkpt>
      <trkpt lat="44.42854" lon="1.06578">
        <ele>257.29</ele>
        <time>2014-03-08T15:02:25Z</time>
      </trkpt>
      <trkpt lat="44.42842" lon="1.06608">
        <ele>256.81</ele>
        <time>2014-03-08T15:02:31Z</time>
      </trkpt>
      <trkpt lat="44.4281" lon="1.06674">
        <ele>260.65</ele>
        <time>2014-03-08T15:02:47Z</time>
      </trkpt>
      <trkpt lat="44.42785" lon="1.0672">
        <ele>264.5</ele>
        <time>2014-03-08T15:02:59Z</time>
      </trkpt>
      <trkpt lat="44.42784" lon="1.06727">
        <ele>264.5</ele>
        <time>2014-03-08T15:03:09Z</time>
      </trkpt>
      <trkpt lat="44.42784" lon="1.06728">
        <ele>263.06</ele>
        <time>2014-03-08T15:03:23Z</time>
      </trkpt>
      <trkpt lat="44.42787" lon="1.06731">
        <ele>261.62</ele>
        <time>2014-03-08T15:03:35Z</time>
      </trkpt>
      <trkpt lat="44.42787" lon="1.06734">
        <ele>260.65</ele>
        <time>2014-03-08T15:03:58Z</time>
      </trkpt>
      <trkpt lat="44.42786" lon="1.06734">
        <ele>261.14</ele>
        <time>2014-03-08T15:04:15Z</time>
      </trkpt>
      <trkpt lat="44.42786" lon="1.06733">
        <ele>262.1</ele>
        <time>2014-03-08T15:04:36Z</time>
      </trkpt>
      <trkpt lat="44.42786" lon="1.06734">
        <ele>262.1</ele>
        <time>2014-03-08T15:04:45Z</time>
      </trkpt>
      <trkpt lat="44.42799" lon="1.06753">
        <ele>264.02</ele>
        <time>2014-03-08T15:04:55Z</time>
      </trkpt>
      <trkpt lat="44.42816" lon="1.06787">
        <ele>266.42</ele>
        <time>2014-03-08T15:05:07Z</time>
      </trkpt>
      <trkpt lat="44.42837" lon="1.06824">
        <ele>267.86</ele>
        <time>2014-03-08T15:05:21Z</time>
      </trkpt>
      <trkpt lat="44.4284" lon="1.06837">
        <ele>267.38</ele>
        <time>2014-03-08T15:05:33Z</time>
      </trkpt>
      <trkpt lat="44.4284" lon="1.0684">
        <ele>266.9</ele>
        <time>2014-03-08T15:05:40Z</time>
      </trkpt>
      <trkpt lat="44.42841" lon="1.06862">
        <ele>268.83</ele>
        <time>2014-03-08T15:05:47Z</time>
      </trkpt>
      <trkpt lat="44.42847" lon="1.0691">
        <ele>269.79</ele>
        <time>2014-03-08T15:05:58Z</time>
      </trkpt>
      <trkpt lat="44.42854" lon="1.0697">
        <ele>271.23</ele>
        <time>2014-03-08T15:06:12Z</time>
      </trkpt>
      <trkpt lat="44.42858" lon="1.07025">
        <ele>272.67</ele>
        <time>2014-03-08T15:06:25Z</time>
      </trkpt>
      <trkpt lat="44.4286" lon="1.07078">
        <ele>272.19</ele>
        <time>2014-03-08T15:06:38Z</time>
      </trkpt>
      <trkpt lat="44.42862" lon="1.07094">
        <ele>271.23</ele>
        <time>2014-03-08T15:06:43Z</time>
      </trkpt>
      <trkpt lat="44.42863" lon="1.071">
        <ele>269.79</ele>
        <time>2014-03-08T15:06:57Z</time>
      </trkpt>
      <trkpt lat="44.42863" lon="1.071">
        <ele>269.31</ele>
        <time>2014-03-08T15:07:20Z</time>
      </trkpt>
      <trkpt lat="44.42864" lon="1.071">
        <ele>268.35</ele>
        <time>2014-03-08T15:07:44Z</time>
      </trkpt>
      <trkpt lat="44.42874" lon="1.07114">
        <ele>269.31</ele>
        <time>2014-03-08T15:07:50Z</time>
      </trkpt>
      <trkpt lat="44.42876" lon="1.07117">
        <ele>269.31</ele>
        <time>2014-03-08T15:07:51Z</time>
      </trkpt>
      <trkpt lat="44.42897" lon="1.07157">
        <ele>272.19</ele>
        <time>2014-03-08T15:08:02Z</time>
      </trkpt>
      <trkpt lat="44.42917" lon="1.07197">
        <ele>274.11</ele>
        <time>2014-03-08T15:08:14Z</time>
      </trkpt>
      <trkpt lat="44.42938" lon="1.07224">
        <ele>274.59</ele>
        <time>2014-03-08T15:08:26Z</time>
      </trkpt>
      <trkpt lat="44.42967" lon="1.07273">
        <ele>273.63</ele>
        <time>2014-03-08T15:08:40Z</time>
      </trkpt>
      <trkpt lat="44.43006" lon="1.07321">
        <ele>271.71</ele>
        <time>2014-03-08T15:08:55Z</time>
      </trkpt>
      <trkpt lat="44.43013" lon="1.07358">
        <ele>271.71</ele>
        <time>2014-03-08T15:09:04Z</time>
      </trkpt>
      <trkpt lat="44.43006" lon="1.07391">
        <ele>273.15</ele>
        <time>2014-03-08T15:09:14Z</time>
      </trkpt>
      <trkpt lat="44.43015" lon="1.07399">
        <ele>272.19</ele>
        <time>2014-03-08T15:09:20Z</time>
      </trkpt>
      <trkpt lat="44.43018" lon="1.07399">
        <ele>272.19</ele>
        <time>2014-03-08T15:09:21Z</time>
      </trkpt>
      <trkpt lat="44.43021" lon="1.074">
        <ele>272.19</ele>
        <time>2014-03-08T15:09:22Z</time>
      </trkpt>
      <trkpt lat="44.43066" lon="1.07414">
        <ele>270.75</ele>
        <time>2014-03-08T15:09:36Z</time>
      </trkpt>
      <trkpt lat="44.43119" lon="1.07435">
        <ele>271.23</ele>
        <time>2014-03-08T15:09:51Z</time>
      </trkpt>
      <trkpt lat="44.43142" lon="1.07445">
        <ele>270.75</ele>
        <time>2014-03-08T15:09:58Z</time>
      </trkpt>
      <trkpt lat="44.43144" lon="1.07448">
        <ele>270.75</ele>
        <time>2014-03-08T15:09:59Z</time>
      </trkpt>
      <trkpt lat="44.43146" lon="1.07452">
        <ele>270.75</ele>
        <time>2014-03-08T15:10:00Z</time>
      </trkpt>
      <trkpt lat="44.4314" lon="1.07503">
        <ele>271.71</ele>
        <time>2014-03-08T15:10:11Z</time>
      </trkpt>
      <trkpt lat="44.43139" lon="1.07565">
        <ele>271.23</ele>
        <time>2014-03-08T15:10:24Z</time>
      </trkpt>
      <trkpt lat="44.43139" lon="1.07641">
        <ele>269.31</ele>
        <time>2014-03-08T15:10:34Z</time>
      </trkpt>
      <trkpt lat="44.4314" lon="1.07662">
        <ele>268.83</ele>
        <time>2014-03-08T15:10:36Z</time>
      </trkpt>
      <trkpt lat="44.43141" lon="1.07673">
        <ele>268.35</ele>
        <time>2014-03-08T15:10:37Z</time>
      </trkpt>
      <trkpt lat="44.43181" lon="1.0781">
        <ele>264.98</ele>
        <time>2014-03-08T15:10:51Z</time>
      </trkpt>
      <trkpt lat="44.43246" lon="1.07933">
        <ele>257.29</ele>
        <time>2014-03-08T15:11:05Z</time>
      </trkpt>
      <trkpt lat="44.4326" lon="1.07967">
        <ele>254.89</ele>
        <time>2014-03-08T15:11:08Z</time>
      </trkpt>
      <trkpt lat="44.43273" lon="1.08031">
        <ele>250.56</ele>
        <time>2014-03-08T15:11:14Z</time>
      </trkpt>
      <trkpt lat="44.43282" lon="1.08059">
        <ele>248.16</ele>
        <time>2014-03-08T15:11:19Z</time>
      </trkpt>
      <trkpt lat="44.43279" lon="1.08071">
        <ele>246.72</ele>
        <time>2014-03-08T15:11:23Z</time>
      </trkpt>
      <trkpt lat="44.43237" lon="1.08138">
        <ele>242.87</ele>
        <time>2014-03-08T15:11:35Z</time>
      </trkpt>
      <trkpt lat="44.43221" lon="1.08161">
        <ele>243.35</ele>
        <time>2014-03-08T15:11:40Z</time>
      </trkpt>
      <trkpt lat="44.43203" lon="1.08177">
        <ele>244.31</ele>
        <time>2014-03-08T15:11:45Z</time>
      </trkpt>
      <trkpt lat="44.43157" lon="1.08233">
        <ele>249.6</ele>
        <time>2014-03-08T15:12:00Z</time>
      </trkpt>
      <trkpt lat="44.43109" lon="1.08296">
        <ele>255.37</ele>
        <time>2014-03-08T15:12:16Z</time>
      </trkpt>
      <trkpt lat="44.43072" lon="1.08353">
        <ele>259.69</ele>
        <time>2014-03-08T15:12:31Z</time>
      </trkpt>
      <trkpt lat="44.43051" lon="1.0838">
        <ele>260.17</ele>
        <time>2014-03-08T15:12:40Z</time>
      </trkpt>
      <trkpt lat="44.43025" lon="1.08389">
        <ele>259.21</ele>
        <time>2014-03-08T15:12:53Z</time>
      </trkpt>
      <trkpt lat="44.42979" lon="1.08412">
        <ele>258.25</ele>
        <time>2014-03-08T15:13:07Z</time>
      </trkpt>
      <trkpt lat="44.42967" lon="1.08422">
        <ele>258.25</ele>
        <time>2014-03-08T15:13:14Z</time>
      </trkpt>
      <trkpt lat="44.42967" lon="1.08423">
        <ele>258.25</ele>
        <time>2014-03-08T15:13:24Z</time>
      </trkpt>
      <trkpt lat="44.42967" lon="1.08423">
        <ele>257.77</ele>
        <time>2014-03-08T15:13:43Z</time>
      </trkpt>
      <trkpt lat="44.42967" lon="1.08422">
        <ele>257.77</ele>
        <time>2014-03-08T15:14:08Z</time>
      </trkpt>
      <trkpt lat="44.42967" lon="1.08422">
        <ele>257.77</ele>
        <time>2014-03-08T15:14:40Z</time>
      </trkpt>
      <trkpt lat="44.42967" lon="1.08423">
        <ele>258.25</ele>
        <time>2014-03-08T15:15:03Z</time>
      </trkpt>
      <trkpt lat="44.42965" lon="1.08427">
        <ele>258.25</ele>
        <time>2014-03-08T15:15:35Z</time>
      </trkpt>
      <trkpt lat="44.42965" lon="1.08429">
        <ele>257.77</ele>
        <time>2014-03-08T15:15:36Z</time>
      </trkpt>
      <trkpt lat="44.42964" lon="1.08431">
        <ele>257.77</ele>
        <time>2014-03-08T15:15:37Z</time>
      </trkpt>
      <trkpt lat="44.42964" lon="1.08435">
        <ele>257.77</ele>
        <time>2014-03-08T15:15:38Z</time>
      </trkpt>
      <trkpt lat="44.42964" lon="1.08439">
        <ele>257.29</ele>
        <time>2014-03-08T15:15:39Z</time>
      </trkpt>
      <trkpt lat="44.42965" lon="1.08444">
        <ele>257.29</ele>
        <time>2014-03-08T15:15:40Z</time>
      </trkpt>
      <trkpt lat="44.42966" lon="1.08449">
        <ele>257.29</ele>
        <time>2014-03-08T15:15:41Z</time>
      </trkpt>
      <trkpt lat="44.42967" lon="1.08454">
        <ele>256.81</ele>
        <time>2014-03-08T15:15:42Z</time>
      </trkpt>
      <trkpt lat="44.42981" lon="1.08515">
        <ele>254.41</ele>
        <time>2014-03-08T15:15:50Z</time>
      </trkpt>
      <trkpt lat="44.42982" lon="1.08525">
        <ele>253.93</ele>
        <time>2014-03-08T15:15:51Z</time>
      </trkpt>
      <trkpt lat="44.42978" lon="1.08652">
        <ele>246.23</ele>
        <time>2014-03-08T15:16:02Z</time>
      </trkpt>
      <trkpt lat="44.42976" lon="1.08772">
        <ele>240.95</ele>
        <time>2014-03-08T15:16:13Z</time>
      </trkpt>
      <trkpt lat="44.42977" lon="1.0878">
        <ele>240.95</ele>
        <time>2014-03-08T15:16:14Z</time>
      </trkpt>
      <trkpt lat="44.42978" lon="1.08788">
        <ele>240.95</ele>
        <time>2014-03-08T15:16:15Z</time>
      </trkpt>
      <trkpt lat="44.42977" lon="1.08794">
        <ele>240.95</ele>
        <time>2014-03-08T15:16:16Z</time>
      </trkpt>
      <trkpt lat="44.42976" lon="1.08797">
        <ele>241.43</ele>
        <time>2014-03-08T15:16:17Z</time>
      </trkpt>
      <trkpt lat="44.42973" lon="1.08799">
        <ele>241.43</ele>
        <time>2014-03-08T15:16:18Z</time>
      </trkpt>
      <trkpt lat="44.4297" lon="1.08801">
        <ele>241.91</ele>
        <time>2014-03-08T15:16:19Z</time>
      </trkpt>
      <trkpt lat="44.42935" lon="1.08815">
        <ele>241.43</ele>
        <time>2014-03-08T15:16:30Z</time>
      </trkpt>
      <trkpt lat="44.42908" lon="1.08839">
        <ele>241.91</ele>
        <time>2014-03-08T15:16:41Z</time>
      </trkpt>
      <trkpt lat="44.42886" lon="1.08872">
        <ele>243.35</ele>
        <time>2014-03-08T15:16:53Z</time>
      </trkpt>
      <trkpt lat="44.42855" lon="1.08919">
        <ele>242.87</ele>
        <time>2014-03-08T15:17:07Z</time>
      </trkpt>
      <trkpt lat="44.42822" lon="1.0894">
        <ele>243.35</ele>
        <time>2014-03-08T15:17:18Z</time>
      </trkpt>
      <trkpt lat="44.42783" lon="1.0895">
        <ele>242.39</ele>
        <time>2014-03-08T15:17:30Z</time>
      </trkpt>
      <trkpt lat="44.42743" lon="1.08963">
        <ele>243.35</ele>
        <time>2014-03-08T15:17:43Z</time>
      </trkpt>
      <trkpt lat="44.42681" lon="1.09001">
        <ele>243.83</ele>
        <time>2014-03-08T15:18:02Z</time>
      </trkpt>
      <trkpt lat="44.42651" lon="1.09042">
        <ele>245.75</ele>
        <time>2014-03-08T15:18:15Z</time>
      </trkpt>
      <trkpt lat="44.42609" lon="1.0909">
        <ele>246.72</ele>
        <time>2014-03-08T15:18:31Z</time>
      </trkpt>
      <trkpt lat="44.42578" lon="1.09114">
        <ele>246.23</ele>
        <time>2014-03-08T15:18:43Z</time>
      </trkpt>
      <trkpt lat="44.42552" lon="1.09145">
        <ele>246.23</ele>
        <time>2014-03-08T15:18:55Z</time>
      </trkpt>
      <trkpt lat="44.42531" lon="1.09185">
        <ele>247.68</ele>
        <time>2014-03-08T15:19:07Z</time>
      </trkpt>
      <trkpt lat="44.42503" lon="1.09233">
        <ele>248.64</ele>
        <time>2014-03-08T15:19:21Z</time>
      </trkpt>
      <trkpt lat="44.42469" lon="1.09278">
        <ele>249.12</ele>
        <time>2014-03-08T15:19:36Z</time>
      </trkpt>
      <trkpt lat="44.42412" lon="1.09319">
        <ele>248.64</ele>
        <time>2014-03-08T15:19:54Z</time>
      </trkpt>
      <trkpt lat="44.42375" lon="1.09336">
        <ele>248.16</ele>
        <time>2014-03-08T15:20:06Z</time>
      </trkpt>
      <trkpt lat="44.42344" lon="1.09357">
        <ele>248.16</ele>
        <time>2014-03-08T15:20:17Z</time>
      </trkpt>
      <trkpt lat="44.42299" lon="1.09388">
        <ele>248.64</ele>
        <time>2014-03-08T15:20:32Z</time>
      </trkpt>
      <trkpt lat="44.42295" lon="1.0939">
        <ele>249.12</ele>
        <time>2014-03-08T15:20:34Z</time>
      </trkpt>
      <trkpt lat="44.42299" lon="1.09402">
        <ele>249.12</ele>
        <time>2014-03-08T15:20:44Z</time>
      </trkpt>
      <trkpt lat="44.42321" lon="1.09425">
        <ele>249.12</ele>
        <time>2014-03-08T15:20:55Z</time>
      </trkpt>
      <trkpt lat="44.42356" lon="1.09465">
        <ele>248.64</ele>
        <time>2014-03-08T15:21:10Z</time>
      </trkpt>
      <trkpt lat="44.42387" lon="1.09498">
        <ele>250.56</ele>
        <time>2014-03-08T15:21:23Z</time>
      </trkpt>
      <trkpt lat="44.42419" lon="1.09524">
        <ele>252.96</ele>
        <time>2014-03-08T15:21:36Z</time>
      </trkpt>
      <trkpt lat="44.42443" lon="1.09545">
        <ele>255.37</ele>
        <time>2014-03-08T15:21:46Z</time>
      </trkpt>
      <trkpt lat="44.42475" lon="1.09579">
        <ele>258.25</ele>
        <time>2014-03-08T15:21:59Z</time>
      </trkpt>
      <trkpt lat="44.42485" lon="1.096">
        <ele>261.14</ele>
        <time>2014-03-08T15:22:06Z</time>
      </trkpt>
      <trkpt lat="44.4249" lon="1.09615">
        <ele>261.14</ele>
        <time>2014-03-08T15:22:12Z</time>
      </trkpt>
      <trkpt lat="44.42493" lon="1.09626">
        <ele>261.62</ele>
        <time>2014-03-08T15:22:23Z</time>
      </trkpt>
      <trkpt lat="44.42493" lon="1.09627">
        <ele>261.14</ele>
        <time>2014-03-08T15:22:41Z</time>
      </trkpt>
      <trkpt lat="44.42493" lon="1.09628">
        <ele>262.58</ele>
        <time>2014-03-08T15:23:08Z</time>
      </trkpt>
      <trkpt lat="44.42493" lon="1.09627">
        <ele>262.1</ele>
        <time>2014-03-08T15:23:35Z</time>
      </trkpt>
      <trkpt lat="44.42493" lon="1.09628">
        <ele>262.1</ele>
        <time>2014-03-08T15:23:57Z</time>
      </trkpt>
      <trkpt lat="44.42518" lon="1.0967">
        <ele>258.25</ele>
        <time>2014-03-08T15:24:11Z</time>
      </trkpt>
      <trkpt lat="44.4255" lon="1.09726">
        <ele>256.33</ele>
        <time>2014-03-08T15:24:23Z</time>
      </trkpt>
      <trkpt lat="44.42584" lon="1.09778">
        <ele>256.33</ele>
        <time>2014-03-08T15:24:36Z</time>
      </trkpt>
      <trkpt lat="44.42629" lon="1.09849">
        <ele>255.85</ele>
        <time>2014-03-08T15:24:53Z</time>
      </trkpt>
      <trkpt lat="44.42675" lon="1.09932">
        <ele>256.33</ele>
        <time>2014-03-08T15:25:11Z</time>
      </trkpt>
      <trkpt lat="44.427" lon="1.09984">
        <ele>257.77</ele>
        <time>2014-03-08T15:25:23Z</time>
      </trkpt>
      <trkpt lat="44.42731" lon="1.10055">
        <ele>257.77</ele>
        <time>2014-03-08T15:25:41Z</time>
      </trkpt>
      <trkpt lat="44.42758" lon="1.10103">
        <ele>254.89</ele>
        <time>2014-03-08T15:25:51Z</time>
      </trkpt>
      <trkpt lat="44.42766" lon="1.10111">
        <ele>254.41</ele>
        <time>2014-03-08T15:25:53Z</time>
      </trkpt>
      <trkpt lat="44.42821" lon="1.10135">
        <ele>252.48</ele>
        <time>2014-03-08T15:26:05Z</time>
      </trkpt>
      <trkpt lat="44.42852" lon="1.10164">
        <ele>251.04</ele>
        <time>2014-03-08T15:26:13Z</time>
      </trkpt>
      <trkpt lat="44.4286" lon="1.10177">
        <ele>251.04</ele>
        <time>2014-03-08T15:26:16Z</time>
      </trkpt>
      <trkpt lat="44.42867" lon="1.10211">
        <ele>250.08</ele>
        <time>2014-03-08T15:26:22Z</time>
      </trkpt>
      <trkpt lat="44.42867" lon="1.10288">
        <ele>250.56</ele>
        <time>2014-03-08T15:26:37Z</time>
      </trkpt>
      <trkpt lat="44.42873" lon="1.10317">
        <ele>252</ele>
        <time>2014-03-08T15:26:47Z</time>
      </trkpt>
      <trkpt lat="44.42875" lon="1.10317">
        <ele>252</ele>
        <time>2014-03-08T15:26:59Z</time>
      </trkpt>
      <trkpt lat="44.42875" lon="1.10316">
        <ele>252</ele>
        <time>2014-03-08T15:27:17Z</time>
      </trkpt>
      <trkpt lat="44.42875" lon="1.10316">
        <ele>252</ele>
        <time>2014-03-08T15:27:38Z</time>
      </trkpt>
      <trkpt lat="44.42875" lon="1.10316">
        <ele>252.48</ele>
        <time>2014-03-08T15:28:05Z</time>
      </trkpt>
      <trkpt lat="44.42885" lon="1.10331">
        <ele>252.48</ele>
        <time>2014-03-08T15:28:17Z</time>
      </trkpt>
      <trkpt lat="44.42934" lon="1.10383">
        <ele>250.08</ele>
        <time>2014-03-08T15:28:30Z</time>
      </trkpt>
      <trkpt lat="44.42943" lon="1.1039">
        <ele>250.08</ele>
        <time>2014-03-08T15:28:32Z</time>
      </trkpt>
      <trkpt lat="44.42958" lon="1.10398">
        <ele>249.6</ele>
        <time>2014-03-08T15:28:35Z</time>
      </trkpt>
      <trkpt lat="44.42964" lon="1.104">
        <ele>249.12</ele>
        <time>2014-03-08T15:28:36Z</time>
      </trkpt>
      <trkpt lat="44.42969" lon="1.10402">
        <ele>249.12</ele>
        <time>2014-03-08T15:28:37Z</time>
      </trkpt>
      <trkpt lat="44.42975" lon="1.10403">
        <ele>249.12</ele>
        <time>2014-03-08T15:28:38Z</time>
      </trkpt>
      <trkpt lat="44.42981" lon="1.10404">
        <ele>248.64</ele>
        <time>2014-03-08T15:28:39Z</time>
      </trkpt>
      <trkpt lat="44.43019" lon="1.10403">
        <ele>247.68</ele>
        <time>2014-03-08T15:28:45Z</time>
      </trkpt>
      <trkpt lat="44.43032" lon="1.10403">
        <ele>247.2</ele>
        <time>2014-03-08T15:28:47Z</time>
      </trkpt>
      <trkpt lat="44.43038" lon="1.10402">
        <ele>247.68</ele>
        <time>2014-03-08T15:28:48Z</time>
      </trkpt>
      <trkpt lat="44.43071" lon="1.10402">
        <ele>247.2</ele>
        <time>2014-03-08T15:28:54Z</time>
      </trkpt>
      <trkpt lat="44.43076" lon="1.10402">
        <ele>247.2</ele>
        <time>2014-03-08T15:28:55Z</time>
      </trkpt>
      <trkpt lat="44.43151" lon="1.10401">
        <ele>248.64</ele>
        <time>2014-03-08T15:29:11Z</time>
      </trkpt>
      <trkpt lat="44.4316" lon="1.10401">
        <ele>248.64</ele>
        <time>2014-03-08T15:29:13Z</time>
      </trkpt>
      <trkpt lat="44.43208" lon="1.10398">
        <ele>250.56</ele>
        <time>2014-03-08T15:29:24Z</time>
      </trkpt>
      <trkpt lat="44.43278" lon="1.10397">
        <ele>252.96</ele>
        <time>2014-03-08T15:29:40Z</time>
      </trkpt>
      <trkpt lat="44.43286" lon="1.10397">
        <ele>252.96</ele>
        <time>2014-03-08T15:29:42Z</time>
      </trkpt>
      <trkpt lat="44.43303" lon="1.10394">
        <ele>253.93</ele>
        <time>2014-03-08T15:29:46Z</time>
      </trkpt>
      <trkpt lat="44.43308" lon="1.10392">
        <ele>253.93</ele>
        <time>2014-03-08T15:29:47Z</time>
      </trkpt>
      <trkpt lat="44.43312" lon="1.10391">
        <ele>254.41</ele>
        <time>2014-03-08T15:29:48Z</time>
      </trkpt>
      <trkpt lat="44.43316" lon="1.10389">
        <ele>254.41</ele>
        <time>2014-03-08T15:29:49Z</time>
      </trkpt>
      <trkpt lat="44.4332" lon="1.10387">
        <ele>254.89</ele>
        <time>2014-03-08T15:29:50Z</time>
      </trkpt>
      <trkpt lat="44.4337" lon="1.10359">
        <ele>256.33</ele>
        <time>2014-03-08T15:30:03Z</time>
      </trkpt>
      <trkpt lat="44.43379" lon="1.10363">
        <ele>256.33</ele>
        <time>2014-03-08T15:30:12Z</time>
      </trkpt>
      <trkpt lat="44.43379" lon="1.10363">
        <ele>256.33</ele>
        <time>2014-03-08T15:30:14Z</time>
      </trkpt>
      <trkpt lat="44.43378" lon="1.10366">
        <ele>256.33</ele>
        <time>2014-03-08T15:30:15Z</time>
      </trkpt>
      <trkpt lat="44.43377" lon="1.1037">
        <ele>256.33</ele>
        <time>2014-03-08T15:30:16Z</time>
      </trkpt>
      <trkpt lat="44.43361" lon="1.10451">
        <ele>255.37</ele>
        <time>2014-03-08T15:30:31Z</time>
      </trkpt>
      <trkpt lat="44.43359" lon="1.10463">
        <ele>254.89</ele>
        <time>2014-03-08T15:30:33Z</time>
      </trkpt>
      <trkpt lat="44.43357" lon="1.1047">
        <ele>254.89</ele>
        <time>2014-03-08T15:30:34Z</time>
      </trkpt>
      <trkpt lat="44.43356" lon="1.10476">
        <ele>254.89</ele>
        <time>2014-03-08T15:30:35Z</time>
      </trkpt>
      <trkpt lat="44.43344" lon="1.10541">
        <ele>253.93</ele>
        <time>2014-03-08T15:30:47Z</time>
      </trkpt>
      <trkpt lat="44.43345" lon="1.10554">
        <ele>253.44</ele>
        <time>2014-03-08T15:30:51Z</time>
      </trkpt>
      <trkpt lat="44.43347" lon="1.10559">
        <ele>253.44</ele>
        <time>2014-03-08T15:30:52Z</time>
      </trkpt>
      <trkpt lat="44.4335" lon="1.10564">
        <ele>252.96</ele>
        <time>2014-03-08T15:30:53Z</time>
      </trkpt>
      <trkpt lat="44.43352" lon="1.1057">
        <ele>252.96</ele>
        <time>2014-03-08T15:30:54Z</time>
      </trkpt>
      <trkpt lat="44.43355" lon="1.10575">
        <ele>252.48</ele>
        <time>2014-03-08T15:30:55Z</time>
      </trkpt>
      <trkpt lat="44.43362" lon="1.10591">
        <ele>251.52</ele>
        <time>2014-03-08T15:30:58Z</time>
      </trkpt>
      <trkpt lat="44.43393" lon="1.10647">
        <ele>250.08</ele>
        <time>2014-03-08T15:31:10Z</time>
      </trkpt>
      <trkpt lat="44.43395" lon="1.1065">
        <ele>250.08</ele>
        <time>2014-03-08T15:31:11Z</time>
      </trkpt>
      <trkpt lat="44.43397" lon="1.10655">
        <ele>250.56</ele>
        <time>2014-03-08T15:31:23Z</time>
      </trkpt>
      <trkpt lat="44.43397" lon="1.10656">
        <ele>251.04</ele>
        <time>2014-03-08T15:31:24Z</time>
      </trkpt>
      <trkpt lat="44.43396" lon="1.1066">
        <ele>251.04</ele>
        <time>2014-03-08T15:31:26Z</time>
      </trkpt>
      <trkpt lat="44.43397" lon="1.1066">
        <ele>250.56</ele>
        <time>2014-03-08T15:31:39Z</time>
      </trkpt>
      <trkpt lat="44.43397" lon="1.10659">
        <ele>250.56</ele>
        <time>2014-03-08T15:31:59Z</time>
      </trkpt>
      <trkpt lat="44.43397" lon="1.10659">
        <ele>250.56</ele>
        <time>2014-03-08T15:32:03Z</time>
      </trkpt>
      <trkpt lat="44.43391" lon="1.10637">
        <ele>251.52</ele>
        <time>2014-03-08T15:32:10Z</time>
      </trkpt>
      <trkpt lat="44.43391" lon="1.10633">
        <ele>251.52</ele>
        <time>2014-03-08T15:32:11Z</time>
      </trkpt>
      <trkpt lat="44.43389" lon="1.10629">
        <ele>251.52</ele>
        <time>2014-03-08T15:32:12Z</time>
      </trkpt>
      <trkpt lat="44.43388" lon="1.10625">
        <ele>252</ele>
        <time>2014-03-08T15:32:13Z</time>
      </trkpt>
      <trkpt lat="44.43387" lon="1.10621">
        <ele>251.52</ele>
        <time>2014-03-08T15:32:14Z</time>
      </trkpt>
      <trkpt lat="44.43388" lon="1.10618">
        <ele>252</ele>
        <time>2014-03-08T15:32:15Z</time>
      </trkpt>
      <trkpt lat="44.4339" lon="1.10615">
        <ele>252</ele>
        <time>2014-03-08T15:32:16Z</time>
      </trkpt>
      <trkpt lat="44.43392" lon="1.10612">
        <ele>252</ele>
        <time>2014-03-08T15:32:17Z</time>
      </trkpt>
      <trkpt lat="44.43395" lon="1.1061">
        <ele>252.48</ele>
        <time>2014-03-08T15:32:18Z</time>
      </trkpt>
      <trkpt lat="44.43429" lon="1.10576">
        <ele>256.33</ele>
        <time>2014-03-08T15:32:32Z</time>
      </trkpt>
      <trkpt lat="44.43441" lon="1.10559">
        <ele>256.33</ele>
        <time>2014-03-08T15:32:38Z</time>
      </trkpt>
      <trkpt lat="44.43434" lon="1.10553">
        <ele>254.89</ele>
        <time>2014-03-08T15:32:41Z</time>
      </trkpt>
      <trkpt lat="44.43431" lon="1.10552">
        <ele>254.41</ele>
        <time>2014-03-08T15:32:42Z</time>
      </trkpt>
      <trkpt lat="44.43428" lon="1.10552">
        <ele>254.41</ele>
        <time>2014-03-08T15:32:43Z</time>
      </trkpt>
      <trkpt lat="44.43398" lon="1.10549">
        <ele>252.48</ele>
        <time>2014-03-08T15:32:53Z</time>
      </trkpt>
      <trkpt lat="44.43395" lon="1.10549">
        <ele>252.48</ele>
        <time>2014-03-08T15:32:54Z</time>
      </trkpt>
      <trkpt lat="44.43389" lon="1.10543">
        <ele>253.93</ele>
        <time>2014-03-08T15:33:02Z</time>
      </trkpt>
      <trkpt lat="44.43392" lon="1.1054">
        <ele>253.93</ele>
        <time>2014-03-08T15:33:04Z</time>
      </trkpt>
      <trkpt lat="44.43397" lon="1.10535">
        <ele>253.44</ele>
        <time>2014-03-08T15:33:14Z</time>
      </trkpt>
      <trkpt lat="44.43397" lon="1.10535">
        <ele>253.44</ele>
        <time>2014-03-08T15:33:21Z</time>
      </trkpt>
      <trkpt lat="44.43391" lon="1.10545">
        <ele>252.48</ele>
        <time>2014-03-08T15:33:31Z</time>
      </trkpt>
      <trkpt lat="44.43398" lon="1.10549">
        <ele>251.52</ele>
        <time>2014-03-08T15:33:36Z</time>
      </trkpt>
      <trkpt lat="44.43434" lon="1.10554">
        <ele>253.93</ele>
        <time>2014-03-08T15:33:48Z</time>
      </trkpt>
      <trkpt lat="44.43445" lon="1.10559">
        <ele>254.41</ele>
        <time>2014-03-08T15:33:52Z</time>
      </trkpt>
      <trkpt lat="44.43447" lon="1.10557">
        <ele>254.41</ele>
        <time>2014-03-08T15:33:53Z</time>
      </trkpt>
      <trkpt lat="44.43481" lon="1.10517">
        <ele>255.37</ele>
        <time>2014-03-08T15:34:06Z</time>
      </trkpt>
      <trkpt lat="44.43525" lon="1.10466">
        <ele>255.85</ele>
        <time>2014-03-08T15:34:21Z</time>
      </trkpt>
      <trkpt lat="44.43555" lon="1.10445">
        <ele>256.33</ele>
        <time>2014-03-08T15:34:33Z</time>
      </trkpt>
      <trkpt lat="44.43573" lon="1.10454">
        <ele>256.33</ele>
        <time>2014-03-08T15:34:38Z</time>
      </trkpt>
      <trkpt lat="44.43576" lon="1.10453">
        <ele>255.85</ele>
        <time>2014-03-08T15:34:39Z</time>
      </trkpt>
      <trkpt lat="44.4358" lon="1.10452">
        <ele>255.85</ele>
        <time>2014-03-08T15:34:40Z</time>
      </trkpt>
      <trkpt lat="44.43584" lon="1.10449">
        <ele>255.85</ele>
        <time>2014-03-08T15:34:41Z</time>
      </trkpt>
      <trkpt lat="44.43588" lon="1.10447">
        <ele>255.85</ele>
        <time>2014-03-08T15:34:42Z</time>
      </trkpt>
      <trkpt lat="44.43608" lon="1.10428">
        <ele>254.89</ele>
        <time>2014-03-08T15:34:47Z</time>
      </trkpt>
      <trkpt lat="44.43679" lon="1.10369">
        <ele>252.96</ele>
        <time>2014-03-08T15:35:01Z</time>
      </trkpt>
      <trkpt lat="44.43685" lon="1.10365">
        <ele>252.48</ele>
        <time>2014-03-08T15:35:02Z</time>
      </trkpt>
      <trkpt lat="44.43771" lon="1.1033">
        <ele>248.16</ele>
        <time>2014-03-08T15:35:13Z</time>
      </trkpt>
      <trkpt lat="44.43788" lon="1.10322">
        <ele>246.72</ele>
        <time>2014-03-08T15:35:15Z</time>
      </trkpt>
      <trkpt lat="44.43796" lon="1.10316">
        <ele>246.72</ele>
        <time>2014-03-08T15:35:16Z</time>
      </trkpt>
      <trkpt lat="44.43832" lon="1.10282">
        <ele>246.72</ele>
        <time>2014-03-08T15:35:22Z</time>
      </trkpt>
      <trkpt lat="44.43836" lon="1.10279">
        <ele>246.72</ele>
        <time>2014-03-08T15:35:23Z</time>
      </trkpt>
      <trkpt lat="44.43842" lon="1.10275">
        <ele>246.72</ele>
        <time>2014-03-08T15:35:25Z</time>
      </trkpt>
      <trkpt lat="44.43843" lon="1.10273">
        <ele>247.2</ele>
        <time>2014-03-08T15:35:26Z</time>
      </trkpt>
      <trkpt lat="44.43841" lon="1.10271">
        <ele>247.2</ele>
        <time>2014-03-08T15:35:27Z</time>
      </trkpt>
      <trkpt lat="44.43839" lon="1.10272">
        <ele>247.2</ele>
        <time>2014-03-08T15:35:28Z</time>
      </trkpt>
      <trkpt lat="44.43837" lon="1.10274">
        <ele>247.68</ele>
        <time>2014-03-08T15:35:29Z</time>
      </trkpt>
      <trkpt lat="44.43834" lon="1.10277">
        <ele>247.68</ele>
        <time>2014-03-08T15:35:30Z</time>
      </trkpt>
      <trkpt lat="44.43826" lon="1.10284">
        <ele>247.2</ele>
        <time>2014-03-08T15:35:33Z</time>
      </trkpt>
      <trkpt lat="44.43824" lon="1.10284">
        <ele>247.2</ele>
        <time>2014-03-08T15:35:34Z</time>
      </trkpt>
      <trkpt lat="44.43823" lon="1.10281">
        <ele>246.72</ele>
        <time>2014-03-08T15:35:35Z</time>
      </trkpt>
      <trkpt lat="44.43824" lon="1.10277">
        <ele>246.23</ele>
        <time>2014-03-08T15:35:36Z</time>
      </trkpt>
      <trkpt lat="44.43825" lon="1.10273">
        <ele>245.75</ele>
        <time>2014-03-08T15:35:37Z</time>
      </trkpt>
      <trkpt lat="44.43827" lon="1.10269">
        <ele>245.75</ele>
        <time>2014-03-08T15:35:38Z</time>
      </trkpt>
      <trkpt lat="44.43829" lon="1.10265">
        <ele>245.75</ele>
        <time>2014-03-08T15:35:39Z</time>
      </trkpt>
      <trkpt lat="44.43862" lon="1.10221">
        <ele>244.79</ele>
        <time>2014-03-08T15:35:52Z</time>
      </trkpt>
      <trkpt lat="44.43895" lon="1.10188">
        <ele>246.72</ele>
        <time>2014-03-08T15:36:03Z</time>
      </trkpt>
      <trkpt lat="44.4393" lon="1.1015">
        <ele>245.75</ele>
        <time>2014-03-08T15:36:12Z</time>
      </trkpt>
      <trkpt lat="44.43979" lon="1.10108">
        <ele>244.79</ele>
        <time>2014-03-08T15:36:24Z</time>
      </trkpt>
      <trkpt lat="44.44" lon="1.10083">
        <ele>244.79</ele>
        <time>2014-03-08T15:36:30Z</time>
      </trkpt>
      <trkpt lat="44.44003" lon="1.10077">
        <ele>244.79</ele>
        <time>2014-03-08T15:36:31Z</time>
      </trkpt>
      <trkpt lat="44.44006" lon="1.1007">
        <ele>244.31</ele>
        <time>2014-03-08T15:36:32Z</time>
      </trkpt>
      <trkpt lat="44.44035" lon="1.09981">
        <ele>239.99</ele>
        <time>2014-03-08T15:36:42Z</time>
      </trkpt>
      <trkpt lat="44.44045" lon="1.09957">
        <ele>239.02</ele>
        <time>2014-03-08T15:36:45Z</time>
      </trkpt>
      <trkpt lat="44.44081" lon="1.09897">
        <ele>239.02</ele>
        <time>2014-03-08T15:36:55Z</time>
      </trkpt>
      <trkpt lat="44.44085" lon="1.09891">
        <ele>239.02</ele>
        <time>2014-03-08T15:36:56Z</time>
      </trkpt>
      <trkpt lat="44.44088" lon="1.09886">
        <ele>239.02</ele>
        <time>2014-03-08T15:36:57Z</time>
      </trkpt>
      <trkpt lat="44.44098" lon="1.09869">
        <ele>239.51</ele>
        <time>2014-03-08T15:37:00Z</time>
      </trkpt>
      <trkpt lat="44.44102" lon="1.09862">
        <ele>239.02</ele>
        <time>2014-03-08T15:37:01Z</time>
      </trkpt>
      <trkpt lat="44.44105" lon="1.09856">
        <ele>239.02</ele>
        <time>2014-03-08T15:37:02Z</time>
      </trkpt>
      <trkpt lat="44.44112" lon="1.09843">
        <ele>238.06</ele>
        <time>2014-03-08T15:37:04Z</time>
      </trkpt>
      <trkpt lat="44.44134" lon="1.09794">
        <ele>236.62</ele>
        <time>2014-03-08T15:37:11Z</time>
      </trkpt>
      <trkpt lat="44.44138" lon="1.09788">
        <ele>236.14</ele>
        <time>2014-03-08T15:37:12Z</time>
      </trkpt>
      <trkpt lat="44.44142" lon="1.09783">
        <ele>236.14</ele>
        <time>2014-03-08T15:37:13Z</time>
      </trkpt>
      <trkpt lat="44.44146" lon="1.09779">
        <ele>236.14</ele>
        <time>2014-03-08T15:37:14Z</time>
      </trkpt>
      <trkpt lat="44.44152" lon="1.09775">
        <ele>235.66</ele>
        <time>2014-03-08T15:37:15Z</time>
      </trkpt>
      <trkpt lat="44.44157" lon="1.09771">
        <ele>235.66</ele>
        <time>2014-03-08T15:37:16Z</time>
      </trkpt>
      <trkpt lat="44.44162" lon="1.09767">
        <ele>235.66</ele>
        <time>2014-03-08T15:37:17Z</time>
      </trkpt>
      <trkpt lat="44.44167" lon="1.09763">
        <ele>235.66</ele>
        <time>2014-03-08T15:37:18Z</time>
      </trkpt>
      <trkpt lat="44.44171" lon="1.09758">
        <ele>235.66</ele>
        <time>2014-03-08T15:37:19Z</time>
      </trkpt>
      <trkpt lat="44.44176" lon="1.09753">
        <ele>235.66</ele>
        <time>2014-03-08T15:37:20Z</time>
      </trkpt>
      <trkpt lat="44.44232" lon="1.09681">
        <ele>234.22</ele>
        <time>2014-03-08T15:37:35Z</time>
      </trkpt>
      <trkpt lat="44.44257" lon="1.0966">
        <ele>234.22</ele>
        <time>2014-03-08T15:37:41Z</time>
      </trkpt>
      <trkpt lat="44.44265" lon="1.09655">
        <ele>234.7</ele>
        <time>2014-03-08T15:37:43Z</time>
      </trkpt>
      <trkpt lat="44.44304" lon="1.09618">
        <ele>234.7</ele>
        <time>2014-03-08T15:37:53Z</time>
      </trkpt>
      <trkpt lat="44.44312" lon="1.09607">
        <ele>234.22</ele>
        <time>2014-03-08T15:37:55Z</time>
      </trkpt>
      <trkpt lat="44.44324" lon="1.09591">
        <ele>233.74</ele>
        <time>2014-03-08T15:37:58Z</time>
      </trkpt>
      <trkpt lat="44.44353" lon="1.09561">
        <ele>233.26</ele>
        <time>2014-03-08T15:38:05Z</time>
      </trkpt>
      <trkpt lat="44.44393" lon="1.09518">
        <ele>233.26</ele>
        <time>2014-03-08T15:38:14Z</time>
      </trkpt>
      <trkpt lat="44.44426" lon="1.09478">
        <ele>233.26</ele>
        <time>2014-03-08T15:38:22Z</time>
      </trkpt>
      <trkpt lat="44.44487" lon="1.09447">
        <ele>228.93</ele>
        <time>2014-03-08T15:38:33Z</time>
      </trkpt>
      <trkpt lat="44.44497" lon="1.0944">
        <ele>228.45</ele>
        <time>2014-03-08T15:38:35Z</time>
      </trkpt>
      <trkpt lat="44.445" lon="1.09434">
        <ele>227.97</ele>
        <time>2014-03-08T15:38:36Z</time>
      </trkpt>
      <trkpt lat="44.44502" lon="1.09426">
        <ele>227.49</ele>
        <time>2014-03-08T15:38:37Z</time>
      </trkpt>
      <trkpt lat="44.44504" lon="1.09419">
        <ele>227.49</ele>
        <time>2014-03-08T15:38:38Z</time>
      </trkpt>
      <trkpt lat="44.44507" lon="1.09406">
        <ele>226.53</ele>
        <time>2014-03-08T15:38:40Z</time>
      </trkpt>
      <trkpt lat="44.44526" lon="1.09352">
        <ele>227.97</ele>
        <time>2014-03-08T15:38:51Z</time>
      </trkpt>
      <trkpt lat="44.44544" lon="1.09295">
        <ele>228.45</ele>
        <time>2014-03-08T15:39:04Z</time>
      </trkpt>
      <trkpt lat="44.44559" lon="1.09248">
        <ele>230.85</ele>
        <time>2014-03-08T15:39:15Z</time>
      </trkpt>
      <trkpt lat="44.44564" lon="1.09205">
        <ele>236.62</ele>
        <time>2014-03-08T15:39:26Z</time>
      </trkpt>
      <trkpt lat="44.44569" lon="1.09164">
        <ele>240.95</ele>
        <time>2014-03-08T15:39:36Z</time>
      </trkpt>
      <trkpt lat="44.44577" lon="1.09105">
        <ele>242.87</ele>
        <time>2014-03-08T15:39:49Z</time>
      </trkpt>
      <trkpt lat="44.44579" lon="1.09063">
        <ele>241.91</ele>
        <time>2014-03-08T15:40:00Z</time>
      </trkpt>
      <trkpt lat="44.44579" lon="1.09023">
        <ele>239.51</ele>
        <time>2014-03-08T15:40:12Z</time>
      </trkpt>
      <trkpt lat="44.44579" lon="1.09011">
        <ele>237.58</ele>
        <time>2014-03-08T15:40:24Z</time>
      </trkpt>
      <trkpt lat="44.44578" lon="1.09009">
        <ele>236.14</ele>
        <time>2014-03-08T15:40:59Z</time>
      </trkpt>
      <trkpt lat="44.44578" lon="1.09008">
        <ele>235.66</ele>
        <time>2014-03-08T15:41:44Z</time>
      </trkpt>
      <trkpt lat="44.44576" lon="1.0899">
        <ele>234.22</ele>
        <time>2014-03-08T15:42:05Z</time>
      </trkpt>
      <trkpt lat="44.44572" lon="1.08904">
        <ele>231.33</ele>
        <time>2014-03-08T15:42:17Z</time>
      </trkpt>
      <trkpt lat="44.44563" lon="1.08808">
        <ele>227.97</ele>
        <time>2014-03-08T15:42:27Z</time>
      </trkpt>
      <trkpt lat="44.4456" lon="1.08799">
        <ele>227.49</ele>
        <time>2014-03-08T15:42:28Z</time>
      </trkpt>
      <trkpt lat="44.44556" lon="1.0879">
        <ele>227.49</ele>
        <time>2014-03-08T15:42:29Z</time>
      </trkpt>
      <trkpt lat="44.44551" lon="1.08781">
        <ele>227.01</ele>
        <time>2014-03-08T15:42:30Z</time>
      </trkpt>
      <trkpt lat="44.44546" lon="1.08772">
        <ele>226.05</ele>
        <time>2014-03-08T15:42:31Z</time>
      </trkpt>
      <trkpt lat="44.4454" lon="1.08763">
        <ele>225.57</ele>
        <time>2014-03-08T15:42:32Z</time>
      </trkpt>
      <trkpt lat="44.44494" lon="1.08693">
        <ele>220.76</ele>
        <time>2014-03-08T15:42:41Z</time>
      </trkpt>
      <trkpt lat="44.44489" lon="1.08688">
        <ele>220.28</ele>
        <time>2014-03-08T15:42:43Z</time>
      </trkpt>
      <trkpt lat="44.4448" lon="1.0868">
        <ele>218.84</ele>
        <time>2014-03-08T15:42:54Z</time>
      </trkpt>
      <trkpt lat="44.44476" lon="1.08677">
        <ele>218.36</ele>
        <time>2014-03-08T15:42:56Z</time>
      </trkpt>
      <trkpt lat="44.44474" lon="1.08676">
        <ele>218.36</ele>
        <time>2014-03-08T15:42:57Z</time>
      </trkpt>
      <trkpt lat="44.44447" lon="1.08671">
        <ele>217.88</ele>
        <time>2014-03-08T15:43:04Z</time>
      </trkpt>
      <trkpt lat="44.44443" lon="1.08671">
        <ele>217.88</ele>
        <time>2014-03-08T15:43:05Z</time>
      </trkpt>
      <trkpt lat="44.44439" lon="1.08671">
        <ele>217.88</ele>
        <time>2014-03-08T15:43:06Z</time>
      </trkpt>
      <trkpt lat="44.44434" lon="1.08671">
        <ele>217.88</ele>
        <time>2014-03-08T15:43:07Z</time>
      </trkpt>
      <trkpt lat="44.4443" lon="1.08671">
        <ele>217.88</ele>
        <time>2014-03-08T15:43:08Z</time>
      </trkpt>
      <trkpt lat="44.4436" lon="1.08667">
        <ele>218.84</ele>
        <time>2014-03-08T15:43:24Z</time>
      </trkpt>
      <trkpt lat="44.44301" lon="1.08655">
        <ele>219.8</ele>
        <time>2014-03-08T15:43:38Z</time>
      </trkpt>
      <trkpt lat="44.44246" lon="1.08641">
        <ele>220.28</ele>
        <time>2014-03-08T15:43:51Z</time>
      </trkpt>
      <trkpt lat="44.44198" lon="1.08611">
        <ele>220.28</ele>
        <time>2014-03-08T15:44:03Z</time>
      </trkpt>
      <trkpt lat="44.44159" lon="1.08584">
        <ele>221.24</ele>
        <time>2014-03-08T15:44:14Z</time>
      </trkpt>
      <trkpt lat="44.44112" lon="1.08549">
        <ele>220.76</ele>
        <time>2014-03-08T15:44:26Z</time>
      </trkpt>
      <trkpt lat="44.44071" lon="1.08516">
        <ele>221.24</ele>
        <time>2014-03-08T15:44:36Z</time>
      </trkpt>
      <trkpt lat="44.44068" lon="1.08514">
        <ele>221.72</ele>
        <time>2014-03-08T15:44:37Z</time>
      </trkpt>
      <trkpt lat="44.4402" lon="1.08494">
        <ele>223.64</ele>
        <time>2014-03-08T15:44:50Z</time>
      </trkpt>
      <trkpt lat="44.43965" lon="1.08496">
        <ele>227.97</ele>
        <time>2014-03-08T15:45:06Z</time>
      </trkpt>
      <trkpt lat="44.43951" lon="1.085">
        <ele>229.41</ele>
        <time>2014-03-08T15:45:16Z</time>
      </trkpt>
      <trkpt lat="44.43952" lon="1.08498">
        <ele>229.41</ele>
        <time>2014-03-08T15:45:17Z</time>
      </trkpt>
      <trkpt lat="44.43953" lon="1.08497">
        <ele>229.41</ele>
        <time>2014-03-08T15:45:18Z</time>
      </trkpt>
      <trkpt lat="44.43956" lon="1.08497">
        <ele>229.41</ele>
        <time>2014-03-08T15:45:19Z</time>
      </trkpt>
      <trkpt lat="44.43958" lon="1.08497">
        <ele>229.41</ele>
        <time>2014-03-08T15:45:20Z</time>
      </trkpt>
      <trkpt lat="44.4396" lon="1.08495">
        <ele>229.41</ele>
        <time>2014-03-08T15:45:21Z</time>
      </trkpt>
      <trkpt lat="44.4396" lon="1.08492">
        <ele>228.93</ele>
        <time>2014-03-08T15:45:22Z</time>
      </trkpt>
      <trkpt lat="44.43959" lon="1.0849">
        <ele>228.45</ele>
        <time>2014-03-08T15:45:23Z</time>
      </trkpt>
      <trkpt lat="44.43957" lon="1.08489">
        <ele>228.45</ele>
        <time>2014-03-08T15:45:24Z</time>
      </trkpt>
      <trkpt lat="44.43954" lon="1.08488">
        <ele>228.45</ele>
        <time>2014-03-08T15:45:25Z</time>
      </trkpt>
      <trkpt lat="44.43951" lon="1.08487">
        <ele>227.97</ele>
        <time>2014-03-08T15:45:26Z</time>
      </trkpt>
      <trkpt lat="44.43947" lon="1.08487">
        <ele>227.97</ele>
        <time>2014-03-08T15:45:27Z</time>
      </trkpt>
      <trkpt lat="44.43903" lon="1.08496">
        <ele>228.93</ele>
        <time>2014-03-08T15:45:41Z</time>
      </trkpt>
      <trkpt lat="44.43862" lon="1.08511">
        <ele>228.93</ele>
        <time>2014-03-08T15:45:54Z</time>
      </trkpt>
      <trkpt lat="44.43859" lon="1.08511">
        <ele>228.93</ele>
        <time>2014-03-08T15:45:55Z</time>
      </trkpt>
      <trkpt lat="44.43857" lon="1.08509">
        <ele>228.93</ele>
        <time>2014-03-08T15:45:56Z</time>
      </trkpt>
      <trkpt lat="44.43857" lon="1.08487">
        <ele>228.45</ele>
        <time>2014-03-08T15:46:02Z</time>
      </trkpt>
      <trkpt lat="44.43865" lon="1.08431">
        <ele>228.45</ele>
        <time>2014-03-08T15:46:15Z</time>
      </trkpt>
      <trkpt lat="44.43893" lon="1.08398">
        <ele>229.89</ele>
        <time>2014-03-08T15:46:27Z</time>
      </trkpt>
      <trkpt lat="44.4391" lon="1.08376">
        <ele>231.81</ele>
        <time>2014-03-08T15:46:36Z</time>
      </trkpt>
      <trkpt lat="44.43927" lon="1.08343">
        <ele>233.74</ele>
        <time>2014-03-08T15:46:48Z</time>
      </trkpt>
      <trkpt lat="44.43949" lon="1.08307">
        <ele>238.54</ele>
        <time>2014-03-08T15:47:00Z</time>
      </trkpt>
      <trkpt lat="44.4396" lon="1.08262">
        <ele>245.75</ele>
        <time>2014-03-08T15:47:12Z</time>
      </trkpt>
      <trkpt lat="44.4397" lon="1.08217">
        <ele>247.68</ele>
        <time>2014-03-08T15:47:23Z</time>
      </trkpt>
      <trkpt lat="44.4397" lon="1.08213">
        <ele>248.16</ele>
        <time>2014-03-08T15:47:24Z</time>
      </trkpt>
      <trkpt lat="44.43972" lon="1.08202">
        <ele>248.16</ele>
        <time>2014-03-08T15:47:28Z</time>
      </trkpt>
      <trkpt lat="44.43974" lon="1.08198">
        <ele>247.2</ele>
        <time>2014-03-08T15:47:31Z</time>
      </trkpt>
      <trkpt lat="44.43974" lon="1.08201">
        <ele>245.27</ele>
        <time>2014-03-08T15:47:43Z</time>
      </trkpt>
      <trkpt lat="44.43974" lon="1.08201">
        <ele>245.75</ele>
        <time>2014-03-08T15:47:59Z</time>
      </trkpt>
      <trkpt lat="44.43974" lon="1.082">
        <ele>245.27</ele>
        <time>2014-03-08T15:48:09Z</time>
      </trkpt>
      <trkpt lat="44.43974" lon="1.08201">
        <ele>244.31</ele>
        <time>2014-03-08T15:48:29Z</time>
      </trkpt>
      <trkpt lat="44.43974" lon="1.082">
        <ele>244.31</ele>
        <time>2014-03-08T15:48:53Z</time>
      </trkpt>
      <trkpt lat="44.43973" lon="1.082">
        <ele>244.31</ele>
        <time>2014-03-08T15:49:16Z</time>
      </trkpt>
      <trkpt lat="44.43974" lon="1.08202">
        <ele>246.23</ele>
        <time>2014-03-08T15:49:42Z</time>
      </trkpt>
      <trkpt lat="44.43974" lon="1.08201">
        <ele>245.75</ele>
        <time>2014-03-08T15:50:06Z</time>
      </trkpt>
      <trkpt lat="44.43985" lon="1.08176">
        <ele>244.31</ele>
        <time>2014-03-08T15:50:18Z</time>
      </trkpt>
      <trkpt lat="44.43991" lon="1.08155">
        <ele>243.35</ele>
        <time>2014-03-08T15:50:27Z</time>
      </trkpt>
      <trkpt lat="44.4399" lon="1.08152">
        <ele>243.35</ele>
        <time>2014-03-08T15:50:28Z</time>
      </trkpt>
      <trkpt lat="44.4399" lon="1.0815">
        <ele>242.87</ele>
        <time>2014-03-08T15:50:29Z</time>
      </trkpt>
      <trkpt lat="44.43991" lon="1.08146">
        <ele>242.87</ele>
        <time>2014-03-08T15:50:30Z</time>
      </trkpt>
      <trkpt lat="44.43992" lon="1.08143">
        <ele>243.35</ele>
        <time>2014-03-08T15:50:31Z</time>
      </trkpt>
      <trkpt lat="44.43992" lon="1.08139">
        <ele>243.35</ele>
        <time>2014-03-08T15:50:32Z</time>
      </trkpt>
      <trkpt lat="44.43993" lon="1.08135">
        <ele>243.35</ele>
        <time>2014-03-08T15:50:33Z</time>
      </trkpt>
      <trkpt lat="44.44008" lon="1.0807">
        <ele>239.51</ele>
        <time>2014-03-08T15:50:43Z</time>
      </trkpt>
      <trkpt lat="44.44043" lon="1.07951">
        <ele>233.26</ele>
        <time>2014-03-08T15:50:53Z</time>
      </trkpt>
      <trkpt lat="44.44044" lon="1.07939">
        <ele>232.78</ele>
        <time>2014-03-08T15:50:54Z</time>
      </trkpt>
      <trkpt lat="44.44044" lon="1.07905">
        <ele>232.78</ele>
        <time>2014-03-08T15:50:59Z</time>
      </trkpt>
      <trkpt lat="44.44043" lon="1.07902">
        <ele>232.78</ele>
        <time>2014-03-08T15:51:00Z</time>
      </trkpt>
      <trkpt lat="44.44018" lon="1.0787">
        <ele>234.22</ele>
        <time>2014-03-08T15:51:11Z</time>
      </trkpt>
      <trkpt lat="44.43991" lon="1.07835">
        <ele>235.66</ele>
        <time>2014-03-08T15:51:23Z</time>
      </trkpt>
      <trkpt lat="44.4399" lon="1.0783">
        <ele>235.66</ele>
        <time>2014-03-08T15:51:24Z</time>
      </trkpt>
      <trkpt lat="44.43991" lon="1.07826">
        <ele>235.66</ele>
        <time>2014-03-08T15:51:25Z</time>
      </trkpt>
      <trkpt lat="44.44011" lon="1.07793">
        <ele>238.54</ele>
        <time>2014-03-08T15:51:35Z</time>
      </trkpt>
      <trkpt lat="44.44041" lon="1.07735">
        <ele>240.47</ele>
        <time>2014-03-08T15:51:50Z</time>
      </trkpt>
      <trkpt lat="44.44054" lon="1.07702">
        <ele>239.51</ele>
        <time>2014-03-08T15:51:57Z</time>
      </trkpt>
      <trkpt lat="44.44097" lon="1.07618">
        <ele>239.02</ele>
        <time>2014-03-08T15:52:16Z</time>
      </trkpt>
      <trkpt lat="44.44122" lon="1.07573">
        <ele>243.35</ele>
        <time>2014-03-08T15:52:29Z</time>
      </trkpt>
      <trkpt lat="44.44151" lon="1.07557">
        <ele>246.72</ele>
        <time>2014-03-08T15:52:40Z</time>
      </trkpt>
      <trkpt lat="44.44187" lon="1.07544">
        <ele>251.04</ele>
        <time>2014-03-08T15:52:52Z</time>
      </trkpt>
      <trkpt lat="44.44219" lon="1.07512">
        <ele>253.44</ele>
        <time>2014-03-08T15:53:05Z</time>
      </trkpt>
      <trkpt lat="44.44228" lon="1.07492">
        <ele>254.41</ele>
        <time>2014-03-08T15:53:17Z</time>
      </trkpt>
      <trkpt lat="44.44228" lon="1.07491">
        <ele>253.93</ele>
        <time>2014-03-08T15:53:39Z</time>
      </trkpt>
      <trkpt lat="44.44229" lon="1.0749">
        <ele>256.33</ele>
        <time>2014-03-08T15:54:02Z</time>
      </trkpt>
      <trkpt lat="44.44229" lon="1.07488">
        <ele>255.85</ele>
        <time>2014-03-08T15:54:30Z</time>
      </trkpt>
      <trkpt lat="44.44229" lon="1.07487">
        <ele>255.85</ele>
        <time>2014-03-08T15:55:00Z</time>
      </trkpt>
      <trkpt lat="44.44237" lon="1.07482">
        <ele>256.33</ele>
        <time>2014-03-08T15:55:20Z</time>
      </trkpt>
      <trkpt lat="44.44273" lon="1.07478">
        <ele>256.33</ele>
        <time>2014-03-08T15:55:33Z</time>
      </trkpt>
      <trkpt lat="44.44311" lon="1.07473">
        <ele>257.29</ele>
        <time>2014-03-08T15:55:45Z</time>
      </trkpt>
      <trkpt lat="44.44346" lon="1.07471">
        <ele>255.85</ele>
        <time>2014-03-08T15:55:54Z</time>
      </trkpt>
      <trkpt lat="44.4436" lon="1.07471">
        <ele>254.89</ele>
        <time>2014-03-08T15:55:57Z</time>
      </trkpt>
      <trkpt lat="44.4439" lon="1.07463">
        <ele>252.48</ele>
        <time>2014-03-08T15:56:04Z</time>
      </trkpt>
      <trkpt lat="44.44465" lon="1.07461">
        <ele>245.75</ele>
        <time>2014-03-08T15:56:16Z</time>
      </trkpt>
      <trkpt lat="44.44534" lon="1.0745">
        <ele>240.95</ele>
        <time>2014-03-08T15:56:27Z</time>
      </trkpt>
      <trkpt lat="44.44589" lon="1.07437">
        <ele>241.91</ele>
        <time>2014-03-08T15:56:40Z</time>
      </trkpt>
      <trkpt lat="44.44604" lon="1.07434">
        <ele>243.35</ele>
        <time>2014-03-08T15:56:44Z</time>
      </trkpt>
      <trkpt lat="44.44614" lon="1.07416">
        <ele>245.27</ele>
        <time>2014-03-08T15:56:57Z</time>
      </trkpt>
      <trkpt lat="44.44611" lon="1.07399">
        <ele>245.75</ele>
        <time>2014-03-08T15:57:21Z</time>
      </trkpt>
      <trkpt lat="44.44592" lon="1.07361">
        <ele>243.35</ele>
        <time>2014-03-08T15:57:30Z</time>
      </trkpt>
      <trkpt lat="44.44584" lon="1.07347">
        <ele>242.39</ele>
        <time>2014-03-08T15:57:33Z</time>
      </trkpt>
      <trkpt lat="44.44574" lon="1.073">
        <ele>241.43</ele>
        <time>2014-03-08T15:57:41Z</time>
      </trkpt>
      <trkpt lat="44.44578" lon="1.07268">
        <ele>241.91</ele>
        <time>2014-03-08T15:57:46Z</time>
      </trkpt>
      <trkpt lat="44.4459" lon="1.07221">
        <ele>241.91</ele>
        <time>2014-03-08T15:57:53Z</time>
      </trkpt>
      <trkpt lat="44.44622" lon="1.07124">
        <ele>241.43</ele>
        <time>2014-03-08T15:58:05Z</time>
      </trkpt>
      <trkpt lat="44.44636" lon="1.07079">
        <ele>238.54</ele>
        <time>2014-03-08T15:58:12Z</time>
      </trkpt>
      <trkpt lat="44.4464" lon="1.07059">
        <ele>237.1</ele>
        <time>2014-03-08T15:58:15Z</time>
      </trkpt>
      <trkpt lat="44.44668" lon="1.06967">
        <ele>232.3</ele>
        <time>2014-03-08T15:58:27Z</time>
      </trkpt>
      <trkpt lat="44.44671" lon="1.06952">
        <ele>232.3</ele>
        <time>2014-03-08T15:58:29Z</time>
      </trkpt>
      <trkpt lat="44.44683" lon="1.0692">
        <ele>230.85</ele>
        <time>2014-03-08T15:58:37Z</time>
      </trkpt>
      <trkpt lat="44.4469" lon="1.06913">
        <ele>230.85</ele>
        <time>2014-03-08T15:58:41Z</time>
      </trkpt>
      <trkpt lat="44.44714" lon="1.06882">
        <ele>235.18</ele>
        <time>2014-03-08T15:58:56Z</time>
      </trkpt>
      <trkpt lat="44.44737" lon="1.06845">
        <ele>236.14</ele>
        <time>2014-03-08T15:59:07Z</time>
      </trkpt>
      <trkpt lat="44.4476" lon="1.06807">
        <ele>237.1</ele>
        <time>2014-03-08T15:59:18Z</time>
      </trkpt>
      <trkpt lat="44.44792" lon="1.06775">
        <ele>235.66</ele>
        <time>2014-03-08T15:59:29Z</time>
      </trkpt>
      <trkpt lat="44.44833" lon="1.06752">
        <ele>233.26</ele>
        <time>2014-03-08T15:59:40Z</time>
      </trkpt>
      <trkpt lat="44.4484" lon="1.06749">
        <ele>233.26</ele>
        <time>2014-03-08T15:59:50Z</time>
      </trkpt>
      <trkpt lat="44.44841" lon="1.06749">
        <ele>233.74</ele>
        <time>2014-03-08T15:59:53Z</time>
      </trkpt>
      <trkpt lat="44.44847" lon="1.06747">
        <ele>233.74</ele>
        <time>2014-03-08T15:59:57Z</time>
      </trkpt>
      <trkpt lat="44.44854" lon="1.06743">
        <ele>232.78</ele>
        <time>2014-03-08T15:59:59Z</time>
      </trkpt>
      <trkpt lat="44.44892" lon="1.06709">
        <ele>226.53</ele>
        <time>2014-03-08T16:00:07Z</time>
      </trkpt>
      <trkpt lat="44.44914" lon="1.06695">
        <ele>223.16</ele>
        <time>2014-03-08T16:00:11Z</time>
      </trkpt>
      <trkpt lat="44.44931" lon="1.06678">
        <ele>222.2</ele>
        <time>2014-03-08T16:00:14Z</time>
      </trkpt>
      <trkpt lat="44.44934" lon="1.0667">
        <ele>221.72</ele>
        <time>2014-03-08T16:00:15Z</time>
      </trkpt>
      <trkpt lat="44.44937" lon="1.06663">
        <ele>221.72</ele>
        <time>2014-03-08T16:00:16Z</time>
      </trkpt>
      <trkpt lat="44.44944" lon="1.06645">
        <ele>221.72</ele>
        <time>2014-03-08T16:00:19Z</time>
      </trkpt>
      <trkpt lat="44.44946" lon="1.06639">
        <ele>221.72</ele>
        <time>2014-03-08T16:00:20Z</time>
      </trkpt>
      <trkpt lat="44.44948" lon="1.06633">
        <ele>221.72</ele>
        <time>2014-03-08T16:00:21Z</time>
      </trkpt>
      <trkpt lat="44.44985" lon="1.06567">
        <ele>220.28</ele>
        <time>2014-03-08T16:00:35Z</time>
      </trkpt>
      <trkpt lat="44.45009" lon="1.0654">
        <ele>218.84</ele>
        <time>2014-03-08T16:00:45Z</time>
      </trkpt>
      <trkpt lat="44.4502" lon="1.06523">
        <ele>216.91</ele>
        <time>2014-03-08T16:00:55Z</time>
      </trkpt>
      <trkpt lat="44.4504" lon="1.06494">
        <ele>215.95</ele>
        <time>2014-03-08T16:01:03Z</time>
      </trkpt>
      <trkpt lat="44.45061" lon="1.06459">
        <ele>214.99</ele>
        <time>2014-03-08T16:01:10Z</time>
      </trkpt>
      <trkpt lat="44.45073" lon="1.06438">
        <ele>214.99</ele>
        <time>2014-03-08T16:01:14Z</time>
      </trkpt>
      <trkpt lat="44.45083" lon="1.06422">
        <ele>215.47</ele>
        <time>2014-03-08T16:01:17Z</time>
      </trkpt>
      <trkpt lat="44.45115" lon="1.06363">
        <ele>214.51</ele>
        <time>2014-03-08T16:01:27Z</time>
      </trkpt>
      <trkpt lat="44.45137" lon="1.06331">
        <ele>214.51</ele>
        <time>2014-03-08T16:01:34Z</time>
      </trkpt>
      <trkpt lat="44.45138" lon="1.06329">
        <ele>214.51</ele>
        <time>2014-03-08T16:01:35Z</time>
      </trkpt>
      <trkpt lat="44.45139" lon="1.06326">
        <ele>214.03</ele>
        <time>2014-03-08T16:01:36Z</time>
      </trkpt>
      <trkpt lat="44.45139" lon="1.06324">
        <ele>214.03</ele>
        <time>2014-03-08T16:01:37Z</time>
      </trkpt>
      <trkpt lat="44.45141" lon="1.06323">
        <ele>214.03</ele>
        <time>2014-03-08T16:01:38Z</time>
      </trkpt>
      <trkpt lat="44.45142" lon="1.06322">
        <ele>213.55</ele>
        <time>2014-03-08T16:01:39Z</time>
      </trkpt>
      <trkpt lat="44.45143" lon="1.0632">
        <ele>213.55</ele>
        <time>2014-03-08T16:01:40Z</time>
      </trkpt>
      <trkpt lat="44.45154" lon="1.06307">
        <ele>213.07</ele>
        <time>2014-03-08T16:01:47Z</time>
      </trkpt>
      <trkpt lat="44.45155" lon="1.06304">
        <ele>213.07</ele>
        <time>2014-03-08T16:01:48Z</time>
      </trkpt>
      <trkpt lat="44.45157" lon="1.06302">
        <ele>213.55</ele>
        <time>2014-03-08T16:01:49Z</time>
      </trkpt>
      <trkpt lat="44.45184" lon="1.06264">
        <ele>213.07</ele>
        <time>2014-03-08T16:01:59Z</time>
      </trkpt>
      <trkpt lat="44.45214" lon="1.06235">
        <ele>211.63</ele>
        <time>2014-03-08T16:02:05Z</time>
      </trkpt>
      <trkpt lat="44.45264" lon="1.06204">
        <ele>208.26</ele>
        <time>2014-03-08T16:02:14Z</time>
      </trkpt>
      <trkpt lat="44.45273" lon="1.06197">
        <ele>207.3</ele>
        <time>2014-03-08T16:02:16Z</time>
      </trkpt>
      <trkpt lat="44.45309" lon="1.06183">
        <ele>203.94</ele>
        <time>2014-03-08T16:02:22Z</time>
      </trkpt>
      <trkpt lat="44.45322" lon="1.06151">
        <ele>205.86</ele>
        <time>2014-03-08T16:02:31Z</time>
      </trkpt>
      <trkpt lat="44.45321" lon="1.06115">
        <ele>212.11</ele>
        <time>2014-03-08T16:02:43Z</time>
      </trkpt>
      <trkpt lat="44.45312" lon="1.0607">
        <ele>213.55</ele>
        <time>2014-03-08T16:02:56Z</time>
      </trkpt>
      <trkpt lat="44.45309" lon="1.0603">
        <ele>213.55</ele>
        <time>2014-03-08T16:03:08Z</time>
      </trkpt>
      <trkpt lat="44.45311" lon="1.05991">
        <ele>213.55</ele>
        <time>2014-03-08T16:03:21Z</time>
      </trkpt>
      <trkpt lat="44.45321" lon="1.05955">
        <ele>216.43</ele>
        <time>2014-03-08T16:03:32Z</time>
      </trkpt>
      <trkpt lat="44.45329" lon="1.05939">
        <ele>217.88</ele>
        <time>2014-03-08T16:03:43Z</time>
      </trkpt>
      <trkpt lat="44.45354" lon="1.05898">
        <ele>215.95</ele>
        <time>2014-03-08T16:03:54Z</time>
      </trkpt>
      <trkpt lat="44.45376" lon="1.05852">
        <ele>214.03</ele>
        <time>2014-03-08T16:04:05Z</time>
      </trkpt>
      <trkpt lat="44.4538" lon="1.05846">
        <ele>213.07</ele>
        <time>2014-03-08T16:04:14Z</time>
      </trkpt>
      <trkpt lat="44.45381" lon="1.05846">
        <ele>211.63</ele>
        <time>2014-03-08T16:04:39Z</time>
      </trkpt>
      <trkpt lat="44.4538" lon="1.05845">
        <ele>212.11</ele>
        <time>2014-03-08T16:05:16Z</time>
      </trkpt>
      <trkpt lat="44.45381" lon="1.05845">
        <ele>211.63</ele>
        <time>2014-03-08T16:05:53Z</time>
      </trkpt>
      <trkpt lat="44.45384" lon="1.05845">
        <ele>211.63</ele>
        <time>2014-03-08T16:05:55Z</time>
      </trkpt>
      <trkpt lat="44.45387" lon="1.05842">
        <ele>211.15</ele>
        <time>2014-03-08T16:06:04Z</time>
      </trkpt>
      <trkpt lat="44.45389" lon="1.05844">
        <ele>210.67</ele>
        <time>2014-03-08T16:06:24Z</time>
      </trkpt>
      <trkpt lat="44.4539" lon="1.05841">
        <ele>210.67</ele>
        <time>2014-03-08T16:06:38Z</time>
      </trkpt>
      <trkpt lat="44.45391" lon="1.05842">
        <ele>210.67</ele>
        <time>2014-03-08T16:07:06Z</time>
      </trkpt>
      <trkpt lat="44.45391" lon="1.05841">
        <ele>210.19</ele>
        <time>2014-03-08T16:07:39Z</time>
      </trkpt>
      <trkpt lat="44.45391" lon="1.05839">
        <ele>210.19</ele>
        <time>2014-03-08T16:07:40Z</time>
      </trkpt>
      <trkpt lat="44.45391" lon="1.05835">
        <ele>210.19</ele>
        <time>2014-03-08T16:07:41Z</time>
      </trkpt>
      <trkpt lat="44.45392" lon="1.05832">
        <ele>210.19</ele>
        <time>2014-03-08T16:07:42Z</time>
      </trkpt>
      <trkpt lat="44.45392" lon="1.05829">
        <ele>210.19</ele>
        <time>2014-03-08T16:07:43Z</time>
      </trkpt>
      <trkpt lat="44.45393" lon="1.05826">
        <ele>210.19</ele>
        <time>2014-03-08T16:07:44Z</time>
      </trkpt>
      <trkpt lat="44.454" lon="1.05772">
        <ele>213.55</ele>
        <time>2014-03-08T16:07:57Z</time>
      </trkpt>
      <trkpt lat="44.45406" lon="1.05717">
        <ele>218.84</ele>
        <time>2014-03-08T16:08:09Z</time>
      </trkpt>
      <trkpt lat="44.45417" lon="1.05685">
        <ele>222.68</ele>
        <time>2014-03-08T16:08:18Z</time>
      </trkpt>
      <trkpt lat="44.45431" lon="1.05652">
        <ele>224.61</ele>
        <time>2014-03-08T16:08:29Z</time>
      </trkpt>
      <trkpt lat="44.45445" lon="1.05636">
        <ele>224.12</ele>
        <time>2014-03-08T16:08:41Z</time>
      </trkpt>
      <trkpt lat="44.45449" lon="1.05632">
        <ele>224.61</ele>
        <time>2014-03-08T16:08:45Z</time>
      </trkpt>
      <trkpt lat="44.45452" lon="1.0563">
        <ele>224.61</ele>
        <time>2014-03-08T16:08:47Z</time>
      </trkpt>
      <trkpt lat="44.45459" lon="1.05624">
        <ele>224.12</ele>
        <time>2014-03-08T16:08:52Z</time>
      </trkpt>
      <trkpt lat="44.45488" lon="1.05597">
        <ele>222.2</ele>
        <time>2014-03-08T16:09:06Z</time>
      </trkpt>
      <trkpt lat="44.45488" lon="1.05596">
        <ele>223.16</ele>
        <time>2014-03-08T16:09:32Z</time>
      </trkpt>
      <trkpt lat="44.45488" lon="1.05598">
        <ele>223.16</ele>
        <time>2014-03-08T16:09:56Z</time>
      </trkpt>
      <trkpt lat="44.45505" lon="1.05578">
        <ele>222.68</ele>
        <time>2014-03-08T16:10:07Z</time>
      </trkpt>
      <trkpt lat="44.4554" lon="1.0554">
        <ele>220.28</ele>
        <time>2014-03-08T16:10:15Z</time>
      </trkpt>
      <trkpt lat="44.45603" lon="1.05456">
        <ele>215.95</ele>
        <time>2014-03-08T16:10:29Z</time>
      </trkpt>
      <trkpt lat="44.45623" lon="1.05441">
        <ele>214.51</ele>
        <time>2014-03-08T16:10:33Z</time>
      </trkpt>
      <trkpt lat="44.45641" lon="1.0543">
        <ele>214.03</ele>
        <time>2014-03-08T16:10:36Z</time>
      </trkpt>
      <trkpt lat="44.45688" lon="1.0542">
        <ele>214.51</ele>
        <time>2014-03-08T16:10:47Z</time>
      </trkpt>
      <trkpt lat="44.4573" lon="1.0543">
        <ele>216.43</ele>
        <time>2014-03-08T16:10:58Z</time>
      </trkpt>
      <trkpt lat="44.45762" lon="1.05432">
        <ele>218.36</ele>
        <time>2014-03-08T16:11:08Z</time>
      </trkpt>
      <trkpt lat="44.45772" lon="1.05434">
        <ele>218.84</ele>
        <time>2014-03-08T16:11:11Z</time>
      </trkpt>
      <trkpt lat="44.45789" lon="1.05426">
        <ele>222.68</ele>
        <time>2014-03-08T16:11:24Z</time>
      </trkpt>
      <trkpt lat="44.45793" lon="1.05423">
        <ele>222.68</ele>
        <time>2014-03-08T16:11:53Z</time>
      </trkpt>
      <trkpt lat="44.45796" lon="1.05422">
        <ele>224.12</ele>
        <time>2014-03-08T16:12:17Z</time>
      </trkpt>
      <trkpt lat="44.45796" lon="1.05424">
        <ele>225.57</ele>
        <time>2014-03-08T16:12:44Z</time>
      </trkpt>
      <trkpt lat="44.458" lon="1.05421">
        <ele>224.61</ele>
        <time>2014-03-08T16:12:55Z</time>
      </trkpt>
      <trkpt lat="44.45813" lon="1.05409">
        <ele>224.12</ele>
        <time>2014-03-08T16:13:08Z</time>
      </trkpt>
      <trkpt lat="44.45818" lon="1.05404">
        <ele>224.12</ele>
        <time>2014-03-08T16:13:11Z</time>
      </trkpt>
      <trkpt lat="44.45838" lon="1.0538">
        <ele>224.61</ele>
        <time>2014-03-08T16:13:23Z</time>
      </trkpt>
      <trkpt lat="44.4586" lon="1.05356">
        <ele>224.12</ele>
        <time>2014-03-08T16:13:33Z</time>
      </trkpt>
      <trkpt lat="44.45872" lon="1.05341">
        <ele>223.16</ele>
        <time>2014-03-08T16:13:37Z</time>
      </trkpt>
      <trkpt lat="44.45899" lon="1.05303">
        <ele>222.68</ele>
        <time>2014-03-08T16:13:48Z</time>
      </trkpt>
      <trkpt lat="44.45918" lon="1.05269">
        <ele>223.16</ele>
        <time>2014-03-08T16:13:59Z</time>
      </trkpt>
      <trkpt lat="44.45929" lon="1.0525">
        <ele>222.68</ele>
        <time>2014-03-08T16:14:05Z</time>
      </trkpt>
      <trkpt lat="44.45965" lon="1.05239">
        <ele>221.72</ele>
        <time>2014-03-08T16:14:17Z</time>
      </trkpt>
      <trkpt lat="44.45983" lon="1.05232">
        <ele>221.24</ele>
        <time>2014-03-08T16:14:23Z</time>
      </trkpt>
      <trkpt lat="44.45992" lon="1.05224">
        <ele>218.36</ele>
        <time>2014-03-08T16:14:34Z</time>
      </trkpt>
      <trkpt lat="44.45992" lon="1.05221">
        <ele>216.43</ele>
        <time>2014-03-08T16:14:56Z</time>
      </trkpt>
      <trkpt lat="44.45993" lon="1.05218">
        <ele>214.99</ele>
        <time>2014-03-08T16:15:30Z</time>
      </trkpt>
      <trkpt lat="44.45996" lon="1.05221">
        <ele>213.55</ele>
        <time>2014-03-08T16:15:41Z</time>
      </trkpt>
      <trkpt lat="44.45997" lon="1.05223">
        <ele>213.07</ele>
        <time>2014-03-08T16:15:53Z</time>
      </trkpt>
      <trkpt lat="44.45998" lon="1.05223">
        <ele>214.51</ele>
        <time>2014-03-08T16:16:23Z</time>
      </trkpt>
      <trkpt lat="44.45999" lon="1.05224">
        <ele>215.95</ele>
        <time>2014-03-08T16:16:58Z</time>
      </trkpt>
      <trkpt lat="44.45999" lon="1.05224">
        <ele>216.43</ele>
        <time>2014-03-08T16:17:26Z</time>
      </trkpt>
      <trkpt lat="44.45999" lon="1.05224">
        <ele>215.95</ele>
        <time>2014-03-08T16:17:57Z</time>
      </trkpt>
      <trkpt lat="44.45998" lon="1.05225">
        <ele>214.99</ele>
        <time>2014-03-08T16:18:25Z</time>
      </trkpt>
      <trkpt lat="44.45998" lon="1.05226">
        <ele>214.51</ele>
        <time>2014-03-08T16:18:51Z</time>
      </trkpt>
      <trkpt lat="44.45999" lon="1.05224">
        <ele>214.03</ele>
        <time>2014-03-08T16:19:13Z</time>
      </trkpt>
      <trkpt lat="44.45999" lon="1.05223">
        <ele>213.55</ele>
        <time>2014-03-08T16:19:34Z</time>
      </trkpt>
      <trkpt lat="44.46" lon="1.05223">
        <ele>212.59</ele>
        <time>2014-03-08T16:20:06Z</time>
      </trkpt>
      <trkpt lat="44.45999" lon="1.05223">
        <ele>213.07</ele>
        <time>2014-03-08T16:20:26Z</time>
      </trkpt>
      <trkpt lat="44.45999" lon="1.05224">
        <ele>213.07</ele>
        <time>2014-03-08T16:20:43Z</time>
      </trkpt>
      <trkpt lat="44.4601" lon="1.05221">
        <ele>213.07</ele>
        <time>2014-03-08T16:20:59Z</time>
      </trkpt>
      <trkpt lat="44.46011" lon="1.0522">
        <ele>213.07</ele>
        <time>2014-03-08T16:21:01Z</time>
      </trkpt>
      <trkpt lat="44.46014" lon="1.05219">
        <ele>213.07</ele>
        <time>2014-03-08T16:21:02Z</time>
      </trkpt>
      <trkpt lat="44.46017" lon="1.05217">
        <ele>212.59</ele>
        <time>2014-03-08T16:21:03Z</time>
      </trkpt>
      <trkpt lat="44.46021" lon="1.05215">
        <ele>212.59</ele>
        <time>2014-03-08T16:21:04Z</time>
      </trkpt>
      <trkpt lat="44.46025" lon="1.05213">
        <ele>212.59</ele>
        <time>2014-03-08T16:21:05Z</time>
      </trkpt>
      <trkpt lat="44.46029" lon="1.0521">
        <ele>212.59</ele>
        <time>2014-03-08T16:21:06Z</time>
      </trkpt>
      <trkpt lat="44.46034" lon="1.05206">
        <ele>212.59</ele>
        <time>2014-03-08T16:21:07Z</time>
      </trkpt>
      <trkpt lat="44.46038" lon="1.052">
        <ele>212.59</ele>
        <time>2014-03-08T16:21:08Z</time>
      </trkpt>
      <trkpt lat="44.46041" lon="1.05193">
        <ele>212.59</ele>
        <time>2014-03-08T16:21:09Z</time>
      </trkpt>
      <trkpt lat="44.46044" lon="1.05185">
        <ele>212.59</ele>
        <time>2014-03-08T16:21:10Z</time>
      </trkpt>
      <trkpt lat="44.46046" lon="1.05177">
        <ele>212.59</ele>
        <time>2014-03-08T16:21:11Z</time>
      </trkpt>
      <trkpt lat="44.46048" lon="1.05169">
        <ele>212.59</ele>
        <time>2014-03-08T16:21:12Z</time>
      </trkpt>
      <trkpt lat="44.46053" lon="1.05153">
        <ele>211.63</ele>
        <time>2014-03-08T16:21:14Z</time>
      </trkpt>
      <trkpt lat="44.46056" lon="1.05146">
        <ele>211.15</ele>
        <time>2014-03-08T16:21:15Z</time>
      </trkpt>
      <trkpt lat="44.46059" lon="1.0514">
        <ele>210.67</ele>
        <time>2014-03-08T16:21:16Z</time>
      </trkpt>
      <trkpt lat="44.46064" lon="1.05136">
        <ele>210.67</ele>
        <time>2014-03-08T16:21:17Z</time>
      </trkpt>
      <trkpt lat="44.46069" lon="1.05133">
        <ele>210.19</ele>
        <time>2014-03-08T16:21:18Z</time>
      </trkpt>
      <trkpt lat="44.46075" lon="1.0513">
        <ele>209.7</ele>
        <time>2014-03-08T16:21:19Z</time>
      </trkpt>
      <trkpt lat="44.46082" lon="1.05128">
        <ele>209.22</ele>
        <time>2014-03-08T16:21:20Z</time>
      </trkpt>
      <trkpt lat="44.46088" lon="1.05125">
        <ele>208.74</ele>
        <time>2014-03-08T16:21:21Z</time>
      </trkpt>
      <trkpt lat="44.46168" lon="1.05096">
        <ele>205.38</ele>
        <time>2014-03-08T16:21:33Z</time>
      </trkpt>
      <trkpt lat="44.46174" lon="1.05092">
        <ele>205.38</ele>
        <time>2014-03-08T16:21:34Z</time>
      </trkpt>
      <trkpt lat="44.46229" lon="1.05055">
        <ele>203.46</ele>
        <time>2014-03-08T16:21:46Z</time>
      </trkpt>
      <trkpt lat="44.46234" lon="1.05054">
        <ele>202.98</ele>
        <time>2014-03-08T16:21:47Z</time>
      </trkpt>
      <trkpt lat="44.46243" lon="1.05052">
        <ele>202.49</ele>
        <time>2014-03-08T16:21:49Z</time>
      </trkpt>
      <trkpt lat="44.46247" lon="1.05052">
        <ele>202.49</ele>
        <time>2014-03-08T16:21:50Z</time>
      </trkpt>
      <trkpt lat="44.46259" lon="1.05052">
        <ele>202.01</ele>
        <time>2014-03-08T16:21:53Z</time>
      </trkpt>
      <trkpt lat="44.46272" lon="1.05053">
        <ele>201.53</ele>
        <time>2014-03-08T16:21:56Z</time>
      </trkpt>
      <trkpt lat="44.46325" lon="1.05046">
        <ele>202.98</ele>
        <time>2014-03-08T16:22:10Z</time>
      </trkpt>
      <trkpt lat="44.46327" lon="1.05046">
        <ele>203.46</ele>
        <time>2014-03-08T16:22:11Z</time>
      </trkpt>
      <trkpt lat="44.46328" lon="1.05044">
        <ele>202.98</ele>
        <time>2014-03-08T16:22:12Z</time>
      </trkpt>
      <trkpt lat="44.46329" lon="1.05041">
        <ele>202.98</ele>
        <time>2014-03-08T16:22:13Z</time>
      </trkpt>
      <trkpt lat="44.4633" lon="1.05038">
        <ele>202.98</ele>
        <time>2014-03-08T16:22:14Z</time>
      </trkpt>
      <trkpt lat="44.46331" lon="1.05035">
        <ele>202.98</ele>
        <time>2014-03-08T16:22:15Z</time>
      </trkpt>
      <trkpt lat="44.46332" lon="1.05031">
        <ele>202.98</ele>
        <time>2014-03-08T16:22:16Z</time>
      </trkpt>
      <trkpt lat="44.46333" lon="1.05027">
        <ele>202.98</ele>
        <time>2014-03-08T16:22:17Z</time>
      </trkpt>
      <trkpt lat="44.46334" lon="1.05023">
        <ele>202.98</ele>
        <time>2014-03-08T16:22:18Z</time>
      </trkpt>
      <trkpt lat="44.46335" lon="1.05019">
        <ele>202.98</ele>
        <time>2014-03-08T16:22:19Z</time>
      </trkpt>
      <trkpt lat="44.46337" lon="1.05015">
        <ele>202.98</ele>
        <time>2014-03-08T16:22:20Z</time>
      </trkpt>
      <trkpt lat="44.46338" lon="1.05011">
        <ele>202.98</ele>
        <time>2014-03-08T16:22:21Z</time>
      </trkpt>
      <trkpt lat="44.46337" lon="1.04968">
        <ele>203.46</ele>
        <time>2014-03-08T16:22:32Z</time>
      </trkpt>
      <trkpt lat="44.46326" lon="1.0494">
        <ele>204.42</ele>
        <time>2014-03-08T16:22:41Z</time>
      </trkpt>
      <trkpt lat="44.46309" lon="1.04892">
        <ele>207.3</ele>
        <time>2014-03-08T16:22:53Z</time>
      </trkpt>
      <trkpt lat="44.46315" lon="1.04844">
        <ele>207.78</ele>
        <time>2014-03-08T16:23:03Z</time>
      </trkpt>
      <trkpt lat="44.46336" lon="1.04784">
        <ele>208.26</ele>
        <time>2014-03-08T16:23:17Z</time>
      </trkpt>
      <trkpt lat="44.46337" lon="1.04781">
        <ele>208.26</ele>
        <time>2014-03-08T16:23:18Z</time>
      </trkpt>
      <trkpt lat="44.46339" lon="1.04779">
        <ele>208.26</ele>
        <time>2014-03-08T16:23:19Z</time>
      </trkpt>
      <trkpt lat="44.4634" lon="1.04776">
        <ele>208.26</ele>
        <time>2014-03-08T16:23:20Z</time>
      </trkpt>
      <trkpt lat="44.46341" lon="1.04774">
        <ele>208.26</ele>
        <time>2014-03-08T16:23:21Z</time>
      </trkpt>
      <trkpt lat="44.46342" lon="1.04772">
        <ele>208.26</ele>
        <time>2014-03-08T16:23:22Z</time>
      </trkpt>
      <trkpt lat="44.46343" lon="1.0477">
        <ele>208.26</ele>
        <time>2014-03-08T16:23:23Z</time>
      </trkpt>
      <trkpt lat="44.46344" lon="1.04768">
        <ele>208.26</ele>
        <time>2014-03-08T16:23:24Z</time>
      </trkpt>
      <trkpt lat="44.46345" lon="1.04766">
        <ele>207.78</ele>
        <time>2014-03-08T16:23:25Z</time>
      </trkpt>
      <trkpt lat="44.46346" lon="1.04765">
        <ele>207.78</ele>
        <time>2014-03-08T16:23:26Z</time>
      </trkpt>
      <trkpt lat="44.46347" lon="1.04763">
        <ele>208.26</ele>
        <time>2014-03-08T16:23:27Z</time>
      </trkpt>
      <trkpt lat="44.46348" lon="1.04762">
        <ele>207.78</ele>
        <time>2014-03-08T16:23:28Z</time>
      </trkpt>
      <trkpt lat="44.4635" lon="1.0476">
        <ele>207.78</ele>
        <time>2014-03-08T16:23:29Z</time>
      </trkpt>
      <trkpt lat="44.46351" lon="1.04759">
        <ele>207.78</ele>
        <time>2014-03-08T16:23:30Z</time>
      </trkpt>
      <trkpt lat="44.46353" lon="1.04757">
        <ele>207.78</ele>
        <time>2014-03-08T16:23:31Z</time>
      </trkpt>
      <trkpt lat="44.46355" lon="1.04755">
        <ele>207.78</ele>
        <time>2014-03-08T16:23:32Z</time>
      </trkpt>
      <trkpt lat="44.46357" lon="1.04753">
        <ele>207.78</ele>
        <time>2014-03-08T16:23:33Z</time>
      </trkpt>
      <trkpt lat="44.4636" lon="1.04751">
        <ele>207.78</ele>
        <time>2014-03-08T16:23:34Z</time>
      </trkpt>
      <trkpt lat="44.46362" lon="1.04749">
        <ele>208.26</ele>
        <time>2014-03-08T16:23:35Z</time>
      </trkpt>
      <trkpt lat="44.46393" lon="1.04712">
        <ele>209.22</ele>
        <time>2014-03-08T16:23:48Z</time>
      </trkpt>
      <trkpt lat="44.46422" lon="1.04673">
        <ele>210.67</ele>
        <time>2014-03-08T16:24:01Z</time>
      </trkpt>
      <trkpt lat="44.4645" lon="1.04628">
        <ele>211.15</ele>
        <time>2014-03-08T16:24:16Z</time>
      </trkpt>
      <trkpt lat="44.46479" lon="1.04624">
        <ele>212.11</ele>
        <time>2014-03-08T16:24:28Z</time>
      </trkpt>
      <trkpt lat="44.46517" lon="1.04626">
        <ele>214.03</ele>
        <time>2014-03-08T16:24:42Z</time>
      </trkpt>
      <trkpt lat="44.46558" lon="1.04632">
        <ele>214.51</ele>
        <time>2014-03-08T16:24:57Z</time>
      </trkpt>
      <trkpt lat="44.46598" lon="1.04619">
        <ele>215.95</ele>
        <time>2014-03-08T16:25:12Z</time>
      </trkpt>
      <trkpt lat="44.46646" lon="1.04625">
        <ele>215.95</ele>
        <time>2014-03-08T16:25:28Z</time>
      </trkpt>
      <trkpt lat="44.46708" lon="1.04637">
        <ele>214.51</ele>
        <time>2014-03-08T16:25:44Z</time>
      </trkpt>
      <trkpt lat="44.46754" lon="1.04648">
        <ele>214.99</ele>
        <time>2014-03-08T16:25:58Z</time>
      </trkpt>
      <trkpt lat="44.46759" lon="1.04644">
        <ele>215.47</ele>
        <time>2014-03-08T16:26:09Z</time>
      </trkpt>
      <trkpt lat="44.46784" lon="1.04589">
        <ele>215.95</ele>
        <time>2014-03-08T16:26:23Z</time>
      </trkpt>
      <trkpt lat="44.46791" lon="1.04575">
        <ele>215.95</ele>
        <time>2014-03-08T16:26:26Z</time>
      </trkpt>
      <trkpt lat="44.46804" lon="1.04548">
        <ele>214.99</ele>
        <time>2014-03-08T16:26:32Z</time>
      </trkpt>
      <trkpt lat="44.46806" lon="1.04542">
        <ele>215.47</ele>
        <time>2014-03-08T16:26:33Z</time>
      </trkpt>
      <trkpt lat="44.46807" lon="1.04536">
        <ele>215.47</ele>
        <time>2014-03-08T16:26:34Z</time>
      </trkpt>
      <trkpt lat="44.46807" lon="1.04531">
        <ele>215.47</ele>
        <time>2014-03-08T16:26:35Z</time>
      </trkpt>
      <trkpt lat="44.46806" lon="1.04525">
        <ele>215.47</ele>
        <time>2014-03-08T16:26:36Z</time>
      </trkpt>
      <trkpt lat="44.46806" lon="1.04519">
        <ele>215.47</ele>
        <time>2014-03-08T16:26:37Z</time>
      </trkpt>
      <trkpt lat="44.46805" lon="1.04497">
        <ele>215.47</ele>
        <time>2014-03-08T16:26:41Z</time>
      </trkpt>
      <trkpt lat="44.46806" lon="1.04491">
        <ele>215.47</ele>
        <time>2014-03-08T16:26:42Z</time>
      </trkpt>
      <trkpt lat="44.46807" lon="1.04486">
        <ele>215.47</ele>
        <time>2014-03-08T16:26:43Z</time>
      </trkpt>
      <trkpt lat="44.46809" lon="1.04481">
        <ele>215.47</ele>
        <time>2014-03-08T16:26:44Z</time>
      </trkpt>
      <trkpt lat="44.46812" lon="1.04477">
        <ele>215.47</ele>
        <time>2014-03-08T16:26:45Z</time>
      </trkpt>
      <trkpt lat="44.46859" lon="1.04426">
        <ele>216.91</ele>
        <time>2014-03-08T16:27:00Z</time>
      </trkpt>
      <trkpt lat="44.46911" lon="1.04382">
        <ele>217.88</ele>
        <time>2014-03-08T16:27:17Z</time>
      </trkpt>
      <trkpt lat="44.46945" lon="1.04312">
        <ele>215.47</ele>
        <time>2014-03-08T16:27:30Z</time>
      </trkpt>
      <trkpt lat="44.46961" lon="1.04278">
        <ele>214.51</ele>
        <time>2014-03-08T16:27:35Z</time>
      </trkpt>
      <trkpt lat="44.46999" lon="1.04199">
        <ele>215.95</ele>
        <time>2014-03-08T16:27:48Z</time>
      </trkpt>
      <trkpt lat="44.47031" lon="1.04103">
        <ele>214.99</ele>
        <time>2014-03-08T16:28:00Z</time>
      </trkpt>
      <trkpt lat="44.47042" lon="1.0407">
        <ele>214.03</ele>
        <time>2014-03-08T16:28:04Z</time>
      </trkpt>
      <trkpt lat="44.4708" lon="1.03962">
        <ele>213.07</ele>
        <time>2014-03-08T16:28:18Z</time>
      </trkpt>
      <trkpt lat="44.47115" lon="1.03868">
        <ele>211.63</ele>
        <time>2014-03-08T16:28:30Z</time>
      </trkpt>
      <trkpt lat="44.47118" lon="1.03861">
        <ele>211.63</ele>
        <time>2014-03-08T16:28:31Z</time>
      </trkpt>
      <trkpt lat="44.47138" lon="1.03817">
        <ele>210.19</ele>
        <time>2014-03-08T16:28:37Z</time>
      </trkpt>
      <trkpt lat="44.47155" lon="1.03752">
        <ele>206.34</ele>
        <time>2014-03-08T16:28:45Z</time>
      </trkpt>
      <trkpt lat="44.47159" lon="1.03735">
        <ele>204.9</ele>
        <time>2014-03-08T16:28:47Z</time>
      </trkpt>
      <trkpt lat="44.47169" lon="1.03692">
        <ele>201.53</ele>
        <time>2014-03-08T16:28:52Z</time>
      </trkpt>
      <trkpt lat="44.47191" lon="1.03609">
        <ele>195.28</ele>
        <time>2014-03-08T16:29:04Z</time>
      </trkpt>
      <trkpt lat="44.47199" lon="1.03567">
        <ele>191.92</ele>
        <time>2014-03-08T16:29:10Z</time>
      </trkpt>
      <trkpt lat="44.47205" lon="1.03523">
        <ele>190</ele>
        <time>2014-03-08T16:29:16Z</time>
      </trkpt>
      <trkpt lat="44.47205" lon="1.03506">
        <ele>189.04</ele>
        <time>2014-03-08T16:29:18Z</time>
      </trkpt>
      <trkpt lat="44.47202" lon="1.03477">
        <ele>188.08</ele>
        <time>2014-03-08T16:29:21Z</time>
      </trkpt>
      <trkpt lat="44.47193" lon="1.03431">
        <ele>186.15</ele>
        <time>2014-03-08T16:29:26Z</time>
      </trkpt>
      <trkpt lat="44.47184" lon="1.03398">
        <ele>184.23</ele>
        <time>2014-03-08T16:29:31Z</time>
      </trkpt>
      <trkpt lat="44.47179" lon="1.03348">
        <ele>179.9</ele>
        <time>2014-03-08T16:29:43Z</time>
      </trkpt>
      <trkpt lat="44.47176" lon="1.03314">
        <ele>175.1</ele>
        <time>2014-03-08T16:29:55Z</time>
      </trkpt>
      <trkpt lat="44.47174" lon="1.03286">
        <ele>169.33</ele>
        <time>2014-03-08T16:30:05Z</time>
      </trkpt>
      <trkpt lat="44.47175" lon="1.03263">
        <ele>164.52</ele>
        <time>2014-03-08T16:30:14Z</time>
      </trkpt>
      <trkpt lat="44.47177" lon="1.03248">
        <ele>162.12</ele>
        <time>2014-03-08T16:30:17Z</time>
      </trkpt>
      <trkpt lat="44.47181" lon="1.03222">
        <ele>160.2</ele>
        <time>2014-03-08T16:30:23Z</time>
      </trkpt>
      <trkpt lat="44.47179" lon="1.03217">
        <ele>159.24</ele>
        <time>2014-03-08T16:30:32Z</time>
      </trkpt>
      <trkpt lat="44.4718" lon="1.03215">
        <ele>161.64</ele>
        <time>2014-03-08T16:30:52Z</time>
      </trkpt>
      <trkpt lat="44.4718" lon="1.03216">
        <ele>161.16</ele>
        <time>2014-03-08T16:31:16Z</time>
      </trkpt>
      <trkpt lat="44.47179" lon="1.03216">
        <ele>161.16</ele>
        <time>2014-03-08T16:31:40Z</time>
      </trkpt>
      <trkpt lat="44.47179" lon="1.03216">
        <ele>162.12</ele>
        <time>2014-03-08T16:32:08Z</time>
      </trkpt>
      <trkpt lat="44.47179" lon="1.03215">
        <ele>161.64</ele>
        <time>2014-03-08T16:32:13Z</time>
      </trkpt>
      <trkpt lat="44.47179" lon="1.03213">
        <ele>161.64</ele>
        <time>2014-03-08T16:32:14Z</time>
      </trkpt>
      <trkpt lat="44.47176" lon="1.03192">
        <ele>161.16</ele>
        <time>2014-03-08T16:32:19Z</time>
      </trkpt>
      <trkpt lat="44.47175" lon="1.03185">
        <ele>161.16</ele>
        <time>2014-03-08T16:32:20Z</time>
      </trkpt>
      <trkpt lat="44.47174" lon="1.03179">
        <ele>161.16</ele>
        <time>2014-03-08T16:32:21Z</time>
      </trkpt>
      <trkpt lat="44.47173" lon="1.03172">
        <ele>160.68</ele>
        <time>2014-03-08T16:32:22Z</time>
      </trkpt>
      <trkpt lat="44.47172" lon="1.03165">
        <ele>160.68</ele>
        <time>2014-03-08T16:32:23Z</time>
      </trkpt>
      <trkpt lat="44.47168" lon="1.03137">
        <ele>160.2</ele>
        <time>2014-03-08T16:32:27Z</time>
      </trkpt>
      <trkpt lat="44.47167" lon="1.0313">
        <ele>160.2</ele>
        <time>2014-03-08T16:32:28Z</time>
      </trkpt>
      <trkpt lat="44.47165" lon="1.03097">
        <ele>160.2</ele>
        <time>2014-03-08T16:32:33Z</time>
      </trkpt>
      <trkpt lat="44.47165" lon="1.03091">
        <ele>159.72</ele>
        <time>2014-03-08T16:32:34Z</time>
      </trkpt>
      <trkpt lat="44.47166" lon="1.03084">
        <ele>159.72</ele>
        <time>2014-03-08T16:32:35Z</time>
      </trkpt>
      <trkpt lat="44.4718" lon="1.0301">
        <ele>155.87</ele>
        <time>2014-03-08T16:32:44Z</time>
      </trkpt>
      <trkpt lat="44.4718" lon="1.02999">
        <ele>155.39</ele>
        <time>2014-03-08T16:32:45Z</time>
      </trkpt>
      <trkpt lat="44.4718" lon="1.02987">
        <ele>154.91</ele>
        <time>2014-03-08T16:32:46Z</time>
      </trkpt>
      <trkpt lat="44.47179" lon="1.02976">
        <ele>153.95</ele>
        <time>2014-03-08T16:32:47Z</time>
      </trkpt>
      <trkpt lat="44.47177" lon="1.02964">
        <ele>153.47</ele>
        <time>2014-03-08T16:32:48Z</time>
      </trkpt>
      <trkpt lat="44.47162" lon="1.02815">
        <ele>149.62</ele>
        <time>2014-03-08T16:33:00Z</time>
      </trkpt>
      <trkpt lat="44.47133" lon="1.02726">
        <ele>147.7</ele>
        <time>2014-03-08T16:33:08Z</time>
      </trkpt>
      <trkpt lat="44.47131" lon="1.02716">
        <ele>147.7</ele>
        <time>2014-03-08T16:33:09Z</time>
      </trkpt>
      <trkpt lat="44.4713" lon="1.02706">
        <ele>147.7</ele>
        <time>2014-03-08T16:33:10Z</time>
      </trkpt>
      <trkpt lat="44.4713" lon="1.02697">
        <ele>147.7</ele>
        <time>2014-03-08T16:33:11Z</time>
      </trkpt>
      <trkpt lat="44.47131" lon="1.02688">
        <ele>147.7</ele>
        <time>2014-03-08T16:33:12Z</time>
      </trkpt>
      <trkpt lat="44.47131" lon="1.0268">
        <ele>147.22</ele>
        <time>2014-03-08T16:33:13Z</time>
      </trkpt>
      <trkpt lat="44.4715" lon="1.02569">
        <ele>145.78</ele>
        <time>2014-03-08T16:33:24Z</time>
      </trkpt>
      <trkpt lat="44.47172" lon="1.02507">
        <ele>142.89</ele>
        <time>2014-03-08T16:33:30Z</time>
      </trkpt>
      <trkpt lat="44.47175" lon="1.02495">
        <ele>142.41</ele>
        <time>2014-03-08T16:33:31Z</time>
      </trkpt>
      <trkpt lat="44.47175" lon="1.02481">
        <ele>141.93</ele>
        <time>2014-03-08T16:33:32Z</time>
      </trkpt>
      <trkpt lat="44.47174" lon="1.02468">
        <ele>141.45</ele>
        <time>2014-03-08T16:33:33Z</time>
      </trkpt>
      <trkpt lat="44.47172" lon="1.02455">
        <ele>140.97</ele>
        <time>2014-03-08T16:33:34Z</time>
      </trkpt>
      <trkpt lat="44.47131" lon="1.02257">
        <ele>132.8</ele>
        <time>2014-03-08T16:33:48Z</time>
      </trkpt>
      <trkpt lat="44.4709" lon="1.02072">
        <ele>122.22</ele>
        <time>2014-03-08T16:34:00Z</time>
      </trkpt>
      <trkpt lat="44.47075" lon="1.01919">
        <ele>117.42</ele>
        <time>2014-03-08T16:34:11Z</time>
      </trkpt>
      <trkpt lat="44.4709" lon="1.01782">
        <ele>116.46</ele>
        <time>2014-03-08T16:34:23Z</time>
      </trkpt>
      <trkpt lat="44.47103" lon="1.01626">
        <ele>112.61</ele>
        <time>2014-03-08T16:34:35Z</time>
      </trkpt>
      <trkpt lat="44.47099" lon="1.01494">
        <ele>109.73</ele>
        <time>2014-03-08T16:34:44Z</time>
      </trkpt>
      <trkpt lat="44.47093" lon="1.01434">
        <ele>112.13</ele>
        <time>2014-03-08T16:34:51Z</time>
      </trkpt>
      <trkpt lat="44.47093" lon="1.01426">
        <ele>112.61</ele>
        <time>2014-03-08T16:34:52Z</time>
      </trkpt>
      <trkpt lat="44.47092" lon="1.01418">
        <ele>113.09</ele>
        <time>2014-03-08T16:34:53Z</time>
      </trkpt>
      <trkpt lat="44.47091" lon="1.0141">
        <ele>113.57</ele>
        <time>2014-03-08T16:34:54Z</time>
      </trkpt>
      <trkpt lat="44.47091" lon="1.01403">
        <ele>114.05</ele>
        <time>2014-03-08T16:34:55Z</time>
      </trkpt>
      <trkpt lat="44.47089" lon="1.01373">
        <ele>116.94</ele>
        <time>2014-03-08T16:35:00Z</time>
      </trkpt>
      <trkpt lat="44.47088" lon="1.0134">
        <ele>119.82</ele>
        <time>2014-03-08T16:35:05Z</time>
      </trkpt>
      <trkpt lat="44.47094" lon="1.01271">
        <ele>125.11</ele>
        <time>2014-03-08T16:35:19Z</time>
      </trkpt>
      <trkpt lat="44.47094" lon="1.01265">
        <ele>125.59</ele>
        <time>2014-03-08T16:35:21Z</time>
      </trkpt>
      <trkpt lat="44.47093" lon="1.01256">
        <ele>126.55</ele>
        <time>2014-03-08T16:35:25Z</time>
      </trkpt>
      <trkpt lat="44.47094" lon="1.01254">
        <ele>126.55</ele>
        <time>2014-03-08T16:35:26Z</time>
      </trkpt>
      <trkpt lat="44.47094" lon="1.01251">
        <ele>126.55</ele>
        <time>2014-03-08T16:35:27Z</time>
      </trkpt>
      <trkpt lat="44.47094" lon="1.01249">
        <ele>126.55</ele>
        <time>2014-03-08T16:35:28Z</time>
      </trkpt>
      <trkpt lat="44.47093" lon="1.01247">
        <ele>126.55</ele>
        <time>2014-03-08T16:35:29Z</time>
      </trkpt>
      <trkpt lat="44.47094" lon="1.01239">
        <ele>127.51</ele>
        <time>2014-03-08T16:35:33Z</time>
      </trkpt>
      <trkpt lat="44.47094" lon="1.01238">
        <ele>127.51</ele>
        <time>2014-03-08T16:35:34Z</time>
      </trkpt>
      <trkpt lat="44.47093" lon="1.01236">
        <ele>127.99</ele>
        <time>2014-03-08T16:35:35Z</time>
      </trkpt>
      <trkpt lat="44.47092" lon="1.01229">
        <ele>127.99</ele>
        <time>2014-03-08T16:35:40Z</time>
      </trkpt>
      <trkpt lat="44.47092" lon="1.01227">
        <ele>127.99</ele>
        <time>2014-03-08T16:35:41Z</time>
      </trkpt>
      <trkpt lat="44.47092" lon="1.01225">
        <ele>127.51</ele>
        <time>2014-03-08T16:35:42Z</time>
      </trkpt>
      <trkpt lat="44.4709" lon="1.01224">
        <ele>125.59</ele>
        <time>2014-03-08T16:35:55Z</time>
      </trkpt>
      <trkpt lat="44.47091" lon="1.01222">
        <ele>126.55</ele>
        <time>2014-03-08T16:36:23Z</time>
      </trkpt>
      <trkpt lat="44.4709" lon="1.01209">
        <ele>127.51</ele>
        <time>2014-03-08T16:36:50Z</time>
      </trkpt>
      <trkpt lat="44.4709" lon="1.01192">
        <ele>127.03</ele>
        <time>2014-03-08T16:36:53Z</time>
      </trkpt>
      <trkpt lat="44.47089" lon="1.01185">
        <ele>126.55</ele>
        <time>2014-03-08T16:36:54Z</time>
      </trkpt>
      <trkpt lat="44.47089" lon="1.01178">
        <ele>126.07</ele>
        <time>2014-03-08T16:36:55Z</time>
      </trkpt>
      <trkpt lat="44.47089" lon="1.01136">
        <ele>124.63</ele>
        <time>2014-03-08T16:37:00Z</time>
      </trkpt>
      <trkpt lat="44.4709" lon="1.01129">
        <ele>124.63</ele>
        <time>2014-03-08T16:37:01Z</time>
      </trkpt>
      <trkpt lat="44.47092" lon="1.01122">
        <ele>124.63</ele>
        <time>2014-03-08T16:37:02Z</time>
      </trkpt>
      <trkpt lat="44.47094" lon="1.01116">
        <ele>124.63</ele>
        <time>2014-03-08T16:37:03Z</time>
      </trkpt>
      <trkpt lat="44.47096" lon="1.0111">
        <ele>124.63</ele>
        <time>2014-03-08T16:37:04Z</time>
      </trkpt>
      <trkpt lat="44.47099" lon="1.01104">
        <ele>125.11</ele>
        <time>2014-03-08T16:37:05Z</time>
      </trkpt>
      <trkpt lat="44.47102" lon="1.011">
        <ele>125.59</ele>
        <time>2014-03-08T16:37:06Z</time>
      </trkpt>
      <trkpt lat="44.47113" lon="1.01078">
        <ele>127.51</ele>
        <time>2014-03-08T16:37:10Z</time>
      </trkpt>
      <trkpt lat="44.47115" lon="1.01072">
        <ele>127.99</ele>
        <time>2014-03-08T16:37:11Z</time>
      </trkpt>
      <trkpt lat="44.47117" lon="1.01067">
        <ele>128.47</ele>
        <time>2014-03-08T16:37:12Z</time>
      </trkpt>
      <trkpt lat="44.47118" lon="1.01061">
        <ele>128.95</ele>
        <time>2014-03-08T16:37:13Z</time>
      </trkpt>
      <trkpt lat="44.4712" lon="1.01056">
        <ele>129.43</ele>
        <time>2014-03-08T16:37:14Z</time>
      </trkpt>
      <trkpt lat="44.47122" lon="1.0105">
        <ele>129.92</ele>
        <time>2014-03-08T16:37:15Z</time>
      </trkpt>
      <trkpt lat="44.47134" lon="1.01012">
        <ele>131.84</ele>
        <time>2014-03-08T16:37:24Z</time>
      </trkpt>
      <trkpt lat="44.47134" lon="1.0101">
        <ele>131.36</ele>
        <time>2014-03-08T16:37:25Z</time>
      </trkpt>
      <trkpt lat="44.47135" lon="1.01007">
        <ele>131.84</ele>
        <time>2014-03-08T16:37:26Z</time>
      </trkpt>
      <trkpt lat="44.47137" lon="1.01005">
        <ele>131.84</ele>
        <time>2014-03-08T16:37:27Z</time>
      </trkpt>
      <trkpt lat="44.47138" lon="1.01001">
        <ele>131.84</ele>
        <time>2014-03-08T16:37:28Z</time>
      </trkpt>
      <trkpt lat="44.4715" lon="1.00949">
        <ele>133.28</ele>
        <time>2014-03-08T16:37:39Z</time>
      </trkpt>
      <trkpt lat="44.47172" lon="1.00898">
        <ele>131.84</ele>
        <time>2014-03-08T16:37:52Z</time>
      </trkpt>
      <trkpt lat="44.47182" lon="1.00863">
        <ele>131.36</ele>
        <time>2014-03-08T16:37:59Z</time>
      </trkpt>
      <trkpt lat="44.47187" lon="1.0084">
        <ele>130.4</ele>
        <time>2014-03-08T16:38:03Z</time>
      </trkpt>
      <trkpt lat="44.47189" lon="1.00834">
        <ele>130.4</ele>
        <time>2014-03-08T16:38:04Z</time>
      </trkpt>
      <trkpt lat="44.4719" lon="1.00827">
        <ele>130.4</ele>
        <time>2014-03-08T16:38:05Z</time>
      </trkpt>
      <trkpt lat="44.47191" lon="1.00821">
        <ele>129.92</ele>
        <time>2014-03-08T16:38:06Z</time>
      </trkpt>
      <trkpt lat="44.47193" lon="1.00815">
        <ele>129.43</ele>
        <time>2014-03-08T16:38:07Z</time>
      </trkpt>
      <trkpt lat="44.47194" lon="1.00809">
        <ele>129.43</ele>
        <time>2014-03-08T16:38:08Z</time>
      </trkpt>
      <trkpt lat="44.47195" lon="1.00803">
        <ele>129.43</ele>
        <time>2014-03-08T16:38:09Z</time>
      </trkpt>
      <trkpt lat="44.47197" lon="1.00798">
        <ele>128.95</ele>
        <time>2014-03-08T16:38:10Z</time>
      </trkpt>
      <trkpt lat="44.47198" lon="1.00793">
        <ele>128.95</ele>
        <time>2014-03-08T16:38:11Z</time>
      </trkpt>
      <trkpt lat="44.47199" lon="1.00789">
        <ele>128.95</ele>
        <time>2014-03-08T16:38:12Z</time>
      </trkpt>
      <trkpt lat="44.472" lon="1.00787">
        <ele>128.95</ele>
        <time>2014-03-08T16:38:13Z</time>
      </trkpt>
      <trkpt lat="44.472" lon="1.00785">
        <ele>128.95</ele>
        <time>2014-03-08T16:38:26Z</time>
      </trkpt>
      <trkpt lat="44.47201" lon="1.00785">
        <ele>128.47</ele>
        <time>2014-03-08T16:38:55Z</time>
      </trkpt>
      <trkpt lat="44.472" lon="1.00784">
        <ele>128.47</ele>
        <time>2014-03-08T16:38:56Z</time>
      </trkpt>
      <trkpt lat="44.472" lon="1.00781">
        <ele>128.47</ele>
        <time>2014-03-08T16:38:58Z</time>
      </trkpt>
      <trkpt lat="44.472" lon="1.00779">
        <ele>128.47</ele>
        <time>2014-03-08T16:38:59Z</time>
      </trkpt>
      <trkpt lat="44.47199" lon="1.00777">
        <ele>128.47</ele>
        <time>2014-03-08T16:39:00Z</time>
      </trkpt>
      <trkpt lat="44.47196" lon="1.00774">
        <ele>128.47</ele>
        <time>2014-03-08T16:39:07Z</time>
      </trkpt>
      <trkpt lat="44.47194" lon="1.00773">
        <ele>128.47</ele>
        <time>2014-03-08T16:39:08Z</time>
      </trkpt>
      <trkpt lat="44.47177" lon="1.00769">
        <ele>128.95</ele>
        <time>2014-03-08T16:39:14Z</time>
      </trkpt>
      <trkpt lat="44.47176" lon="1.00764">
        <ele>128.95</ele>
        <time>2014-03-08T16:39:16Z</time>
      </trkpt>
      <trkpt lat="44.47177" lon="1.00761">
        <ele>128.95</ele>
        <time>2014-03-08T16:39:17Z</time>
      </trkpt>
      <trkpt lat="44.47178" lon="1.00757">
        <ele>128.95</ele>
        <time>2014-03-08T16:39:18Z</time>
      </trkpt>
      <trkpt lat="44.47179" lon="1.00752">
        <ele>128.47</ele>
        <time>2014-03-08T16:39:19Z</time>
      </trkpt>
      <trkpt lat="44.4719" lon="1.0068">
        <ele>127.51</ele>
        <time>2014-03-08T16:39:33Z</time>
      </trkpt>
      <trkpt lat="44.47206" lon="1.00596">
        <ele>126.07</ele>
        <time>2014-03-08T16:39:48Z</time>
      </trkpt>
      <trkpt lat="44.47206" lon="1.00589">
        <ele>126.07</ele>
        <time>2014-03-08T16:39:49Z</time>
      </trkpt>
      <trkpt lat="44.47206" lon="1.00583">
        <ele>126.07</ele>
        <time>2014-03-08T16:39:50Z</time>
      </trkpt>
      <trkpt lat="44.47205" lon="1.00577">
        <ele>125.59</ele>
        <time>2014-03-08T16:39:51Z</time>
      </trkpt>
      <trkpt lat="44.47203" lon="1.00571">
        <ele>125.59</ele>
        <time>2014-03-08T16:39:52Z</time>
      </trkpt>
      <trkpt lat="44.47201" lon="1.00565">
        <ele>125.59</ele>
        <time>2014-03-08T16:39:53Z</time>
      </trkpt>
      <trkpt lat="44.47199" lon="1.00558">
        <ele>125.59</ele>
        <time>2014-03-08T16:39:54Z</time>
      </trkpt>
      <trkpt lat="44.47177" lon="1.00497">
        <ele>125.59</ele>
        <time>2014-03-08T16:40:03Z</time>
      </trkpt>
      <trkpt lat="44.47176" lon="1.0049">
        <ele>126.07</ele>
        <time>2014-03-08T16:40:04Z</time>
      </trkpt>
      <trkpt lat="44.47178" lon="1.00483">
        <ele>126.07</ele>
        <time>2014-03-08T16:40:05Z</time>
      </trkpt>
      <trkpt lat="44.47181" lon="1.00476">
        <ele>126.07</ele>
        <time>2014-03-08T16:40:06Z</time>
      </trkpt>
      <trkpt lat="44.47184" lon="1.0047">
        <ele>126.07</ele>
        <time>2014-03-08T16:40:07Z</time>
      </trkpt>
      <trkpt lat="44.47188" lon="1.00465">
        <ele>126.07</ele>
        <time>2014-03-08T16:40:08Z</time>
      </trkpt>
      <trkpt lat="44.4721" lon="1.00428">
        <ele>124.63</ele>
        <time>2014-03-08T16:40:16Z</time>
      </trkpt>
      <trkpt lat="44.4721" lon="1.00425">
        <ele>124.63</ele>
        <time>2014-03-08T16:40:17Z</time>
      </trkpt>
      <trkpt lat="44.47208" lon="1.00422">
        <ele>124.15</ele>
        <time>2014-03-08T16:40:18Z</time>
      </trkpt>
      <trkpt lat="44.47206" lon="1.00419">
        <ele>124.15</ele>
        <time>2014-03-08T16:40:19Z</time>
      </trkpt>
      <trkpt lat="44.47203" lon="1.00416">
        <ele>124.15</ele>
        <time>2014-03-08T16:40:20Z</time>
      </trkpt>
      <trkpt lat="44.47199" lon="1.00414">
        <ele>124.63</ele>
        <time>2014-03-08T16:40:21Z</time>
      </trkpt>
      <trkpt lat="44.47195" lon="1.00412">
        <ele>124.63</ele>
        <time>2014-03-08T16:40:22Z</time>
      </trkpt>
      <trkpt lat="44.47192" lon="1.00409">
        <ele>124.63</ele>
        <time>2014-03-08T16:40:23Z</time>
      </trkpt>
      <trkpt lat="44.47188" lon="1.00408">
        <ele>124.63</ele>
        <time>2014-03-08T16:40:24Z</time>
      </trkpt>
      <trkpt lat="44.47185" lon="1.00406">
        <ele>125.11</ele>
        <time>2014-03-08T16:40:25Z</time>
      </trkpt>
      <trkpt lat="44.47181" lon="1.00404">
        <ele>125.11</ele>
        <time>2014-03-08T16:40:26Z</time>
      </trkpt>
      <trkpt lat="44.47124" lon="1.00374">
        <ele>125.59</ele>
        <time>2014-03-08T16:40:40Z</time>
      </trkpt>
      <trkpt lat="44.47114" lon="1.00369">
        <ele>125.59</ele>
        <time>2014-03-08T16:40:42Z</time>
      </trkpt>
      <trkpt lat="44.4711" lon="1.00365">
        <ele>125.11</ele>
        <time>2014-03-08T16:40:43Z</time>
      </trkpt>
      <trkpt lat="44.47085" lon="1.0035">
        <ele>125.11</ele>
        <time>2014-03-08T16:40:49Z</time>
      </trkpt>
      <trkpt lat="44.47082" lon="1.00346">
        <ele>124.63</ele>
        <time>2014-03-08T16:40:50Z</time>
      </trkpt>
      <trkpt lat="44.4708" lon="1.00341">
        <ele>124.63</ele>
        <time>2014-03-08T16:40:51Z</time>
      </trkpt>
      <trkpt lat="44.4708" lon="1.00335">
        <ele>124.15</ele>
        <time>2014-03-08T16:40:52Z</time>
      </trkpt>
      <trkpt lat="44.47081" lon="1.00328">
        <ele>124.15</ele>
        <time>2014-03-08T16:40:53Z</time>
      </trkpt>
      <trkpt lat="44.47083" lon="1.00321">
        <ele>124.15</ele>
        <time>2014-03-08T16:40:54Z</time>
      </trkpt>
      <trkpt lat="44.47085" lon="1.00315">
        <ele>123.67</ele>
        <time>2014-03-08T16:40:55Z</time>
      </trkpt>
      <trkpt lat="44.47088" lon="1.00308">
        <ele>123.67</ele>
        <time>2014-03-08T16:40:56Z</time>
      </trkpt>
      <trkpt lat="44.4709" lon="1.00301">
        <ele>123.67</ele>
        <time>2014-03-08T16:40:57Z</time>
      </trkpt>
      <trkpt lat="44.47116" lon="1.00193">
        <ele>121.26</ele>
        <time>2014-03-08T16:41:10Z</time>
      </trkpt>
      <trkpt lat="44.47135" lon="1.00056">
        <ele>119.82</ele>
        <time>2014-03-08T16:41:25Z</time>
      </trkpt>
      <trkpt lat="44.47138" lon="1.00038">
        <ele>119.82</ele>
        <time>2014-03-08T16:41:27Z</time>
      </trkpt>
      <trkpt lat="44.47139" lon="1.00029">
        <ele>119.34</ele>
        <time>2014-03-08T16:41:28Z</time>
      </trkpt>
      <trkpt lat="44.47163" lon="0.99912">
        <ele>118.38</ele>
        <time>2014-03-08T16:41:41Z</time>
      </trkpt>
      <trkpt lat="44.47211" lon="0.99816">
        <ele>118.38</ele>
        <time>2014-03-08T16:41:54Z</time>
      </trkpt>
      <trkpt lat="44.47237" lon="0.99755">
        <ele>119.34</ele>
        <time>2014-03-08T16:42:03Z</time>
      </trkpt>
      <trkpt lat="44.47253" lon="0.99701">
        <ele>118.86</ele>
        <time>2014-03-08T16:42:10Z</time>
      </trkpt>
      <trkpt lat="44.47278" lon="0.99566">
        <ele>117.42</ele>
        <time>2014-03-08T16:42:26Z</time>
      </trkpt>
      <trkpt lat="44.47294" lon="0.99412">
        <ele>113.09</ele>
        <time>2014-03-08T16:42:41Z</time>
      </trkpt>
      <trkpt lat="44.47306" lon="0.99245">
        <ele>109.73</ele>
        <time>2014-03-08T16:42:56Z</time>
      </trkpt>
      <trkpt lat="44.47303" lon="0.99133">
        <ele>111.17</ele>
        <time>2014-03-08T16:43:09Z</time>
      </trkpt>
      <trkpt lat="44.47305" lon="0.99125">
        <ele>111.17</ele>
        <time>2014-03-08T16:43:10Z</time>
      </trkpt>
      <trkpt lat="44.47307" lon="0.99118">
        <ele>111.17</ele>
        <time>2014-03-08T16:43:11Z</time>
      </trkpt>
      <trkpt lat="44.4731" lon="0.99111">
        <ele>111.17</ele>
        <time>2014-03-08T16:43:12Z</time>
      </trkpt>
      <trkpt lat="44.47314" lon="0.99104">
        <ele>111.17</ele>
        <time>2014-03-08T16:43:13Z</time>
      </trkpt>
      <trkpt lat="44.47319" lon="0.99098">
        <ele>110.69</ele>
        <time>2014-03-08T16:43:14Z</time>
      </trkpt>
      <trkpt lat="44.47324" lon="0.99093">
        <ele>110.69</ele>
        <time>2014-03-08T16:43:15Z</time>
      </trkpt>
      <trkpt lat="44.47393" lon="0.99009">
        <ele>108.29</ele>
        <time>2014-03-08T16:43:29Z</time>
      </trkpt>
      <trkpt lat="44.4743" lon="0.9892">
        <ele>106.84</ele>
        <time>2014-03-08T16:43:41Z</time>
      </trkpt>
      <trkpt lat="44.47482" lon="0.98827">
        <ele>104.44</ele>
        <time>2014-03-08T16:43:54Z</time>
      </trkpt>
      <trkpt lat="44.47521" lon="0.98762">
        <ele>103</ele>
        <time>2014-03-08T16:44:03Z</time>
      </trkpt>
      <trkpt lat="44.47527" lon="0.98757">
        <ele>103</ele>
        <time>2014-03-08T16:44:04Z</time>
      </trkpt>
      <trkpt lat="44.47537" lon="0.98747">
        <ele>102.04</ele>
        <time>2014-03-08T16:44:06Z</time>
      </trkpt>
      <trkpt lat="44.47542" lon="0.98741">
        <ele>102.04</ele>
        <time>2014-03-08T16:44:07Z</time>
      </trkpt>
      <trkpt lat="44.47545" lon="0.98734">
        <ele>101.56</ele>
        <time>2014-03-08T16:44:08Z</time>
      </trkpt>
      <trkpt lat="44.47548" lon="0.98727">
        <ele>101.56</ele>
        <time>2014-03-08T16:44:09Z</time>
      </trkpt>
      <trkpt lat="44.47551" lon="0.9872">
        <ele>101.56</ele>
        <time>2014-03-08T16:44:10Z</time>
      </trkpt>
      <trkpt lat="44.47556" lon="0.98705">
        <ele>101.56</ele>
        <time>2014-03-08T16:44:12Z</time>
      </trkpt>
      <trkpt lat="44.47559" lon="0.98696">
        <ele>101.56</ele>
        <time>2014-03-08T16:44:13Z</time>
      </trkpt>
      <trkpt lat="44.47564" lon="0.9868">
        <ele>101.56</ele>
        <time>2014-03-08T16:44:15Z</time>
      </trkpt>
      <trkpt lat="44.47566" lon="0.98672">
        <ele>101.08</ele>
        <time>2014-03-08T16:44:16Z</time>
      </trkpt>
      <trkpt lat="44.476" lon="0.98561">
        <ele>102.04</ele>
        <time>2014-03-08T16:44:29Z</time>
      </trkpt>
      <trkpt lat="44.47632" lon="0.98446">
        <ele>100.11</ele>
        <time>2014-03-08T16:44:42Z</time>
      </trkpt>
      <trkpt lat="44.47653" lon="0.98372">
        <ele>98.19</ele>
        <time>2014-03-08T16:44:51Z</time>
      </trkpt>
      <trkpt lat="44.47652" lon="0.98319">
        <ele>97.23</ele>
        <time>2014-03-08T16:45:01Z</time>
      </trkpt>
      <trkpt lat="44.47634" lon="0.98219">
        <ele>97.23</ele>
        <time>2014-03-08T16:45:16Z</time>
      </trkpt>
      <trkpt lat="44.47626" lon="0.98178">
        <ele>97.23</ele>
        <time>2014-03-08T16:45:22Z</time>
      </trkpt>
      <trkpt lat="44.4762" lon="0.98153">
        <ele>97.23</ele>
        <time>2014-03-08T16:45:26Z</time>
      </trkpt>
      <trkpt lat="44.47619" lon="0.98147">
        <ele>97.23</ele>
        <time>2014-03-08T16:45:27Z</time>
      </trkpt>
      <trkpt lat="44.47614" lon="0.98134">
        <ele>97.71</ele>
        <time>2014-03-08T16:45:29Z</time>
      </trkpt>
      <trkpt lat="44.47571" lon="0.98058">
        <ele>99.63</ele>
        <time>2014-03-08T16:45:44Z</time>
      </trkpt>
      <trkpt lat="44.4753" lon="0.97996">
        <ele>101.08</ele>
        <time>2014-03-08T16:45:58Z</time>
      </trkpt>
      <trkpt lat="44.47508" lon="0.97964">
        <ele>101.08</ele>
        <time>2014-03-08T16:46:05Z</time>
      </trkpt>
      <trkpt lat="44.47493" lon="0.97941">
        <ele>101.08</ele>
        <time>2014-03-08T16:46:10Z</time>
      </trkpt>
      <trkpt lat="44.47486" lon="0.97934">
        <ele>101.08</ele>
        <time>2014-03-08T16:46:12Z</time>
      </trkpt>
      <trkpt lat="44.47483" lon="0.97929">
        <ele>101.08</ele>
        <time>2014-03-08T16:46:13Z</time>
      </trkpt>
      <trkpt lat="44.47479" lon="0.97924">
        <ele>101.08</ele>
        <time>2014-03-08T16:46:14Z</time>
      </trkpt>
      <trkpt lat="44.47452" lon="0.97887">
        <ele>101.56</ele>
        <time>2014-03-08T16:46:22Z</time>
      </trkpt>
      <trkpt lat="44.47448" lon="0.97882">
        <ele>102.04</ele>
        <time>2014-03-08T16:46:23Z</time>
      </trkpt>
      <trkpt lat="44.47442" lon="0.97873">
        <ele>102.04</ele>
        <time>2014-03-08T16:46:25Z</time>
      </trkpt>
      <trkpt lat="44.47433" lon="0.97862">
        <ele>102.04</ele>
        <time>2014-03-08T16:46:28Z</time>
      </trkpt>
      <trkpt lat="44.47408" lon="0.97831">
        <ele>101.56</ele>
        <time>2014-03-08T16:46:36Z</time>
      </trkpt>
      <trkpt lat="44.47355" lon="0.97761">
        <ele>100.11</ele>
        <time>2014-03-08T16:46:50Z</time>
      </trkpt>
      <trkpt lat="44.47322" lon="0.97734">
        <ele>100.6</ele>
        <time>2014-03-08T16:46:58Z</time>
      </trkpt>
      <trkpt lat="44.47318" lon="0.97731">
        <ele>100.6</ele>
        <time>2014-03-08T16:46:59Z</time>
      </trkpt>
      <trkpt lat="44.47314" lon="0.97729">
        <ele>100.6</ele>
        <time>2014-03-08T16:47:00Z</time>
      </trkpt>
      <trkpt lat="44.4724" lon="0.97713">
        <ele>99.63</ele>
        <time>2014-03-08T16:47:17Z</time>
      </trkpt>
      <trkpt lat="44.47178" lon="0.97696">
        <ele>100.6</ele>
        <time>2014-03-08T16:47:33Z</time>
      </trkpt>
      <trkpt lat="44.4717" lon="0.97693">
        <ele>100.6</ele>
        <time>2014-03-08T16:47:35Z</time>
      </trkpt>
      <trkpt lat="44.47158" lon="0.97687">
        <ele>100.6</ele>
        <time>2014-03-08T16:47:38Z</time>
      </trkpt>
      <trkpt lat="44.47154" lon="0.97686">
        <ele>101.08</ele>
        <time>2014-03-08T16:47:39Z</time>
      </trkpt>
      <trkpt lat="44.47151" lon="0.97684">
        <ele>101.08</ele>
        <time>2014-03-08T16:47:40Z</time>
      </trkpt>
      <trkpt lat="44.47144" lon="0.97678">
        <ele>101.56</ele>
        <time>2014-03-08T16:47:42Z</time>
      </trkpt>
      <trkpt lat="44.47088" lon="0.97632">
        <ele>103.96</ele>
        <time>2014-03-08T16:47:58Z</time>
      </trkpt>
      <trkpt lat="44.47058" lon="0.9759">
        <ele>103.96</ele>
        <time>2014-03-08T16:48:09Z</time>
      </trkpt>
      <trkpt lat="44.47031" lon="0.97517">
        <ele>102.04</ele>
        <time>2014-03-08T16:48:22Z</time>
      </trkpt>
      <trkpt lat="44.47027" lon="0.97502">
        <ele>102.04</ele>
        <time>2014-03-08T16:48:24Z</time>
      </trkpt>
      <trkpt lat="44.46994" lon="0.97376">
        <ele>97.23</ele>
        <time>2014-03-08T16:48:38Z</time>
      </trkpt>
      <trkpt lat="44.46969" lon="0.97263">
        <ele>96.75</ele>
        <time>2014-03-08T16:48:52Z</time>
      </trkpt>
      <trkpt lat="44.46926" lon="0.97166">
        <ele>98.19</ele>
        <time>2014-03-08T16:49:08Z</time>
      </trkpt>
      <trkpt lat="44.46924" lon="0.97161">
        <ele>98.19</ele>
        <time>2014-03-08T16:49:09Z</time>
      </trkpt>
      <trkpt lat="44.46921" lon="0.97155">
        <ele>98.19</ele>
        <time>2014-03-08T16:49:10Z</time>
      </trkpt>
      <trkpt lat="44.46896" lon="0.97098">
        <ele>99.15</ele>
        <time>2014-03-08T16:49:20Z</time>
      </trkpt>
      <trkpt lat="44.46894" lon="0.97093">
        <ele>99.15</ele>
        <time>2014-03-08T16:49:21Z</time>
      </trkpt>
      <trkpt lat="44.46892" lon="0.97087">
        <ele>99.15</ele>
        <time>2014-03-08T16:49:22Z</time>
      </trkpt>
      <trkpt lat="44.46876" lon="0.97044">
        <ele>100.11</ele>
        <time>2014-03-08T16:49:30Z</time>
      </trkpt>
      <trkpt lat="44.46869" lon="0.97029">
        <ele>100.6</ele>
        <time>2014-03-08T16:49:33Z</time>
      </trkpt>
      <trkpt lat="44.46867" lon="0.97023">
        <ele>100.6</ele>
        <time>2014-03-08T16:49:34Z</time>
      </trkpt>
      <trkpt lat="44.46839" lon="0.96958">
        <ele>103.96</ele>
        <time>2014-03-08T16:49:48Z</time>
      </trkpt>
      <trkpt lat="44.46824" lon="0.96918">
        <ele>109.73</ele>
        <time>2014-03-08T16:50:00Z</time>
      </trkpt>
      <trkpt lat="44.46806" lon="0.96872">
        <ele>112.13</ele>
        <time>2014-03-08T16:50:13Z</time>
      </trkpt>
      <trkpt lat="44.4679" lon="0.96828">
        <ele>113.57</ele>
        <time>2014-03-08T16:50:27Z</time>
      </trkpt>
      <trkpt lat="44.46788" lon="0.96822">
        <ele>113.57</ele>
        <time>2014-03-08T16:50:29Z</time>
      </trkpt>
      <trkpt lat="44.46771" lon="0.96776">
        <ele>115.01</ele>
        <time>2014-03-08T16:50:42Z</time>
      </trkpt>
      <trkpt lat="44.46748" lon="0.96724">
        <ele>115.98</ele>
        <time>2014-03-08T16:50:56Z</time>
      </trkpt>
      <trkpt lat="44.4673" lon="0.96673">
        <ele>115.98</ele>
        <time>2014-03-08T16:51:10Z</time>
      </trkpt>
      <trkpt lat="44.46721" lon="0.96625">
        <ele>115.01</ele>
        <time>2014-03-08T16:51:20Z</time>
      </trkpt>
      <trkpt lat="44.46707" lon="0.96539">
        <ele>115.5</ele>
        <time>2014-03-08T16:51:35Z</time>
      </trkpt>
      <trkpt lat="44.46702" lon="0.96521">
        <ele>115.5</ele>
        <time>2014-03-08T16:51:38Z</time>
      </trkpt>
      <trkpt lat="44.46691" lon="0.96493">
        <ele>115.5</ele>
        <time>2014-03-08T16:51:43Z</time>
      </trkpt>
      <trkpt lat="44.46688" lon="0.96488">
        <ele>115.5</ele>
        <time>2014-03-08T16:51:44Z</time>
      </trkpt>
      <trkpt lat="44.46655" lon="0.96421">
        <ele>115.01</ele>
        <time>2014-03-08T16:51:59Z</time>
      </trkpt>
      <trkpt lat="44.46648" lon="0.96406">
        <ele>115.01</ele>
        <time>2014-03-08T16:52:09Z</time>
      </trkpt>
      <trkpt lat="44.46645" lon="0.96394">
        <ele>114.53</ele>
        <time>2014-03-08T16:52:27Z</time>
      </trkpt>
      <trkpt lat="44.46634" lon="0.96349">
        <ele>114.05</ele>
        <time>2014-03-08T16:52:36Z</time>
      </trkpt>
      <trkpt lat="44.46628" lon="0.96324">
        <ele>115.01</ele>
        <time>2014-03-08T16:52:40Z</time>
      </trkpt>
      <trkpt lat="44.46627" lon="0.96317">
        <ele>115.5</ele>
        <time>2014-03-08T16:52:41Z</time>
      </trkpt>
      <trkpt lat="44.46613" lon="0.96265">
        <ele>114.05</ele>
        <time>2014-03-08T16:52:49Z</time>
      </trkpt>
      <trkpt lat="44.46609" lon="0.96258">
        <ele>114.05</ele>
        <time>2014-03-08T16:52:50Z</time>
      </trkpt>
      <trkpt lat="44.46566" lon="0.96173">
        <ele>112.61</ele>
        <time>2014-03-08T16:53:04Z</time>
      </trkpt>
      <trkpt lat="44.46565" lon="0.96169">
        <ele>112.61</ele>
        <time>2014-03-08T16:53:05Z</time>
      </trkpt>
      <trkpt lat="44.46566" lon="0.96165">
        <ele>112.61</ele>
        <time>2014-03-08T16:53:06Z</time>
      </trkpt>
      <trkpt lat="44.46568" lon="0.96161">
        <ele>112.61</ele>
        <time>2014-03-08T16:53:07Z</time>
      </trkpt>
      <trkpt lat="44.46571" lon="0.96158">
        <ele>112.61</ele>
        <time>2014-03-08T16:53:08Z</time>
      </trkpt>
      <trkpt lat="44.46574" lon="0.96155">
        <ele>112.61</ele>
        <time>2014-03-08T16:53:09Z</time>
      </trkpt>
      <trkpt lat="44.46591" lon="0.96139">
        <ele>111.65</ele>
        <time>2014-03-08T16:53:13Z</time>
      </trkpt>
      <trkpt lat="44.46596" lon="0.96134">
        <ele>111.17</ele>
        <time>2014-03-08T16:53:14Z</time>
      </trkpt>
      <trkpt lat="44.4666" lon="0.96064">
        <ele>107.81</ele>
        <time>2014-03-08T16:53:27Z</time>
      </trkpt>
      <trkpt lat="44.46663" lon="0.96059">
        <ele>107.32</ele>
        <time>2014-03-08T16:53:28Z</time>
      </trkpt>
      <trkpt lat="44.46695" lon="0.96018">
        <ele>106.84</ele>
        <time>2014-03-08T16:53:38Z</time>
      </trkpt>
      <trkpt lat="44.46711" lon="0.95999">
        <ele>105.88</ele>
        <time>2014-03-08T16:53:42Z</time>
      </trkpt>
      <trkpt lat="44.46766" lon="0.95924">
        <ele>103</ele>
        <time>2014-03-08T16:53:55Z</time>
      </trkpt>
      <trkpt lat="44.46782" lon="0.959">
        <ele>103</ele>
        <time>2014-03-08T16:53:59Z</time>
      </trkpt>
      <trkpt lat="44.46787" lon="0.95895">
        <ele>103</ele>
        <time>2014-03-08T16:54:00Z</time>
      </trkpt>
      <trkpt lat="44.46792" lon="0.95889">
        <ele>102.52</ele>
        <time>2014-03-08T16:54:01Z</time>
      </trkpt>
      <trkpt lat="44.46871" lon="0.95819">
        <ele>101.56</ele>
        <time>2014-03-08T16:54:14Z</time>
      </trkpt>
      <trkpt lat="44.46948" lon="0.95745">
        <ele>102.04</ele>
        <time>2014-03-08T16:54:28Z</time>
      </trkpt>
      <trkpt lat="44.47018" lon="0.9569">
        <ele>102.52</ele>
        <time>2014-03-08T16:54:42Z</time>
      </trkpt>
      <trkpt lat="44.47032" lon="0.95679">
        <ele>102.52</ele>
        <time>2014-03-08T16:54:45Z</time>
      </trkpt>
      <trkpt lat="44.47038" lon="0.95676">
        <ele>102.52</ele>
        <time>2014-03-08T16:54:46Z</time>
      </trkpt>
      <trkpt lat="44.47102" lon="0.9563">
        <ele>102.04</ele>
        <time>2014-03-08T16:54:59Z</time>
      </trkpt>
      <trkpt lat="44.47153" lon="0.95596">
        <ele>102.52</ele>
        <time>2014-03-08T16:55:10Z</time>
      </trkpt>
      <trkpt lat="44.47157" lon="0.95594">
        <ele>102.52</ele>
        <time>2014-03-08T16:55:11Z</time>
      </trkpt>
      <trkpt lat="44.47162" lon="0.95592">
        <ele>102.52</ele>
        <time>2014-03-08T16:55:12Z</time>
      </trkpt>
      <trkpt lat="44.47167" lon="0.95591">
        <ele>102.04</ele>
        <time>2014-03-08T16:55:13Z</time>
      </trkpt>
      <trkpt lat="44.47173" lon="0.95591">
        <ele>102.04</ele>
        <time>2014-03-08T16:55:14Z</time>
      </trkpt>
      <trkpt lat="44.47179" lon="0.95591">
        <ele>102.04</ele>
        <time>2014-03-08T16:55:15Z</time>
      </trkpt>
      <trkpt lat="44.47185" lon="0.95593">
        <ele>101.56</ele>
        <time>2014-03-08T16:55:16Z</time>
      </trkpt>
      <trkpt lat="44.47192" lon="0.95595">
        <ele>101.56</ele>
        <time>2014-03-08T16:55:17Z</time>
      </trkpt>
      <trkpt lat="44.47212" lon="0.95599">
        <ele>100.6</ele>
        <time>2014-03-08T16:55:20Z</time>
      </trkpt>
      <trkpt lat="44.47219" lon="0.95597">
        <ele>100.6</ele>
        <time>2014-03-08T16:55:21Z</time>
      </trkpt>
      <trkpt lat="44.47227" lon="0.95594">
        <ele>100.11</ele>
        <time>2014-03-08T16:55:22Z</time>
      </trkpt>
      <trkpt lat="44.47234" lon="0.9559">
        <ele>100.11</ele>
        <time>2014-03-08T16:55:23Z</time>
      </trkpt>
      <trkpt lat="44.47242" lon="0.95584">
        <ele>99.63</ele>
        <time>2014-03-08T16:55:24Z</time>
      </trkpt>
      <trkpt lat="44.4725" lon="0.95578">
        <ele>99.63</ele>
        <time>2014-03-08T16:55:25Z</time>
      </trkpt>
      <trkpt lat="44.47351" lon="0.9548">
        <ele>90.02</ele>
        <time>2014-03-08T16:55:36Z</time>
      </trkpt>
      <trkpt lat="44.47463" lon="0.95375">
        <ele>85.21</ele>
        <time>2014-03-08T16:55:49Z</time>
      </trkpt>
      <trkpt lat="44.47555" lon="0.9529">
        <ele>83.29</ele>
        <time>2014-03-08T16:56:03Z</time>
      </trkpt>
      <trkpt lat="44.47624" lon="0.95209">
        <ele>79.45</ele>
        <time>2014-03-08T16:56:15Z</time>
      </trkpt>
      <trkpt lat="44.47697" lon="0.95154">
        <ele>78</ele>
        <time>2014-03-08T16:56:25Z</time>
      </trkpt>
      <trkpt lat="44.47794" lon="0.95122">
        <ele>78.48</ele>
        <time>2014-03-08T16:56:39Z</time>
      </trkpt>
      <trkpt lat="44.47894" lon="0.95096">
        <ele>76.56</ele>
        <time>2014-03-08T16:56:54Z</time>
      </trkpt>
      <trkpt lat="44.47907" lon="0.95092">
        <ele>76.08</ele>
        <time>2014-03-08T16:56:56Z</time>
      </trkpt>
      <trkpt lat="44.47913" lon="0.95088">
        <ele>76.08</ele>
        <time>2014-03-08T16:56:57Z</time>
      </trkpt>
      <trkpt lat="44.47918" lon="0.95082">
        <ele>75.6</ele>
        <time>2014-03-08T16:56:58Z</time>
      </trkpt>
      <trkpt lat="44.47923" lon="0.95076">
        <ele>75.12</ele>
        <time>2014-03-08T16:56:59Z</time>
      </trkpt>
      <trkpt lat="44.47928" lon="0.95069">
        <ele>75.12</ele>
        <time>2014-03-08T16:57:00Z</time>
      </trkpt>
      <trkpt lat="44.47933" lon="0.95062">
        <ele>74.64</ele>
        <time>2014-03-08T16:57:01Z</time>
      </trkpt>
      <trkpt lat="44.47937" lon="0.95054">
        <ele>74.16</ele>
        <time>2014-03-08T16:57:02Z</time>
      </trkpt>
      <trkpt lat="44.47945" lon="0.95039">
        <ele>73.68</ele>
        <time>2014-03-08T16:57:04Z</time>
      </trkpt>
      <trkpt lat="44.47962" lon="0.95013">
        <ele>73.2</ele>
        <time>2014-03-08T16:57:11Z</time>
      </trkpt>
      <trkpt lat="44.47962" lon="0.95013">
        <ele>72.24</ele>
        <time>2014-03-08T16:57:31Z</time>
      </trkpt>
      <trkpt lat="44.47963" lon="0.95011">
        <ele>71.76</ele>
        <time>2014-03-08T16:57:35Z</time>
      </trkpt>
      <trkpt lat="44.47962" lon="0.95008">
        <ele>71.76</ele>
        <time>2014-03-08T16:57:36Z</time>
      </trkpt>
      <trkpt lat="44.47961" lon="0.95006">
        <ele>71.76</ele>
        <time>2014-03-08T16:57:37Z</time>
      </trkpt>
      <trkpt lat="44.4796" lon="0.95002">
        <ele>71.76</ele>
        <time>2014-03-08T16:57:38Z</time>
      </trkpt>
      <trkpt lat="44.47959" lon="0.94998">
        <ele>71.76</ele>
        <time>2014-03-08T16:57:39Z</time>
      </trkpt>
      <trkpt lat="44.47956" lon="0.94993">
        <ele>71.76</ele>
        <time>2014-03-08T16:57:40Z</time>
      </trkpt>
      <trkpt lat="44.47941" lon="0.94965">
        <ele>71.76</ele>
        <time>2014-03-08T16:57:45Z</time>
      </trkpt>
      <trkpt lat="44.47914" lon="0.94915">
        <ele>72.72</ele>
        <time>2014-03-08T16:57:56Z</time>
      </trkpt>
      <trkpt lat="44.47908" lon="0.94898">
        <ele>72.72</ele>
        <time>2014-03-08T16:57:59Z</time>
      </trkpt>
      <trkpt lat="44.47906" lon="0.94893">
        <ele>72.72</ele>
        <time>2014-03-08T16:58:00Z</time>
      </trkpt>
      <trkpt lat="44.47904" lon="0.94887">
        <ele>72.72</ele>
        <time>2014-03-08T16:58:01Z</time>
      </trkpt>
      <trkpt lat="44.47904" lon="0.94881">
        <ele>72.24</ele>
        <time>2014-03-08T16:58:02Z</time>
      </trkpt>
      <trkpt lat="44.47905" lon="0.94875">
        <ele>72.24</ele>
        <time>2014-03-08T16:58:03Z</time>
      </trkpt>
      <trkpt lat="44.47908" lon="0.9487">
        <ele>71.76</ele>
        <time>2014-03-08T16:58:04Z</time>
      </trkpt>
      <trkpt lat="44.47912" lon="0.94865">
        <ele>71.27</ele>
        <time>2014-03-08T16:58:05Z</time>
      </trkpt>
      <trkpt lat="44.47917" lon="0.9486">
        <ele>71.27</ele>
        <time>2014-03-08T16:58:06Z</time>
      </trkpt>
      <trkpt lat="44.47963" lon="0.94822">
        <ele>67.43</ele>
        <time>2014-03-08T16:58:16Z</time>
      </trkpt>
      <trkpt lat="44.47977" lon="0.94811">
        <ele>66.47</ele>
        <time>2014-03-08T16:58:20Z</time>
      </trkpt>
      <trkpt lat="44.48016" lon="0.94781">
        <ele>65.99</ele>
        <time>2014-03-08T16:58:32Z</time>
      </trkpt>
      <trkpt lat="44.48016" lon="0.94779">
        <ele>65.99</ele>
        <time>2014-03-08T16:58:33Z</time>
      </trkpt>
      <trkpt lat="44.48016" lon="0.94777">
        <ele>65.99</ele>
        <time>2014-03-08T16:58:34Z</time>
      </trkpt>
      <trkpt lat="44.48015" lon="0.94773">
        <ele>65.99</ele>
        <time>2014-03-08T16:58:35Z</time>
      </trkpt>
      <trkpt lat="44.47998" lon="0.94739">
        <ele>65.51</ele>
        <time>2014-03-08T16:58:42Z</time>
      </trkpt>
      <trkpt lat="44.47988" lon="0.94713">
        <ele>65.51</ele>
        <time>2014-03-08T16:58:47Z</time>
      </trkpt>
      <trkpt lat="44.47985" lon="0.94707">
        <ele>65.51</ele>
        <time>2014-03-08T16:58:48Z</time>
      </trkpt>
      <trkpt lat="44.47965" lon="0.94654">
        <ele>66.47</ele>
        <time>2014-03-08T16:58:56Z</time>
      </trkpt>
      <trkpt lat="44.47962" lon="0.94647">
        <ele>66.47</ele>
        <time>2014-03-08T16:58:57Z</time>
      </trkpt>
      <trkpt lat="44.47947" lon="0.94592">
        <ele>68.87</ele>
        <time>2014-03-08T16:59:05Z</time>
      </trkpt>
      <trkpt lat="44.47935" lon="0.94546">
        <ele>69.35</ele>
        <time>2014-03-08T16:59:12Z</time>
      </trkpt>
      <trkpt lat="44.47931" lon="0.94533">
        <ele>69.35</ele>
        <time>2014-03-08T16:59:14Z</time>
      </trkpt>
      <trkpt lat="44.47914" lon="0.94483">
        <ele>67.91</ele>
        <time>2014-03-08T16:59:22Z</time>
      </trkpt>
      <trkpt lat="44.47908" lon="0.94465">
        <ele>68.39</ele>
        <time>2014-03-08T16:59:25Z</time>
      </trkpt>
      <trkpt lat="44.47903" lon="0.9444">
        <ele>67.91</ele>
        <time>2014-03-08T16:59:29Z</time>
      </trkpt>
      <trkpt lat="44.47885" lon="0.94387">
        <ele>66.95</ele>
        <time>2014-03-08T16:59:38Z</time>
      </trkpt>
      <trkpt lat="44.47879" lon="0.94372">
        <ele>66.95</ele>
        <time>2014-03-08T16:59:41Z</time>
      </trkpt>
      <trkpt lat="44.47847" lon="0.94291">
        <ele>65.51</ele>
        <time>2014-03-08T16:59:55Z</time>
      </trkpt>
      <trkpt lat="44.47832" lon="0.94246">
        <ele>64.55</ele>
        <time>2014-03-08T17:00:02Z</time>
      </trkpt>
      <trkpt lat="44.4781" lon="0.9422">
        <ele>64.07</ele>
        <time>2014-03-08T17:00:11Z</time>
      </trkpt>
      <trkpt lat="44.47797" lon="0.94189">
        <ele>62.62</ele>
        <time>2014-03-08T17:00:19Z</time>
      </trkpt>
      <trkpt lat="44.47759" lon="0.94135">
        <ele>63.58</ele>
        <time>2014-03-08T17:00:33Z</time>
      </trkpt>
      <trkpt lat="44.47733" lon="0.9411">
        <ele>63.58</ele>
        <time>2014-03-08T17:00:42Z</time>
      </trkpt>
      <trkpt lat="44.47717" lon="0.94098">
        <ele>64.07</ele>
        <time>2014-03-08T17:00:46Z</time>
      </trkpt>
      <trkpt lat="44.47705" lon="0.94087">
        <ele>63.58</ele>
        <time>2014-03-08T17:00:49Z</time>
      </trkpt>
      <trkpt lat="44.47664" lon="0.94052">
        <ele>64.07</ele>
        <time>2014-03-08T17:01:02Z</time>
      </trkpt>
      <trkpt lat="44.47614" lon="0.94021">
        <ele>63.1</ele>
        <time>2014-03-08T17:01:17Z</time>
      </trkpt>
      <trkpt lat="44.47597" lon="0.94007">
        <ele>63.1</ele>
        <time>2014-03-08T17:01:23Z</time>
      </trkpt>
      <trkpt lat="44.47565" lon="0.93979">
        <ele>63.1</ele>
        <time>2014-03-08T17:01:32Z</time>
      </trkpt>
      <trkpt lat="44.47547" lon="0.93964">
        <ele>63.1</ele>
        <time>2014-03-08T17:01:37Z</time>
      </trkpt>
      <trkpt lat="44.47542" lon="0.93962">
        <ele>63.1</ele>
        <time>2014-03-08T17:01:38Z</time>
      </trkpt>
      <trkpt lat="44.47525" lon="0.93958">
        <ele>63.58</ele>
        <time>2014-03-08T17:01:42Z</time>
      </trkpt>
      <trkpt lat="44.47522" lon="0.93955">
        <ele>64.07</ele>
        <time>2014-03-08T17:01:43Z</time>
      </trkpt>
      <trkpt lat="44.47519" lon="0.93952">
        <ele>64.07</ele>
        <time>2014-03-08T17:01:44Z</time>
      </trkpt>
      <trkpt lat="44.47507" lon="0.93929">
        <ele>65.51</ele>
        <time>2014-03-08T17:01:49Z</time>
      </trkpt>
      <trkpt lat="44.47501" lon="0.93919">
        <ele>65.99</ele>
        <time>2014-03-08T17:01:51Z</time>
      </trkpt>
      <trkpt lat="44.475" lon="0.93913">
        <ele>65.99</ele>
        <time>2014-03-08T17:01:52Z</time>
      </trkpt>
      <trkpt lat="44.47498" lon="0.93908">
        <ele>66.47</ele>
        <time>2014-03-08T17:01:53Z</time>
      </trkpt>
      <trkpt lat="44.4749" lon="0.93893">
        <ele>67.43</ele>
        <time>2014-03-08T17:01:57Z</time>
      </trkpt>
      <trkpt lat="44.47488" lon="0.93892">
        <ele>67.43</ele>
        <time>2014-03-08T17:01:58Z</time>
      </trkpt>
      <trkpt lat="44.47486" lon="0.93892">
        <ele>67.91</ele>
        <time>2014-03-08T17:01:59Z</time>
      </trkpt>
      <trkpt lat="44.47478" lon="0.93897">
        <ele>66.95</ele>
        <time>2014-03-08T17:02:11Z</time>
      </trkpt>
      <trkpt lat="44.4744" lon="0.93925">
        <ele>66.47</ele>
        <time>2014-03-08T17:02:25Z</time>
      </trkpt>
      <trkpt lat="44.47412" lon="0.93948">
        <ele>68.87</ele>
        <time>2014-03-08T17:02:36Z</time>
      </trkpt>
      <trkpt lat="44.47395" lon="0.9396">
        <ele>70.79</ele>
        <time>2014-03-08T17:02:46Z</time>
      </trkpt>
      <trkpt lat="44.47394" lon="0.93956">
        <ele>71.27</ele>
        <time>2014-03-08T17:02:50Z</time>
      </trkpt>
      <trkpt lat="44.47384" lon="0.93912">
        <ele>71.27</ele>
        <time>2014-03-08T17:03:01Z</time>
      </trkpt>
      <trkpt lat="44.47371" lon="0.93856">
        <ele>70.79</ele>
        <time>2014-03-08T17:03:11Z</time>
      </trkpt>
      <trkpt lat="44.47368" lon="0.93845">
        <ele>70.31</ele>
        <time>2014-03-08T17:03:13Z</time>
      </trkpt>
      <trkpt lat="44.47366" lon="0.93839">
        <ele>70.31</ele>
        <time>2014-03-08T17:03:14Z</time>
      </trkpt>
      <trkpt lat="44.47364" lon="0.93835">
        <ele>70.31</ele>
        <time>2014-03-08T17:03:15Z</time>
      </trkpt>
      <trkpt lat="44.47362" lon="0.93831">
        <ele>70.79</ele>
        <time>2014-03-08T17:03:16Z</time>
      </trkpt>
      <trkpt lat="44.47359" lon="0.93828">
        <ele>70.79</ele>
        <time>2014-03-08T17:03:17Z</time>
      </trkpt>
      <trkpt lat="44.47358" lon="0.93825">
        <ele>71.27</ele>
        <time>2014-03-08T17:03:18Z</time>
      </trkpt>
      <trkpt lat="44.47346" lon="0.93816">
        <ele>72.72</ele>
        <time>2014-03-08T17:03:23Z</time>
      </trkpt>
      <trkpt lat="44.47345" lon="0.93812">
        <ele>72.72</ele>
        <time>2014-03-08T17:03:24Z</time>
      </trkpt>
      <trkpt lat="44.47333" lon="0.9376">
        <ele>74.16</ele>
        <time>2014-03-08T17:03:35Z</time>
      </trkpt>
      <trkpt lat="44.47328" lon="0.93753">
        <ele>73.68</ele>
        <time>2014-03-08T17:03:37Z</time>
      </trkpt>
      <trkpt lat="44.47325" lon="0.9375">
        <ele>73.68</ele>
        <time>2014-03-08T17:03:38Z</time>
      </trkpt>
      <trkpt lat="44.47302" lon="0.93704">
        <ele>74.64</ele>
        <time>2014-03-08T17:03:49Z</time>
      </trkpt>
      <trkpt lat="44.47297" lon="0.93688">
        <ele>76.08</ele>
        <time>2014-03-08T17:03:53Z</time>
      </trkpt>
      <trkpt lat="44.47295" lon="0.93686">
        <ele>76.08</ele>
        <time>2014-03-08T17:03:54Z</time>
      </trkpt>
      <trkpt lat="44.47286" lon="0.93675">
        <ele>76.08</ele>
        <time>2014-03-08T17:03:57Z</time>
      </trkpt>
      <trkpt lat="44.47284" lon="0.93669">
        <ele>76.08</ele>
        <time>2014-03-08T17:03:58Z</time>
      </trkpt>
      <trkpt lat="44.47283" lon="0.93664">
        <ele>76.08</ele>
        <time>2014-03-08T17:03:59Z</time>
      </trkpt>
      <trkpt lat="44.47281" lon="0.93659">
        <ele>75.6</ele>
        <time>2014-03-08T17:04:00Z</time>
      </trkpt>
      <trkpt lat="44.47279" lon="0.93653">
        <ele>75.6</ele>
        <time>2014-03-08T17:04:01Z</time>
      </trkpt>
      <trkpt lat="44.47275" lon="0.93647">
        <ele>75.6</ele>
        <time>2014-03-08T17:04:02Z</time>
      </trkpt>
      <trkpt lat="44.47271" lon="0.93643">
        <ele>75.6</ele>
        <time>2014-03-08T17:04:03Z</time>
      </trkpt>
      <trkpt lat="44.4726" lon="0.93632">
        <ele>76.08</ele>
        <time>2014-03-08T17:04:06Z</time>
      </trkpt>
      <trkpt lat="44.47248" lon="0.93618">
        <ele>76.08</ele>
        <time>2014-03-08T17:04:10Z</time>
      </trkpt>
      <trkpt lat="44.47246" lon="0.93613">
        <ele>76.08</ele>
        <time>2014-03-08T17:04:11Z</time>
      </trkpt>
      <trkpt lat="44.47245" lon="0.93608">
        <ele>76.08</ele>
        <time>2014-03-08T17:04:12Z</time>
      </trkpt>
      <trkpt lat="44.47226" lon="0.93563">
        <ele>76.08</ele>
        <time>2014-03-08T17:04:22Z</time>
      </trkpt>
      <trkpt lat="44.47226" lon="0.93558">
        <ele>76.08</ele>
        <time>2014-03-08T17:04:23Z</time>
      </trkpt>
      <trkpt lat="44.47227" lon="0.93554">
        <ele>76.56</ele>
        <time>2014-03-08T17:04:24Z</time>
      </trkpt>
      <trkpt lat="44.47227" lon="0.93548">
        <ele>76.56</ele>
        <time>2014-03-08T17:04:25Z</time>
      </trkpt>
      <trkpt lat="44.47227" lon="0.93542">
        <ele>76.56</ele>
        <time>2014-03-08T17:04:26Z</time>
      </trkpt>
      <trkpt lat="44.47226" lon="0.93536">
        <ele>76.56</ele>
        <time>2014-03-08T17:04:27Z</time>
      </trkpt>
      <trkpt lat="44.47225" lon="0.93531">
        <ele>76.56</ele>
        <time>2014-03-08T17:04:28Z</time>
      </trkpt>
      <trkpt lat="44.47224" lon="0.93525">
        <ele>76.56</ele>
        <time>2014-03-08T17:04:29Z</time>
      </trkpt>
      <trkpt lat="44.47223" lon="0.93519">
        <ele>76.56</ele>
        <time>2014-03-08T17:04:30Z</time>
      </trkpt>
      <trkpt lat="44.47222" lon="0.93513">
        <ele>76.08</ele>
        <time>2014-03-08T17:04:31Z</time>
      </trkpt>
      <trkpt lat="44.47221" lon="0.93507">
        <ele>76.08</ele>
        <time>2014-03-08T17:04:32Z</time>
      </trkpt>
      <trkpt lat="44.47217" lon="0.93489">
        <ele>76.08</ele>
        <time>2014-03-08T17:04:35Z</time>
      </trkpt>
      <trkpt lat="44.47216" lon="0.93483">
        <ele>75.6</ele>
        <time>2014-03-08T17:04:36Z</time>
      </trkpt>
      <trkpt lat="44.47215" lon="0.93477">
        <ele>75.6</ele>
        <time>2014-03-08T17:04:37Z</time>
      </trkpt>
      <trkpt lat="44.47214" lon="0.93471">
        <ele>75.6</ele>
        <time>2014-03-08T17:04:38Z</time>
      </trkpt>
      <trkpt lat="44.47214" lon="0.93466">
        <ele>75.12</ele>
        <time>2014-03-08T17:04:39Z</time>
      </trkpt>
      <trkpt lat="44.47214" lon="0.93461">
        <ele>75.12</ele>
        <time>2014-03-08T17:04:40Z</time>
      </trkpt>
      <trkpt lat="44.47214" lon="0.93458">
        <ele>74.64</ele>
        <time>2014-03-08T17:04:41Z</time>
      </trkpt>
      <trkpt lat="44.47213" lon="0.93455">
        <ele>74.64</ele>
        <time>2014-03-08T17:04:42Z</time>
      </trkpt>
      <trkpt lat="44.47213" lon="0.93452">
        <ele>74.64</ele>
        <time>2014-03-08T17:04:43Z</time>
      </trkpt>
      <trkpt lat="44.47212" lon="0.93449">
        <ele>74.16</ele>
        <time>2014-03-08T17:04:44Z</time>
      </trkpt>
      <trkpt lat="44.47211" lon="0.93447">
        <ele>74.16</ele>
        <time>2014-03-08T17:04:45Z</time>
      </trkpt>
      <trkpt lat="44.47209" lon="0.93439">
        <ele>73.68</ele>
        <time>2014-03-08T17:04:48Z</time>
      </trkpt>
      <trkpt lat="44.47209" lon="0.93436">
        <ele>73.68</ele>
        <time>2014-03-08T17:04:49Z</time>
      </trkpt>
      <trkpt lat="44.47209" lon="0.93431">
        <ele>73.68</ele>
        <time>2014-03-08T17:04:51Z</time>
      </trkpt>
      <trkpt lat="44.47208" lon="0.93429">
        <ele>73.2</ele>
        <time>2014-03-08T17:04:52Z</time>
      </trkpt>
      <trkpt lat="44.47208" lon="0.93427">
        <ele>73.2</ele>
        <time>2014-03-08T17:04:53Z</time>
      </trkpt>
      <trkpt lat="44.47207" lon="0.93426">
        <ele>73.68</ele>
        <time>2014-03-08T17:04:54Z</time>
      </trkpt>
      <trkpt lat="44.47207" lon="0.93422">
        <ele>73.68</ele>
        <time>2014-03-08T17:05:07Z</time>
      </trkpt>
      <trkpt lat="44.47208" lon="0.93423">
        <ele>74.16</ele>
        <time>2014-03-08T17:05:29Z</time>
      </trkpt>
      <trkpt lat="44.47206" lon="0.93421">
        <ele>73.68</ele>
        <time>2014-03-08T17:05:42Z</time>
      </trkpt>
      <trkpt lat="44.47205" lon="0.93421">
        <ele>71.76</ele>
        <time>2014-03-08T17:06:11Z</time>
      </trkpt>
      <trkpt lat="44.47206" lon="0.93421">
        <ele>73.68</ele>
        <time>2014-03-08T17:06:45Z</time>
      </trkpt>
      <trkpt lat="44.47204" lon="0.93422">
        <ele>75.6</ele>
        <time>2014-03-08T17:07:27Z</time>
      </trkpt>
      <trkpt lat="44.47203" lon="0.93422">
        <ele>75.12</ele>
        <time>2014-03-08T17:08:04Z</time>
      </trkpt>
      <trkpt lat="44.47204" lon="0.93422">
        <ele>74.16</ele>
        <time>2014-03-08T17:08:34Z</time>
      </trkpt>
      <trkpt lat="44.47205" lon="0.93424">
        <ele>73.68</ele>
        <time>2014-03-08T17:09:06Z</time>
      </trkpt>
    </trkseg>
  </trk>
</gpx>